<?xml version="1.0" encoding="UTF-8" standalone="no" ?><gpx xmlns="http://www.topografix.com/GPX/1/1" xmlns:gpxx="http://www.garmin.com/xmlschemas/GpxExtensions/v3" xmlns:wptx1="http://www.garmin.com/xmlschemas/WaypointExtension/v1" xmlns:gpxtpx="http://www.garmin.com/xmlschemas/TrackPointExtension/v1" creator="GuideVTT.com" version="1.1" xmlns:xsi="http://www.w3.org/2001/XMLSchema-instance" xsi:schemaLocation="http://www.topografix.com/GPX/1/1 http://www.topografix.com/GPX/1/1/gpx.xsd http://www.garmin.com/xmlschemas/GpxExtensions/v3 http://www8.garmin.com/xmlschemas/GpxExtensionsv3.xsd http://www.garmin.com/xmlschemas/WaypointExtension/v1 http://www8.garmin.com/xmlschemas/WaypointExtensionv1.xsd http://www.garmin.com/xmlschemas/TrackPointExtension/v1 http://www.garmin.com/xmlschemas/TrackPointExtensionv1.xsd">
<metadata><link href="http://www.garmin.com"><text>Garmin International</text></link><time>2013-06-22T15:13:50Z</time></metadata>
<trk><name>00000_20110217.gpx</name><extensions><gpxx:TrackExtension><gpxx:DisplayColor>Cyan</gpxx:DisplayColor></gpxx:TrackExtension></extensions><trkseg>
<trkpt lat="42.290688" lon="3.277903"><ele>-43.3</ele><time>2011-02-17T09:08:04Z</time></trkpt>
<trkpt lat="42.290662" lon="3.277777"><ele>-44.4</ele><time>2011-02-17T09:08:08Z</time></trkpt>
<trkpt lat="42.290612" lon="3.277708"><ele>-40.8</ele><time>2011-02-17T09:08:13Z</time></trkpt>
<trkpt lat="42.290562" lon="3.277612"><ele>-41</ele><time>2011-02-17T09:08:18Z</time></trkpt>
<trkpt lat="42.290497" lon="3.277518"><ele>-40.3</ele><time>2011-02-17T09:08:23Z</time></trkpt>
<trkpt lat="42.290443" lon="3.277412"><ele>-39.2</ele><time>2011-02-17T09:08:28Z</time></trkpt>
<trkpt lat="42.290382" lon="3.277287"><ele>-38.3</ele><time>2011-02-17T09:08:33Z</time></trkpt>
<trkpt lat="42.290378" lon="3.277268"><ele>-37.7</ele><time>2011-02-17T09:08:38Z</time></trkpt>
<trkpt lat="42.290378" lon="3.277265"><ele>-37.4</ele><time>2011-02-17T09:08:43Z</time></trkpt>
<trkpt lat="42.290302" lon="3.277137"><ele>-37.2</ele><time>2011-02-17T09:08:48Z</time></trkpt>
<trkpt lat="42.290260" lon="3.276925"><ele>-37.1</ele><time>2011-02-17T09:08:53Z</time></trkpt>
<trkpt lat="42.290207" lon="3.276685"><ele>-37.5</ele><time>2011-02-17T09:08:58Z</time></trkpt>
<trkpt lat="42.290183" lon="3.276427"><ele>-37.9</ele><time>2011-02-17T09:09:03Z</time></trkpt>
<trkpt lat="42.290207" lon="3.276143"><ele>-39.2</ele><time>2011-02-17T09:09:08Z</time></trkpt>
<trkpt lat="42.290127" lon="3.275868"><ele>-39.1</ele><time>2011-02-17T09:09:13Z</time></trkpt>
<trkpt lat="42.290035" lon="3.275647"><ele>-39.2</ele><time>2011-02-17T09:09:18Z</time></trkpt>
<trkpt lat="42.290002" lon="3.275465"><ele>-39.3</ele><time>2011-02-17T09:09:23Z</time></trkpt>
<trkpt lat="42.290035" lon="3.275255"><ele>-39.5</ele><time>2011-02-17T09:09:28Z</time></trkpt>
<trkpt lat="42.290073" lon="3.274997"><ele>-39.8</ele><time>2011-02-17T09:09:33Z</time></trkpt>
<trkpt lat="42.290065" lon="3.274725"><ele>-40.4</ele><time>2011-02-17T09:09:38Z</time></trkpt>
<trkpt lat="42.290028" lon="3.274460"><ele>-40.8</ele><time>2011-02-17T09:09:43Z</time></trkpt>
<trkpt lat="42.289990" lon="3.274195"><ele>-41</ele><time>2011-02-17T09:09:48Z</time></trkpt>
<trkpt lat="42.290012" lon="3.274180"><ele>1.4</ele><time>2011-02-17T09:09:53Z</time></trkpt>
<trkpt lat="42.290142" lon="3.274042"><ele>14</ele><time>2011-02-17T09:09:58Z</time></trkpt>
<trkpt lat="42.290307" lon="3.273910"><ele>16.7</ele><time>2011-02-17T09:10:03Z</time></trkpt>
<trkpt lat="42.290177" lon="3.273822"><ele>16.7</ele><time>2011-02-17T09:10:08Z</time></trkpt>
<trkpt lat="42.289925" lon="3.274060"><ele>14.8</ele><time>2011-02-17T09:10:13Z</time></trkpt>
<trkpt lat="42.289662" lon="3.274243"><ele>13.8</ele><time>2011-02-17T09:10:18Z</time></trkpt>
<trkpt lat="42.289410" lon="3.274242"><ele>15.1</ele><time>2011-02-17T09:10:23Z</time></trkpt>
<trkpt lat="42.289245" lon="3.274233"><ele>15.1</ele><time>2011-02-17T09:10:28Z</time></trkpt>
<trkpt lat="42.289058" lon="3.274242"><ele>15</ele><time>2011-02-17T09:10:33Z</time></trkpt>
<trkpt lat="42.288880" lon="3.274233"><ele>15.2</ele><time>2011-02-17T09:10:38Z</time></trkpt>
<trkpt lat="42.288780" lon="3.274087"><ele>15.3</ele><time>2011-02-17T09:10:43Z</time></trkpt>
<trkpt lat="42.288715" lon="3.273923"><ele>15.7</ele><time>2011-02-17T09:10:48Z</time></trkpt>
<trkpt lat="42.288612" lon="3.273892"><ele>18.5</ele><time>2011-02-17T09:10:53Z</time></trkpt>
<trkpt lat="42.288487" lon="3.273970"><ele>22.8</ele><time>2011-02-17T09:10:58Z</time></trkpt>
<trkpt lat="42.288365" lon="3.274038"><ele>32.4</ele><time>2011-02-17T09:11:03Z</time></trkpt>
<trkpt lat="42.288250" lon="3.274098"><ele>41.9</ele><time>2011-02-17T09:11:08Z</time></trkpt>
<trkpt lat="42.288087" lon="3.274138"><ele>43.2</ele><time>2011-02-17T09:11:13Z</time></trkpt>
<trkpt lat="42.287978" lon="3.274248"><ele>37</ele><time>2011-02-17T09:11:18Z</time></trkpt>
<trkpt lat="42.287838" lon="3.274357"><ele>34.8</ele><time>2011-02-17T09:11:23Z</time></trkpt>
<trkpt lat="42.287712" lon="3.274467"><ele>31</ele><time>2011-02-17T09:11:28Z</time></trkpt>
<trkpt lat="42.287563" lon="3.274607"><ele>29.3</ele><time>2011-02-17T09:11:33Z</time></trkpt>
<trkpt lat="42.287430" lon="3.274767"><ele>28.9</ele><time>2011-02-17T09:11:38Z</time></trkpt>
<trkpt lat="42.287315" lon="3.274930"><ele>27.6</ele><time>2011-02-17T09:11:43Z</time></trkpt>
<trkpt lat="42.287193" lon="3.275047"><ele>26.4</ele><time>2011-02-17T09:11:48Z</time></trkpt>
<trkpt lat="42.287098" lon="3.275147"><ele>26.3</ele><time>2011-02-17T09:11:53Z</time></trkpt>
<trkpt lat="42.287025" lon="3.275252"><ele>26.1</ele><time>2011-02-17T09:11:58Z</time></trkpt>
<trkpt lat="42.286983" lon="3.275362"><ele>26.4</ele><time>2011-02-17T09:12:03Z</time></trkpt>
<trkpt lat="42.286930" lon="3.275345"><ele>27.8</ele><time>2011-02-17T09:12:08Z</time></trkpt>
<trkpt lat="42.286953" lon="3.275253"><ele>29.7</ele><time>2011-02-17T09:12:13Z</time></trkpt>
<trkpt lat="42.286965" lon="3.275145"><ele>29.2</ele><time>2011-02-17T09:12:18Z</time></trkpt>
<trkpt lat="42.286922" lon="3.275050"><ele>30.1</ele><time>2011-02-17T09:12:23Z</time></trkpt>
<trkpt lat="42.286877" lon="3.274972"><ele>31.1</ele><time>2011-02-17T09:12:28Z</time></trkpt>
<trkpt lat="42.286815" lon="3.274905"><ele>31.9</ele><time>2011-02-17T09:12:33Z</time></trkpt>
<trkpt lat="42.286750" lon="3.274863"><ele>32.3</ele><time>2011-02-17T09:12:38Z</time></trkpt>
<trkpt lat="42.286678" lon="3.274833"><ele>32.9</ele><time>2011-02-17T09:12:43Z</time></trkpt>
<trkpt lat="42.286613" lon="3.274778"><ele>34</ele><time>2011-02-17T09:12:48Z</time></trkpt>
<trkpt lat="42.286537" lon="3.274738"><ele>35</ele><time>2011-02-17T09:12:53Z</time></trkpt>
<trkpt lat="42.286427" lon="3.274845"><ele>33.5</ele><time>2011-02-17T09:12:58Z</time></trkpt>
<trkpt lat="42.286305" lon="3.275115"><ele>29.5</ele><time>2011-02-17T09:13:03Z</time></trkpt>
<trkpt lat="42.286125" lon="3.275307"><ele>25.5</ele><time>2011-02-17T09:13:08Z</time></trkpt>
<trkpt lat="42.285942" lon="3.275105"><ele>24.6</ele><time>2011-02-17T09:13:13Z</time></trkpt>
<trkpt lat="42.285782" lon="3.274887"><ele>24.4</ele><time>2011-02-17T09:13:18Z</time></trkpt>
<trkpt lat="42.285667" lon="3.274758"><ele>25.4</ele><time>2011-02-17T09:13:23Z</time></trkpt>
<trkpt lat="42.285610" lon="3.274708"><ele>26.1</ele><time>2011-02-17T09:13:28Z</time></trkpt>
<trkpt lat="42.285507" lon="3.274867"><ele>24.8</ele><time>2011-02-17T09:13:33Z</time></trkpt>
<trkpt lat="42.285388" lon="3.275082"><ele>21.5</ele><time>2011-02-17T09:13:38Z</time></trkpt>
<trkpt lat="42.285297" lon="3.275345"><ele>18.1</ele><time>2011-02-17T09:13:43Z</time></trkpt>
<trkpt lat="42.285263" lon="3.275567"><ele>14.9</ele><time>2011-02-17T09:13:48Z</time></trkpt>
<trkpt lat="42.285110" lon="3.275663"><ele>13.3</ele><time>2011-02-17T09:13:53Z</time></trkpt>
<trkpt lat="42.284997" lon="3.275682"><ele>12.9</ele><time>2011-02-17T09:13:58Z</time></trkpt>
<trkpt lat="42.284908" lon="3.275623"><ele>13.6</ele><time>2011-02-17T09:14:03Z</time></trkpt>
<trkpt lat="42.284805" lon="3.275482"><ele>11.7</ele><time>2011-02-17T09:14:08Z</time></trkpt>
<trkpt lat="42.284568" lon="3.275317"><ele>11.6</ele><time>2011-02-17T09:14:13Z</time></trkpt>
<trkpt lat="42.284283" lon="3.275262"><ele>9.5</ele><time>2011-02-17T09:14:18Z</time></trkpt>
<trkpt lat="42.283993" lon="3.275393"><ele>7.3</ele><time>2011-02-17T09:14:23Z</time></trkpt>
<trkpt lat="42.283725" lon="3.275610"><ele>6.4</ele><time>2011-02-17T09:14:28Z</time></trkpt>
<trkpt lat="42.283467" lon="3.275767"><ele>6.1</ele><time>2011-02-17T09:14:33Z</time></trkpt>
<trkpt lat="42.283233" lon="3.275832"><ele>6.7</ele><time>2011-02-17T09:14:38Z</time></trkpt>
<trkpt lat="42.283032" lon="3.275658"><ele>6.5</ele><time>2011-02-17T09:14:43Z</time></trkpt>
<trkpt lat="42.282833" lon="3.275500"><ele>7.3</ele><time>2011-02-17T09:14:48Z</time></trkpt>
<trkpt lat="42.282623" lon="3.275477"><ele>8.2</ele><time>2011-02-17T09:14:53Z</time></trkpt>
<trkpt lat="42.282455" lon="3.275490"><ele>9.2</ele><time>2011-02-17T09:14:58Z</time></trkpt>
<trkpt lat="42.282342" lon="3.275535"><ele>10.4</ele><time>2011-02-17T09:15:03Z</time></trkpt>
<trkpt lat="42.282245" lon="3.275592"><ele>11.5</ele><time>2011-02-17T09:15:08Z</time></trkpt>
<trkpt lat="42.282147" lon="3.275620"><ele>12.4</ele><time>2011-02-17T09:15:13Z</time></trkpt>
<trkpt lat="42.282047" lon="3.275597"><ele>13</ele><time>2011-02-17T09:15:18Z</time></trkpt>
<trkpt lat="42.281955" lon="3.275575"><ele>13.7</ele><time>2011-02-17T09:15:23Z</time></trkpt>
<trkpt lat="42.281928" lon="3.275578"><ele>13.3</ele><time>2011-02-17T09:15:28Z</time></trkpt>
<trkpt lat="42.281842" lon="3.275565"><ele>15</ele><time>2011-02-17T09:15:33Z</time></trkpt>
<trkpt lat="42.281757" lon="3.275528"><ele>14.7</ele><time>2011-02-17T09:15:38Z</time></trkpt>
<trkpt lat="42.281673" lon="3.275492"><ele>14.5</ele><time>2011-02-17T09:15:43Z</time></trkpt>
<trkpt lat="42.281597" lon="3.275455"><ele>15.5</ele><time>2011-02-17T09:15:48Z</time></trkpt>
<trkpt lat="42.281513" lon="3.275438"><ele>16.4</ele><time>2011-02-17T09:15:53Z</time></trkpt>
<trkpt lat="42.281433" lon="3.275407"><ele>17.6</ele><time>2011-02-17T09:15:58Z</time></trkpt>
<trkpt lat="42.281360" lon="3.275370"><ele>18.8</ele><time>2011-02-17T09:16:03Z</time></trkpt>
<trkpt lat="42.281303" lon="3.275312"><ele>20.2</ele><time>2011-02-17T09:16:08Z</time></trkpt>
<trkpt lat="42.281258" lon="3.275240"><ele>21.9</ele><time>2011-02-17T09:16:13Z</time></trkpt>
<trkpt lat="42.281220" lon="3.275157"><ele>23.3</ele><time>2011-02-17T09:16:18Z</time></trkpt>
<trkpt lat="42.281193" lon="3.275058"><ele>24.3</ele><time>2011-02-17T09:16:23Z</time></trkpt>
<trkpt lat="42.281173" lon="3.274963"><ele>25.1</ele><time>2011-02-17T09:16:28Z</time></trkpt>
<trkpt lat="42.281155" lon="3.274868"><ele>25.8</ele><time>2011-02-17T09:16:33Z</time></trkpt>
<trkpt lat="42.281155" lon="3.274773"><ele>26.8</ele><time>2011-02-17T09:16:38Z</time></trkpt>
<trkpt lat="42.281173" lon="3.274682"><ele>28</ele><time>2011-02-17T09:16:43Z</time></trkpt>
<trkpt lat="42.281178" lon="3.274590"><ele>29.3</ele><time>2011-02-17T09:16:48Z</time></trkpt>
<trkpt lat="42.281173" lon="3.274497"><ele>30.1</ele><time>2011-02-17T09:16:53Z</time></trkpt>
<trkpt lat="42.281170" lon="3.274400"><ele>31.1</ele><time>2011-02-17T09:16:58Z</time></trkpt>
<trkpt lat="42.281155" lon="3.274307"><ele>32.2</ele><time>2011-02-17T09:17:03Z</time></trkpt>
<trkpt lat="42.281132" lon="3.274215"><ele>33.1</ele><time>2011-02-17T09:17:08Z</time></trkpt>
<trkpt lat="42.281093" lon="3.274137"><ele>34</ele><time>2011-02-17T09:17:13Z</time></trkpt>
<trkpt lat="42.281048" lon="3.274075"><ele>35</ele><time>2011-02-17T09:17:18Z</time></trkpt>
<trkpt lat="42.280990" lon="3.274032"><ele>36.1</ele><time>2011-02-17T09:17:23Z</time></trkpt>
<trkpt lat="42.280925" lon="3.274007"><ele>37.1</ele><time>2011-02-17T09:17:28Z</time></trkpt>
<trkpt lat="42.280857" lon="3.273982"><ele>37.6</ele><time>2011-02-17T09:17:33Z</time></trkpt>
<trkpt lat="42.280797" lon="3.273942"><ele>38.6</ele><time>2011-02-17T09:17:38Z</time></trkpt>
<trkpt lat="42.280747" lon="3.273890"><ele>39.9</ele><time>2011-02-17T09:17:43Z</time></trkpt>
<trkpt lat="42.280690" lon="3.273848"><ele>41.2</ele><time>2011-02-17T09:17:48Z</time></trkpt>
<trkpt lat="42.280628" lon="3.273857"><ele>42.4</ele><time>2011-02-17T09:17:53Z</time></trkpt>
<trkpt lat="42.280593" lon="3.273923"><ele>43.8</ele><time>2011-02-17T09:17:58Z</time></trkpt>
<trkpt lat="42.280582" lon="3.274010"><ele>44.5</ele><time>2011-02-17T09:18:03Z</time></trkpt>
<trkpt lat="42.280590" lon="3.274102"><ele>45</ele><time>2011-02-17T09:18:08Z</time></trkpt>
<trkpt lat="42.280598" lon="3.274193"><ele>45.6</ele><time>2011-02-17T09:18:13Z</time></trkpt>
<trkpt lat="42.280582" lon="3.274283"><ele>46.4</ele><time>2011-02-17T09:18:18Z</time></trkpt>
<trkpt lat="42.280537" lon="3.274372"><ele>47.1</ele><time>2011-02-17T09:18:23Z</time></trkpt>
<trkpt lat="42.280475" lon="3.274427"><ele>47.9</ele><time>2011-02-17T09:18:28Z</time></trkpt>
<trkpt lat="42.280415" lon="3.274472"><ele>48.5</ele><time>2011-02-17T09:18:33Z</time></trkpt>
<trkpt lat="42.280338" lon="3.274512"><ele>49.1</ele><time>2011-02-17T09:18:38Z</time></trkpt>
<trkpt lat="42.280273" lon="3.274552"><ele>49.7</ele><time>2011-02-17T09:18:42Z</time></trkpt>
<trkpt lat="42.280212" lon="3.274593"><ele>50.2</ele><time>2011-02-17T09:18:47Z</time></trkpt>
<trkpt lat="42.280148" lon="3.274643"><ele>50.5</ele><time>2011-02-17T09:18:52Z</time></trkpt>
<trkpt lat="42.280078" lon="3.274682"><ele>50.8</ele><time>2011-02-17T09:18:57Z</time></trkpt>
<trkpt lat="42.280013" lon="3.274737"><ele>51.2</ele><time>2011-02-17T09:19:02Z</time></trkpt>
<trkpt lat="42.279945" lon="3.274797"><ele>51.7</ele><time>2011-02-17T09:19:07Z</time></trkpt>
<trkpt lat="42.279877" lon="3.274842"><ele>52.2</ele><time>2011-02-17T09:19:12Z</time></trkpt>
<trkpt lat="42.279793" lon="3.274860"><ele>52.4</ele><time>2011-02-17T09:19:17Z</time></trkpt>
<trkpt lat="42.279720" lon="3.274833"><ele>52.8</ele><time>2011-02-17T09:19:22Z</time></trkpt>
<trkpt lat="42.279682" lon="3.274742"><ele>53.1</ele><time>2011-02-17T09:19:27Z</time></trkpt>
<trkpt lat="42.279675" lon="3.274643"><ele>53.6</ele><time>2011-02-17T09:19:32Z</time></trkpt>
<trkpt lat="42.279723" lon="3.274572"><ele>54.3</ele><time>2011-02-17T09:19:37Z</time></trkpt>
<trkpt lat="42.279773" lon="3.274510"><ele>55.4</ele><time>2011-02-17T09:19:42Z</time></trkpt>
<trkpt lat="42.279808" lon="3.274427"><ele>56.2</ele><time>2011-02-17T09:19:47Z</time></trkpt>
<trkpt lat="42.279835" lon="3.274340"><ele>56.9</ele><time>2011-02-17T09:19:52Z</time></trkpt>
<trkpt lat="42.279865" lon="3.274248"><ele>57.4</ele><time>2011-02-17T09:19:57Z</time></trkpt>
<trkpt lat="42.279892" lon="3.274153"><ele>57.9</ele><time>2011-02-17T09:20:02Z</time></trkpt>
<trkpt lat="42.279918" lon="3.274062"><ele>58.5</ele><time>2011-02-17T09:20:07Z</time></trkpt>
<trkpt lat="42.279945" lon="3.273960"><ele>59</ele><time>2011-02-17T09:20:12Z</time></trkpt>
<trkpt lat="42.279953" lon="3.273850"><ele>59.4</ele><time>2011-02-17T09:20:17Z</time></trkpt>
<trkpt lat="42.279953" lon="3.273742"><ele>59.8</ele><time>2011-02-17T09:20:22Z</time></trkpt>
<trkpt lat="42.279945" lon="3.273635"><ele>60.2</ele><time>2011-02-17T09:20:27Z</time></trkpt>
<trkpt lat="42.279915" lon="3.273537"><ele>60.7</ele><time>2011-02-17T09:20:32Z</time></trkpt>
<trkpt lat="42.279880" lon="3.273442"><ele>61.3</ele><time>2011-02-17T09:20:37Z</time></trkpt>
<trkpt lat="42.279838" lon="3.273343"><ele>61.9</ele><time>2011-02-17T09:20:42Z</time></trkpt>
<trkpt lat="42.279805" lon="3.273250"><ele>62.6</ele><time>2011-02-17T09:20:47Z</time></trkpt>
<trkpt lat="42.279767" lon="3.273162"><ele>63.3</ele><time>2011-02-17T09:20:52Z</time></trkpt>
<trkpt lat="42.279728" lon="3.273078"><ele>64.2</ele><time>2011-02-17T09:20:57Z</time></trkpt>
<trkpt lat="42.279690" lon="3.272993"><ele>65.2</ele><time>2011-02-17T09:21:02Z</time></trkpt>
<trkpt lat="42.279633" lon="3.272928"><ele>66</ele><time>2011-02-17T09:21:07Z</time></trkpt>
<trkpt lat="42.279557" lon="3.272898"><ele>66.5</ele><time>2011-02-17T09:21:12Z</time></trkpt>
<trkpt lat="42.279477" lon="3.272858"><ele>66.6</ele><time>2011-02-17T09:21:17Z</time></trkpt>
<trkpt lat="42.279415" lon="3.272798"><ele>67.1</ele><time>2011-02-17T09:21:22Z</time></trkpt>
<trkpt lat="42.279365" lon="3.272718"><ele>67.8</ele><time>2011-02-17T09:21:27Z</time></trkpt>
<trkpt lat="42.279365" lon="3.272617"><ele>68.7</ele><time>2011-02-17T09:21:32Z</time></trkpt>
<trkpt lat="42.279362" lon="3.272512"><ele>69.6</ele><time>2011-02-17T09:21:37Z</time></trkpt>
<trkpt lat="42.279335" lon="3.272418"><ele>70.5</ele><time>2011-02-17T09:21:42Z</time></trkpt>
<trkpt lat="42.279308" lon="3.272325"><ele>71.4</ele><time>2011-02-17T09:21:47Z</time></trkpt>
<trkpt lat="42.279282" lon="3.272233"><ele>72.3</ele><time>2011-02-17T09:21:52Z</time></trkpt>
<trkpt lat="42.279243" lon="3.272148"><ele>73.2</ele><time>2011-02-17T09:21:57Z</time></trkpt>
<trkpt lat="42.279202" lon="3.272063"><ele>74.2</ele><time>2011-02-17T09:22:02Z</time></trkpt>
<trkpt lat="42.279148" lon="3.271993"><ele>74.9</ele><time>2011-02-17T09:22:07Z</time></trkpt>
<trkpt lat="42.279098" lon="3.271915"><ele>75.9</ele><time>2011-02-17T09:22:12Z</time></trkpt>
<trkpt lat="42.279068" lon="3.271823"><ele>76.7</ele><time>2011-02-17T09:22:17Z</time></trkpt>
<trkpt lat="42.279053" lon="3.271718"><ele>77.3</ele><time>2011-02-17T09:22:22Z</time></trkpt>
<trkpt lat="42.279015" lon="3.271638"><ele>78.2</ele><time>2011-02-17T09:22:27Z</time></trkpt>
<trkpt lat="42.278957" lon="3.271570"><ele>78.7</ele><time>2011-02-17T09:22:32Z</time></trkpt>
<trkpt lat="42.278888" lon="3.271508"><ele>79.1</ele><time>2011-02-17T09:22:37Z</time></trkpt>
<trkpt lat="42.278838" lon="3.271432"><ele>79.7</ele><time>2011-02-17T09:22:42Z</time></trkpt>
<trkpt lat="42.278843" lon="3.271330"><ele>80.4</ele><time>2011-02-17T09:22:47Z</time></trkpt>
<trkpt lat="42.278877" lon="3.271240"><ele>81.4</ele><time>2011-02-17T09:22:52Z</time></trkpt>
<trkpt lat="42.278920" lon="3.271153"><ele>82.6</ele><time>2011-02-17T09:22:57Z</time></trkpt>
<trkpt lat="42.278950" lon="3.271070"><ele>83.8</ele><time>2011-02-17T09:23:02Z</time></trkpt>
<trkpt lat="42.278973" lon="3.270975"><ele>84.8</ele><time>2011-02-17T09:23:07Z</time></trkpt>
<trkpt lat="42.278983" lon="3.270870"><ele>85.5</ele><time>2011-02-17T09:23:12Z</time></trkpt>
<trkpt lat="42.278992" lon="3.270763"><ele>86.2</ele><time>2011-02-17T09:23:17Z</time></trkpt>
<trkpt lat="42.278995" lon="3.270658"><ele>86.6</ele><time>2011-02-17T09:23:22Z</time></trkpt>
<trkpt lat="42.279000" lon="3.270555"><ele>87.5</ele><time>2011-02-17T09:23:27Z</time></trkpt>
<trkpt lat="42.278988" lon="3.270453"><ele>88.8</ele><time>2011-02-17T09:23:32Z</time></trkpt>
<trkpt lat="42.278935" lon="3.270390"><ele>89.7</ele><time>2011-02-17T09:23:37Z</time></trkpt>
<trkpt lat="42.278858" lon="3.270387"><ele>90.5</ele><time>2011-02-17T09:23:42Z</time></trkpt>
<trkpt lat="42.278793" lon="3.270477"><ele>90.5</ele><time>2011-02-17T09:23:47Z</time></trkpt>
<trkpt lat="42.278698" lon="3.270500"><ele>90.4</ele><time>2011-02-17T09:23:52Z</time></trkpt>
<trkpt lat="42.278607" lon="3.270483"><ele>90.6</ele><time>2011-02-17T09:23:57Z</time></trkpt>
<trkpt lat="42.278550" lon="3.270400"><ele>91.1</ele><time>2011-02-17T09:24:02Z</time></trkpt>
<trkpt lat="42.278533" lon="3.270293"><ele>91.8</ele><time>2011-02-17T09:24:07Z</time></trkpt>
<trkpt lat="42.278495" lon="3.270205"><ele>92.9</ele><time>2011-02-17T09:24:12Z</time></trkpt>
<trkpt lat="42.278423" lon="3.270192"><ele>93.8</ele><time>2011-02-17T09:24:17Z</time></trkpt>
<trkpt lat="42.278350" lon="3.270250"><ele>94.5</ele><time>2011-02-17T09:24:22Z</time></trkpt>
<trkpt lat="42.278290" lon="3.270315"><ele>95.1</ele><time>2011-02-17T09:24:27Z</time></trkpt>
<trkpt lat="42.278233" lon="3.270385"><ele>95.8</ele><time>2011-02-17T09:24:32Z</time></trkpt>
<trkpt lat="42.278175" lon="3.270445"><ele>96.6</ele><time>2011-02-17T09:24:37Z</time></trkpt>
<trkpt lat="42.278115" lon="3.270503"><ele>97.4</ele><time>2011-02-17T09:24:42Z</time></trkpt>
<trkpt lat="42.278057" lon="3.270583"><ele>98.2</ele><time>2011-02-17T09:24:47Z</time></trkpt>
<trkpt lat="42.278042" lon="3.270693"><ele>98.9</ele><time>2011-02-17T09:24:52Z</time></trkpt>
<trkpt lat="42.278057" lon="3.270802"><ele>100.2</ele><time>2011-02-17T09:24:57Z</time></trkpt>
<trkpt lat="42.278018" lon="3.270893"><ele>100.9</ele><time>2011-02-17T09:25:02Z</time></trkpt>
<trkpt lat="42.277950" lon="3.270928"><ele>101.9</ele><time>2011-02-17T09:25:07Z</time></trkpt>
<trkpt lat="42.277885" lon="3.270878"><ele>103.2</ele><time>2011-02-17T09:25:12Z</time></trkpt>
<trkpt lat="42.277855" lon="3.270775"><ele>103.8</ele><time>2011-02-17T09:25:17Z</time></trkpt>
<trkpt lat="42.277858" lon="3.270672"><ele>104.1</ele><time>2011-02-17T09:25:22Z</time></trkpt>
<trkpt lat="42.277890" lon="3.270580"><ele>105.1</ele><time>2011-02-17T09:25:27Z</time></trkpt>
<trkpt lat="42.277893" lon="3.270478"><ele>105.9</ele><time>2011-02-17T09:25:32Z</time></trkpt>
<trkpt lat="42.277893" lon="3.270357"><ele>106.2</ele><time>2011-02-17T09:25:37Z</time></trkpt>
<trkpt lat="42.277878" lon="3.270252"><ele>106.9</ele><time>2011-02-17T09:25:42Z</time></trkpt>
<trkpt lat="42.277840" lon="3.270162"><ele>107.8</ele><time>2011-02-17T09:25:47Z</time></trkpt>
<trkpt lat="42.277763" lon="3.270108"><ele>107.9</ele><time>2011-02-17T09:25:52Z</time></trkpt>
<trkpt lat="42.277683" lon="3.270055"><ele>108.4</ele><time>2011-02-17T09:25:57Z</time></trkpt>
<trkpt lat="42.277627" lon="3.269972"><ele>108.8</ele><time>2011-02-17T09:26:02Z</time></trkpt>
<trkpt lat="42.277565" lon="3.269873"><ele>109.2</ele><time>2011-02-17T09:26:07Z</time></trkpt>
<trkpt lat="42.277508" lon="3.269783"><ele>109.6</ele><time>2011-02-17T09:26:12Z</time></trkpt>
<trkpt lat="42.277462" lon="3.269675"><ele>110</ele><time>2011-02-17T09:26:17Z</time></trkpt>
<trkpt lat="42.277432" lon="3.269560"><ele>110.6</ele><time>2011-02-17T09:26:22Z</time></trkpt>
<trkpt lat="42.277370" lon="3.269470"><ele>111.2</ele><time>2011-02-17T09:26:27Z</time></trkpt>
<trkpt lat="42.277290" lon="3.269435"><ele>111.3</ele><time>2011-02-17T09:26:32Z</time></trkpt>
<trkpt lat="42.277177" lon="3.269443"><ele>111.5</ele><time>2011-02-17T09:26:37Z</time></trkpt>
<trkpt lat="42.277062" lon="3.269395"><ele>111.9</ele><time>2011-02-17T09:26:42Z</time></trkpt>
<trkpt lat="42.276985" lon="3.269302"><ele>112.6</ele><time>2011-02-17T09:26:47Z</time></trkpt>
<trkpt lat="42.276935" lon="3.269198"><ele>113.4</ele><time>2011-02-17T09:26:52Z</time></trkpt>
<trkpt lat="42.276882" lon="3.269120"><ele>114.3</ele><time>2011-02-17T09:26:57Z</time></trkpt>
<trkpt lat="42.276828" lon="3.269062"><ele>115.5</ele><time>2011-02-17T09:27:02Z</time></trkpt>
<trkpt lat="42.276833" lon="3.268958"><ele>116.5</ele><time>2011-02-17T09:27:07Z</time></trkpt>
<trkpt lat="42.276837" lon="3.268867"><ele>117.7</ele><time>2011-02-17T09:27:12Z</time></trkpt>
<trkpt lat="42.276825" lon="3.268777"><ele>118.5</ele><time>2011-02-17T09:27:17Z</time></trkpt>
<trkpt lat="42.276852" lon="3.268693"><ele>119.4</ele><time>2011-02-17T09:27:22Z</time></trkpt>
<trkpt lat="42.276893" lon="3.268618"><ele>120.5</ele><time>2011-02-17T09:27:27Z</time></trkpt>
<trkpt lat="42.276935" lon="3.268542"><ele>121.7</ele><time>2011-02-17T09:27:32Z</time></trkpt>
<trkpt lat="42.276982" lon="3.268463"><ele>122.6</ele><time>2011-02-17T09:27:37Z</time></trkpt>
<trkpt lat="42.277023" lon="3.268397"><ele>123.5</ele><time>2011-02-17T09:27:42Z</time></trkpt>
<trkpt lat="42.277065" lon="3.268313"><ele>124.3</ele><time>2011-02-17T09:27:47Z</time></trkpt>
<trkpt lat="42.277095" lon="3.268220"><ele>124.8</ele><time>2011-02-17T09:27:52Z</time></trkpt>
<trkpt lat="42.277122" lon="3.268120"><ele>125.3</ele><time>2011-02-17T09:27:57Z</time></trkpt>
<trkpt lat="42.277150" lon="3.268018"><ele>125.7</ele><time>2011-02-17T09:28:02Z</time></trkpt>
<trkpt lat="42.277160" lon="3.267898"><ele>126</ele><time>2011-02-17T09:28:07Z</time></trkpt>
<trkpt lat="42.277172" lon="3.267785"><ele>126.4</ele><time>2011-02-17T09:28:12Z</time></trkpt>
<trkpt lat="42.277198" lon="3.267678"><ele>126.8</ele><time>2011-02-17T09:28:17Z</time></trkpt>
<trkpt lat="42.277207" lon="3.267558"><ele>127.5</ele><time>2011-02-17T09:28:22Z</time></trkpt>
<trkpt lat="42.277230" lon="3.267445"><ele>128.3</ele><time>2011-02-17T09:28:27Z</time></trkpt>
<trkpt lat="42.277272" lon="3.267317"><ele>128.7</ele><time>2011-02-17T09:28:32Z</time></trkpt>
<trkpt lat="42.277283" lon="3.267208"><ele>129.9</ele><time>2011-02-17T09:28:37Z</time></trkpt>
<trkpt lat="42.277283" lon="3.267107"><ele>130.7</ele><time>2011-02-17T09:28:42Z</time></trkpt>
<trkpt lat="42.277278" lon="3.267008"><ele>131.7</ele><time>2011-02-17T09:28:47Z</time></trkpt>
<trkpt lat="42.277237" lon="3.266922"><ele>132.4</ele><time>2011-02-17T09:28:52Z</time></trkpt>
<trkpt lat="42.277172" lon="3.266862"><ele>132.9</ele><time>2011-02-17T09:28:57Z</time></trkpt>
<trkpt lat="42.277092" lon="3.266840"><ele>133.6</ele><time>2011-02-17T09:29:02Z</time></trkpt>
<trkpt lat="42.277012" lon="3.266843"><ele>134.7</ele><time>2011-02-17T09:29:07Z</time></trkpt>
<trkpt lat="42.276955" lon="3.266917"><ele>135.5</ele><time>2011-02-17T09:29:12Z</time></trkpt>
<trkpt lat="42.276920" lon="3.267030"><ele>135.9</ele><time>2011-02-17T09:29:17Z</time></trkpt>
<trkpt lat="42.276890" lon="3.267135"><ele>136.4</ele><time>2011-02-17T09:29:22Z</time></trkpt>
<trkpt lat="42.276840" lon="3.267230"><ele>136.9</ele><time>2011-02-17T09:29:27Z</time></trkpt>
<trkpt lat="42.276780" lon="3.267307"><ele>137.6</ele><time>2011-02-17T09:29:32Z</time></trkpt>
<trkpt lat="42.276715" lon="3.267383"><ele>138.1</ele><time>2011-02-17T09:29:37Z</time></trkpt>
<trkpt lat="42.276645" lon="3.267468"><ele>138.8</ele><time>2011-02-17T09:29:42Z</time></trkpt>
<trkpt lat="42.276577" lon="3.267560"><ele>139.2</ele><time>2011-02-17T09:29:47Z</time></trkpt>
<trkpt lat="42.276500" lon="3.267630"><ele>140.2</ele><time>2011-02-17T09:29:52Z</time></trkpt>
<trkpt lat="42.276420" lon="3.267607"><ele>141.3</ele><time>2011-02-17T09:29:57Z</time></trkpt>
<trkpt lat="42.276393" lon="3.267495"><ele>142.2</ele><time>2011-02-17T09:30:02Z</time></trkpt>
<trkpt lat="42.276417" lon="3.267378"><ele>143</ele><time>2011-02-17T09:30:07Z</time></trkpt>
<trkpt lat="42.276440" lon="3.267265"><ele>143.8</ele><time>2011-02-17T09:30:12Z</time></trkpt>
<trkpt lat="42.276428" lon="3.267147"><ele>144.5</ele><time>2011-02-17T09:30:17Z</time></trkpt>
<trkpt lat="42.276408" lon="3.267028"><ele>145.3</ele><time>2011-02-17T09:30:22Z</time></trkpt>
<trkpt lat="42.276402" lon="3.266908"><ele>146</ele><time>2011-02-17T09:30:27Z</time></trkpt>
<trkpt lat="42.276398" lon="3.266793"><ele>146.8</ele><time>2011-02-17T09:30:32Z</time></trkpt>
<trkpt lat="42.276363" lon="3.266692"><ele>147.5</ele><time>2011-02-17T09:30:37Z</time></trkpt>
<trkpt lat="42.276318" lon="3.266598"><ele>148.2</ele><time>2011-02-17T09:30:42Z</time></trkpt>
<trkpt lat="42.276265" lon="3.266513"><ele>148.5</ele><time>2011-02-17T09:30:47Z</time></trkpt>
<trkpt lat="42.276203" lon="3.266430"><ele>149.2</ele><time>2011-02-17T09:30:52Z</time></trkpt>
<trkpt lat="42.276130" lon="3.266382"><ele>150</ele><time>2011-02-17T09:30:57Z</time></trkpt>
<trkpt lat="42.276047" lon="3.266390"><ele>151.1</ele><time>2011-02-17T09:31:02Z</time></trkpt>
<trkpt lat="42.275997" lon="3.266483"><ele>152.5</ele><time>2011-02-17T09:31:07Z</time></trkpt>
<trkpt lat="42.276008" lon="3.266603"><ele>153.2</ele><time>2011-02-17T09:31:12Z</time></trkpt>
<trkpt lat="42.276032" lon="3.266718"><ele>153.8</ele><time>2011-02-17T09:31:17Z</time></trkpt>
<trkpt lat="42.276035" lon="3.266835"><ele>154.6</ele><time>2011-02-17T09:31:22Z</time></trkpt>
<trkpt lat="42.276017" lon="3.266937"><ele>155.5</ele><time>2011-02-17T09:31:27Z</time></trkpt>
<trkpt lat="42.275970" lon="3.267012"><ele>156.2</ele><time>2011-02-17T09:31:32Z</time></trkpt>
<trkpt lat="42.275902" lon="3.267055"><ele>157</ele><time>2011-02-17T09:31:37Z</time></trkpt>
<trkpt lat="42.275825" lon="3.267087"><ele>157.9</ele><time>2011-02-17T09:31:42Z</time></trkpt>
<trkpt lat="42.275745" lon="3.267105"><ele>158.7</ele><time>2011-02-17T09:31:47Z</time></trkpt>
<trkpt lat="42.275665" lon="3.267102"><ele>159.2</ele><time>2011-02-17T09:31:52Z</time></trkpt>
<trkpt lat="42.275605" lon="3.267153"><ele>159.6</ele><time>2011-02-17T09:31:57Z</time></trkpt>
<trkpt lat="42.275558" lon="3.267237"><ele>160.4</ele><time>2011-02-17T09:32:02Z</time></trkpt>
<trkpt lat="42.275497" lon="3.267290"><ele>161</ele><time>2011-02-17T09:32:07Z</time></trkpt>
<trkpt lat="42.275437" lon="3.267360"><ele>161.6</ele><time>2011-02-17T09:32:12Z</time></trkpt>
<trkpt lat="42.275380" lon="3.267433"><ele>162.3</ele><time>2011-02-17T09:32:17Z</time></trkpt>
<trkpt lat="42.275322" lon="3.267510"><ele>163.2</ele><time>2011-02-17T09:32:22Z</time></trkpt>
<trkpt lat="42.275265" lon="3.267587"><ele>163.9</ele><time>2011-02-17T09:32:27Z</time></trkpt>
<trkpt lat="42.275200" lon="3.267662"><ele>164.8</ele><time>2011-02-17T09:32:32Z</time></trkpt>
<trkpt lat="42.275117" lon="3.267680"><ele>165.7</ele><time>2011-02-17T09:32:37Z</time></trkpt>
<trkpt lat="42.275037" lon="3.267630"><ele>166.9</ele><time>2011-02-17T09:32:42Z</time></trkpt>
<trkpt lat="42.274982" lon="3.267530"><ele>167.9</ele><time>2011-02-17T09:32:47Z</time></trkpt>
<trkpt lat="42.274952" lon="3.267417"><ele>169</ele><time>2011-02-17T09:32:52Z</time></trkpt>
<trkpt lat="42.274967" lon="3.267298"><ele>169.7</ele><time>2011-02-17T09:32:57Z</time></trkpt>
<trkpt lat="42.275032" lon="3.267195"><ele>169.9</ele><time>2011-02-17T09:33:02Z</time></trkpt>
<trkpt lat="42.275070" lon="3.267092"><ele>170.8</ele><time>2011-02-17T09:33:07Z</time></trkpt>
<trkpt lat="42.275093" lon="3.266983"><ele>171.6</ele><time>2011-02-17T09:33:12Z</time></trkpt>
<trkpt lat="42.275117" lon="3.266878"><ele>172.4</ele><time>2011-02-17T09:33:17Z</time></trkpt>
<trkpt lat="42.275143" lon="3.266787"><ele>173.3</ele><time>2011-02-17T09:33:22Z</time></trkpt>
<trkpt lat="42.275153" lon="3.266687"><ele>174.1</ele><time>2011-02-17T09:33:27Z</time></trkpt>
<trkpt lat="42.275120" lon="3.266593"><ele>174.5</ele><time>2011-02-17T09:33:32Z</time></trkpt>
<trkpt lat="42.275063" lon="3.266520"><ele>175.1</ele><time>2011-02-17T09:33:37Z</time></trkpt>
<trkpt lat="42.274998" lon="3.266468"><ele>175.9</ele><time>2011-02-17T09:33:42Z</time></trkpt>
<trkpt lat="42.274928" lon="3.266467"><ele>176.7</ele><time>2011-02-17T09:33:47Z</time></trkpt>
<trkpt lat="42.274860" lon="3.266427"><ele>177.6</ele><time>2011-02-17T09:33:52Z</time></trkpt>
<trkpt lat="42.274795" lon="3.266377"><ele>178.5</ele><time>2011-02-17T09:33:57Z</time></trkpt>
<trkpt lat="42.274730" lon="3.266332"><ele>179.6</ele><time>2011-02-17T09:34:02Z</time></trkpt>
<trkpt lat="42.274658" lon="3.266273"><ele>179.9</ele><time>2011-02-17T09:34:07Z</time></trkpt>
<trkpt lat="42.274582" lon="3.266233"><ele>180.3</ele><time>2011-02-17T09:34:12Z</time></trkpt>
<trkpt lat="42.274502" lon="3.266218"><ele>181</ele><time>2011-02-17T09:34:17Z</time></trkpt>
<trkpt lat="42.274418" lon="3.266180"><ele>181.6</ele><time>2011-02-17T09:34:22Z</time></trkpt>
<trkpt lat="42.274338" lon="3.266138"><ele>182.3</ele><time>2011-02-17T09:34:27Z</time></trkpt>
<trkpt lat="42.274273" lon="3.266062"><ele>183</ele><time>2011-02-17T09:34:32Z</time></trkpt>
<trkpt lat="42.274215" lon="3.265947"><ele>183.5</ele><time>2011-02-17T09:34:37Z</time></trkpt>
<trkpt lat="42.274158" lon="3.265843"><ele>184.4</ele><time>2011-02-17T09:34:42Z</time></trkpt>
<trkpt lat="42.274067" lon="3.265863"><ele>185.2</ele><time>2011-02-17T09:34:47Z</time></trkpt>
<trkpt lat="42.274002" lon="3.265980"><ele>185.1</ele><time>2011-02-17T09:34:52Z</time></trkpt>
<trkpt lat="42.273915" lon="3.266087"><ele>185</ele><time>2011-02-17T09:34:57Z</time></trkpt>
<trkpt lat="42.273818" lon="3.266158"><ele>185</ele><time>2011-02-17T09:35:02Z</time></trkpt>
<trkpt lat="42.273720" lon="3.266193"><ele>185</ele><time>2011-02-17T09:35:07Z</time></trkpt>
<trkpt lat="42.273578" lon="3.266180"><ele>184.7</ele><time>2011-02-17T09:35:12Z</time></trkpt>
<trkpt lat="42.273445" lon="3.266088"><ele>184.8</ele><time>2011-02-17T09:35:17Z</time></trkpt>
<trkpt lat="42.273335" lon="3.265967"><ele>185.1</ele><time>2011-02-17T09:35:22Z</time></trkpt>
<trkpt lat="42.273235" lon="3.265847"><ele>185.4</ele><time>2011-02-17T09:35:27Z</time></trkpt>
<trkpt lat="42.273132" lon="3.265760"><ele>185.8</ele><time>2011-02-17T09:35:32Z</time></trkpt>
<trkpt lat="42.273018" lon="3.265700"><ele>186.3</ele><time>2011-02-17T09:35:37Z</time></trkpt>
<trkpt lat="42.272930" lon="3.265557"><ele>186.7</ele><time>2011-02-17T09:35:42Z</time></trkpt>
<trkpt lat="42.272873" lon="3.265417"><ele>187.1</ele><time>2011-02-17T09:35:47Z</time></trkpt>
<trkpt lat="42.272778" lon="3.265302"><ele>187</ele><time>2011-02-17T09:35:52Z</time></trkpt>
<trkpt lat="42.272663" lon="3.265360"><ele>186.6</ele><time>2011-02-17T09:35:57Z</time></trkpt>
<trkpt lat="42.272648" lon="3.265552"><ele>186.3</ele><time>2011-02-17T09:36:02Z</time></trkpt>
<trkpt lat="42.272648" lon="3.265717"><ele>186.8</ele><time>2011-02-17T09:36:07Z</time></trkpt>
<trkpt lat="42.272617" lon="3.265855"><ele>187.3</ele><time>2011-02-17T09:36:12Z</time></trkpt>
<trkpt lat="42.272563" lon="3.265975"><ele>187.9</ele><time>2011-02-17T09:36:17Z</time></trkpt>
<trkpt lat="42.272522" lon="3.266107"><ele>188.4</ele><time>2011-02-17T09:36:22Z</time></trkpt>
<trkpt lat="42.272488" lon="3.266257"><ele>188.7</ele><time>2011-02-17T09:36:27Z</time></trkpt>
<trkpt lat="42.272492" lon="3.266425"><ele>188.6</ele><time>2011-02-17T09:36:32Z</time></trkpt>
<trkpt lat="42.272480" lon="3.266573"><ele>189.1</ele><time>2011-02-17T09:36:37Z</time></trkpt>
<trkpt lat="42.272445" lon="3.266713"><ele>190</ele><time>2011-02-17T09:36:42Z</time></trkpt>
<trkpt lat="42.272385" lon="3.266832"><ele>191.3</ele><time>2011-02-17T09:36:47Z</time></trkpt>
<trkpt lat="42.272300" lon="3.266925"><ele>192.2</ele><time>2011-02-17T09:36:52Z</time></trkpt>
<trkpt lat="42.272205" lon="3.266983"><ele>193</ele><time>2011-02-17T09:36:57Z</time></trkpt>
<trkpt lat="42.272098" lon="3.267048"><ele>193.5</ele><time>2011-02-17T09:37:02Z</time></trkpt>
<trkpt lat="42.272000" lon="3.267105"><ele>194.1</ele><time>2011-02-17T09:37:07Z</time></trkpt>
<trkpt lat="42.271903" lon="3.267192"><ele>194.3</ele><time>2011-02-17T09:37:12Z</time></trkpt>
<trkpt lat="42.271828" lon="3.267327"><ele>194.3</ele><time>2011-02-17T09:37:17Z</time></trkpt>
<trkpt lat="42.271743" lon="3.267463"><ele>194.5</ele><time>2011-02-17T09:37:22Z</time></trkpt>
<trkpt lat="42.271663" lon="3.267602"><ele>194.8</ele><time>2011-02-17T09:37:27Z</time></trkpt>
<trkpt lat="42.271568" lon="3.267712"><ele>195.7</ele><time>2011-02-17T09:37:32Z</time></trkpt>
<trkpt lat="42.271458" lon="3.267797"><ele>196.5</ele><time>2011-02-17T09:37:37Z</time></trkpt>
<trkpt lat="42.271347" lon="3.267875"><ele>197.6</ele><time>2011-02-17T09:37:42Z</time></trkpt>
<trkpt lat="42.271243" lon="3.267947"><ele>198.5</ele><time>2011-02-17T09:37:47Z</time></trkpt>
<trkpt lat="42.271133" lon="3.268012"><ele>199.6</ele><time>2011-02-17T09:37:52Z</time></trkpt>
<trkpt lat="42.271003" lon="3.268050"><ele>199.9</ele><time>2011-02-17T09:37:57Z</time></trkpt>
<trkpt lat="42.270870" lon="3.268090"><ele>200.2</ele><time>2011-02-17T09:38:02Z</time></trkpt>
<trkpt lat="42.270748" lon="3.268127"><ele>200.4</ele><time>2011-02-17T09:38:07Z</time></trkpt>
<trkpt lat="42.270618" lon="3.268168"><ele>200.4</ele><time>2011-02-17T09:38:12Z</time></trkpt>
<trkpt lat="42.270503" lon="3.268217"><ele>200.8</ele><time>2011-02-17T09:38:17Z</time></trkpt>
<trkpt lat="42.270385" lon="3.268272"><ele>201.1</ele><time>2011-02-17T09:38:22Z</time></trkpt>
<trkpt lat="42.270263" lon="3.268343"><ele>201.3</ele><time>2011-02-17T09:38:27Z</time></trkpt>
<trkpt lat="42.270127" lon="3.268393"><ele>201.5</ele><time>2011-02-17T09:38:32Z</time></trkpt>
<trkpt lat="42.269988" lon="3.268347"><ele>201.8</ele><time>2011-02-17T09:38:37Z</time></trkpt>
<trkpt lat="42.269928" lon="3.268175"><ele>201.7</ele><time>2011-02-17T09:38:42Z</time></trkpt>
<trkpt lat="42.270015" lon="3.267987"><ele>201.5</ele><time>2011-02-17T09:38:47Z</time></trkpt>
<trkpt lat="42.270068" lon="3.267793"><ele>201.1</ele><time>2011-02-17T09:38:52Z</time></trkpt>
<trkpt lat="42.269988" lon="3.267647"><ele>201.3</ele><time>2011-02-17T09:38:57Z</time></trkpt>
<trkpt lat="42.269878" lon="3.267608"><ele>202.2</ele><time>2011-02-17T09:39:02Z</time></trkpt>
<trkpt lat="42.269772" lon="3.267583"><ele>202.9</ele><time>2011-02-17T09:39:07Z</time></trkpt>
<trkpt lat="42.269668" lon="3.267583"><ele>203.7</ele><time>2011-02-17T09:39:12Z</time></trkpt>
<trkpt lat="42.269573" lon="3.267590"><ele>204.4</ele><time>2011-02-17T09:39:17Z</time></trkpt>
<trkpt lat="42.269478" lon="3.267613"><ele>205.2</ele><time>2011-02-17T09:39:22Z</time></trkpt>
<trkpt lat="42.269375" lon="3.267635"><ele>206</ele><time>2011-02-17T09:39:27Z</time></trkpt>
<trkpt lat="42.269268" lon="3.267652"><ele>206.8</ele><time>2011-02-17T09:39:32Z</time></trkpt>
<trkpt lat="42.269173" lon="3.267703"><ele>207.6</ele><time>2011-02-17T09:39:37Z</time></trkpt>
<trkpt lat="42.269085" lon="3.267737"><ele>208.6</ele><time>2011-02-17T09:39:42Z</time></trkpt>
<trkpt lat="42.268997" lon="3.267768"><ele>209.4</ele><time>2011-02-17T09:39:47Z</time></trkpt>
<trkpt lat="42.268917" lon="3.267797"><ele>210.3</ele><time>2011-02-17T09:39:52Z</time></trkpt>
<trkpt lat="42.268833" lon="3.267830"><ele>211.2</ele><time>2011-02-17T09:39:57Z</time></trkpt>
<trkpt lat="42.268750" lon="3.267840"><ele>212</ele><time>2011-02-17T09:40:02Z</time></trkpt>
<trkpt lat="42.268662" lon="3.267818"><ele>212.7</ele><time>2011-02-17T09:40:07Z</time></trkpt>
<trkpt lat="42.268567" lon="3.267802"><ele>213.5</ele><time>2011-02-17T09:40:12Z</time></trkpt>
<trkpt lat="42.268478" lon="3.267783"><ele>214.4</ele><time>2011-02-17T09:40:17Z</time></trkpt>
<trkpt lat="42.268398" lon="3.267750"><ele>215.3</ele><time>2011-02-17T09:40:22Z</time></trkpt>
<trkpt lat="42.268325" lon="3.267693"><ele>216</ele><time>2011-02-17T09:40:27Z</time></trkpt>
<trkpt lat="42.268307" lon="3.267578"><ele>216.5</ele><time>2011-02-17T09:40:32Z</time></trkpt>
<trkpt lat="42.268337" lon="3.267467"><ele>216.9</ele><time>2011-02-17T09:40:37Z</time></trkpt>
<trkpt lat="42.268380" lon="3.267365"><ele>217.6</ele><time>2011-02-17T09:40:42Z</time></trkpt>
<trkpt lat="42.268422" lon="3.267260"><ele>218.2</ele><time>2011-02-17T09:40:47Z</time></trkpt>
<trkpt lat="42.268448" lon="3.267148"><ele>218.9</ele><time>2011-02-17T09:40:52Z</time></trkpt>
<trkpt lat="42.268475" lon="3.267035"><ele>219.7</ele><time>2011-02-17T09:40:57Z</time></trkpt>
<trkpt lat="42.268505" lon="3.266928"><ele>220.5</ele><time>2011-02-17T09:41:02Z</time></trkpt>
<trkpt lat="42.268535" lon="3.266822"><ele>221.2</ele><time>2011-02-17T09:41:07Z</time></trkpt>
<trkpt lat="42.268567" lon="3.266708"><ele>221.9</ele><time>2011-02-17T09:41:12Z</time></trkpt>
<trkpt lat="42.268597" lon="3.266593"><ele>222.6</ele><time>2011-02-17T09:41:17Z</time></trkpt>
<trkpt lat="42.268632" lon="3.266480"><ele>223.4</ele><time>2011-02-17T09:41:22Z</time></trkpt>
<trkpt lat="42.268668" lon="3.266352"><ele>224.1</ele><time>2011-02-17T09:41:27Z</time></trkpt>
<trkpt lat="42.268733" lon="3.266222"><ele>224.5</ele><time>2011-02-17T09:41:32Z</time></trkpt>
<trkpt lat="42.268822" lon="3.266073"><ele>224.1</ele><time>2011-02-17T09:41:37Z</time></trkpt>
<trkpt lat="42.268780" lon="3.265860"><ele>223.2</ele><time>2011-02-17T09:41:42Z</time></trkpt>
<trkpt lat="42.268638" lon="3.265792"><ele>223</ele><time>2011-02-17T09:41:47Z</time></trkpt>
<trkpt lat="42.268588" lon="3.265787"><ele>222.9</ele><time>2011-02-17T09:41:52Z</time></trkpt>
<trkpt lat="42.268505" lon="3.265827"><ele>222.9</ele><time>2011-02-17T09:41:57Z</time></trkpt>
<trkpt lat="42.268380" lon="3.265857"><ele>223.3</ele><time>2011-02-17T09:42:02Z</time></trkpt>
<trkpt lat="42.268253" lon="3.265825"><ele>224</ele><time>2011-02-17T09:42:07Z</time></trkpt>
<trkpt lat="42.268153" lon="3.265698"><ele>224.5</ele><time>2011-02-17T09:42:12Z</time></trkpt>
<trkpt lat="42.268082" lon="3.265492"><ele>224.2</ele><time>2011-02-17T09:42:17Z</time></trkpt>
<trkpt lat="42.268090" lon="3.265230"><ele>223.4</ele><time>2011-02-17T09:42:22Z</time></trkpt>
<trkpt lat="42.268123" lon="3.264945"><ele>222.4</ele><time>2011-02-17T09:42:27Z</time></trkpt>
<trkpt lat="42.268138" lon="3.264647"><ele>221.7</ele><time>2011-02-17T09:42:32Z</time></trkpt>
<trkpt lat="42.268090" lon="3.264390"><ele>221.5</ele><time>2011-02-17T09:42:37Z</time></trkpt>
<trkpt lat="42.268037" lon="3.264165"><ele>221.3</ele><time>2011-02-17T09:42:42Z</time></trkpt>
<trkpt lat="42.267967" lon="3.263943"><ele>220.9</ele><time>2011-02-17T09:42:47Z</time></trkpt>
<trkpt lat="42.267933" lon="3.263682"><ele>220.2</ele><time>2011-02-17T09:42:52Z</time></trkpt>
<trkpt lat="42.267892" lon="3.263418"><ele>219.7</ele><time>2011-02-17T09:42:57Z</time></trkpt>
<trkpt lat="42.267708" lon="3.263425"><ele>219.5</ele><time>2011-02-17T09:43:02Z</time></trkpt>
<trkpt lat="42.267495" lon="3.263515"><ele>218.6</ele><time>2011-02-17T09:43:07Z</time></trkpt>
<trkpt lat="42.267285" lon="3.263593"><ele>218.1</ele><time>2011-02-17T09:43:12Z</time></trkpt>
<trkpt lat="42.267075" lon="3.263600"><ele>217.4</ele><time>2011-02-17T09:43:17Z</time></trkpt>
<trkpt lat="42.266853" lon="3.263665"><ele>216.7</ele><time>2011-02-17T09:43:22Z</time></trkpt>
<trkpt lat="42.266670" lon="3.263870"><ele>216</ele><time>2011-02-17T09:43:27Z</time></trkpt>
<trkpt lat="42.266502" lon="3.264117"><ele>215.2</ele><time>2011-02-17T09:43:32Z</time></trkpt>
<trkpt lat="42.266365" lon="3.264353"><ele>214.6</ele><time>2011-02-17T09:43:37Z</time></trkpt>
<trkpt lat="42.266217" lon="3.264568"><ele>214.6</ele><time>2011-02-17T09:43:42Z</time></trkpt>
<trkpt lat="42.266057" lon="3.264770"><ele>214.9</ele><time>2011-02-17T09:43:47Z</time></trkpt>
<trkpt lat="42.265873" lon="3.264962"><ele>214.9</ele><time>2011-02-17T09:43:52Z</time></trkpt>
<trkpt lat="42.265687" lon="3.265153"><ele>214.8</ele><time>2011-02-17T09:43:57Z</time></trkpt>
<trkpt lat="42.265498" lon="3.265335"><ele>215</ele><time>2011-02-17T09:44:02Z</time></trkpt>
<trkpt lat="42.265300" lon="3.265507"><ele>214.8</ele><time>2011-02-17T09:44:07Z</time></trkpt>
<trkpt lat="42.265080" lon="3.265677"><ele>214.5</ele><time>2011-02-17T09:44:12Z</time></trkpt>
<trkpt lat="42.264835" lon="3.265743"><ele>214.5</ele><time>2011-02-17T09:44:17Z</time></trkpt>
<trkpt lat="42.264633" lon="3.265643"><ele>215.8</ele><time>2011-02-17T09:44:22Z</time></trkpt>
<trkpt lat="42.264557" lon="3.265438"><ele>217.4</ele><time>2011-02-17T09:44:27Z</time></trkpt>
<trkpt lat="42.264527" lon="3.265215"><ele>218.3</ele><time>2011-02-17T09:44:32Z</time></trkpt>
<trkpt lat="42.264477" lon="3.264977"><ele>218.6</ele><time>2011-02-17T09:44:37Z</time></trkpt>
<trkpt lat="42.264393" lon="3.264755"><ele>218.6</ele><time>2011-02-17T09:44:42Z</time></trkpt>
<trkpt lat="42.264297" lon="3.264545"><ele>218.4</ele><time>2011-02-17T09:44:47Z</time></trkpt>
<trkpt lat="42.264228" lon="3.264332"><ele>218.4</ele><time>2011-02-17T09:44:52Z</time></trkpt>
<trkpt lat="42.264160" lon="3.264105"><ele>218</ele><time>2011-02-17T09:44:57Z</time></trkpt>
<trkpt lat="42.263985" lon="3.263963"><ele>217.7</ele><time>2011-02-17T09:45:02Z</time></trkpt>
<trkpt lat="42.263775" lon="3.263948"><ele>217.5</ele><time>2011-02-17T09:45:07Z</time></trkpt>
<trkpt lat="42.263607" lon="3.263855"><ele>217.6</ele><time>2011-02-17T09:45:12Z</time></trkpt>
<trkpt lat="42.263538" lon="3.263632"><ele>218.2</ele><time>2011-02-17T09:45:17Z</time></trkpt>
<trkpt lat="42.263520" lon="3.263402"><ele>218.9</ele><time>2011-02-17T09:45:22Z</time></trkpt>
<trkpt lat="42.263523" lon="3.263185"><ele>219.2</ele><time>2011-02-17T09:45:27Z</time></trkpt>
<trkpt lat="42.263530" lon="3.262965"><ele>219.7</ele><time>2011-02-17T09:45:32Z</time></trkpt>
<trkpt lat="42.263562" lon="3.262748"><ele>220</ele><time>2011-02-17T09:45:37Z</time></trkpt>
<trkpt lat="42.263568" lon="3.262498"><ele>220.4</ele><time>2011-02-17T09:45:42Z</time></trkpt>
<trkpt lat="42.263588" lon="3.262275"><ele>220.8</ele><time>2011-02-17T09:45:47Z</time></trkpt>
<trkpt lat="42.263615" lon="3.262062"><ele>221.2</ele><time>2011-02-17T09:45:52Z</time></trkpt>
<trkpt lat="42.263645" lon="3.261860"><ele>221.9</ele><time>2011-02-17T09:45:57Z</time></trkpt>
<trkpt lat="42.263657" lon="3.261665"><ele>222.7</ele><time>2011-02-17T09:46:02Z</time></trkpt>
<trkpt lat="42.263657" lon="3.261457"><ele>223.2</ele><time>2011-02-17T09:46:07Z</time></trkpt>
<trkpt lat="42.263645" lon="3.261253"><ele>224</ele><time>2011-02-17T09:46:12Z</time></trkpt>
<trkpt lat="42.263645" lon="3.261078"><ele>224.7</ele><time>2011-02-17T09:46:17Z</time></trkpt>
<trkpt lat="42.263672" lon="3.260890"><ele>225.3</ele><time>2011-02-17T09:46:22Z</time></trkpt>
<trkpt lat="42.263722" lon="3.260672"><ele>225.4</ele><time>2011-02-17T09:46:27Z</time></trkpt>
<trkpt lat="42.263793" lon="3.260473"><ele>225.1</ele><time>2011-02-17T09:46:32Z</time></trkpt>
<trkpt lat="42.263908" lon="3.260315"><ele>224.5</ele><time>2011-02-17T09:46:37Z</time></trkpt>
<trkpt lat="42.264030" lon="3.260143"><ele>224.1</ele><time>2011-02-17T09:46:42Z</time></trkpt>
<trkpt lat="42.264168" lon="3.259975"><ele>223.7</ele><time>2011-02-17T09:46:47Z</time></trkpt>
<trkpt lat="42.264207" lon="3.259922"><ele>223.6</ele><time>2011-02-17T09:46:52Z</time></trkpt>
<trkpt lat="42.264207" lon="3.259928"><ele>223.7</ele><time>2011-02-17T09:46:57Z</time></trkpt>
<trkpt lat="42.264207" lon="3.259930"><ele>224</ele><time>2011-02-17T09:47:02Z</time></trkpt>
<trkpt lat="42.264207" lon="3.259930"><ele>224.3</ele><time>2011-02-17T09:47:07Z</time></trkpt>
<trkpt lat="42.264210" lon="3.259930"><ele>224.5</ele><time>2011-02-17T09:47:12Z</time></trkpt>
<trkpt lat="42.264210" lon="3.259932"><ele>224.6</ele><time>2011-02-17T09:47:17Z</time></trkpt>
<trkpt lat="42.264207" lon="3.259935"><ele>224.7</ele><time>2011-02-17T09:47:22Z</time></trkpt>
<trkpt lat="42.264207" lon="3.259937"><ele>224.7</ele><time>2011-02-17T09:47:27Z</time></trkpt>
<trkpt lat="42.264207" lon="3.259940"><ele>224.7</ele><time>2011-02-17T09:47:32Z</time></trkpt>
<trkpt lat="42.264198" lon="3.259952"><ele>224.7</ele><time>2011-02-17T09:47:37Z</time></trkpt>
<trkpt lat="42.264210" lon="3.259942"><ele>224.7</ele><time>2011-02-17T09:47:42Z</time></trkpt>
<trkpt lat="42.264225" lon="3.259947"><ele>224.7</ele><time>2011-02-17T09:47:47Z</time></trkpt>
<trkpt lat="42.264233" lon="3.259930"><ele>224.8</ele><time>2011-02-17T09:47:52Z</time></trkpt>
<trkpt lat="42.264267" lon="3.259860"><ele>224.6</ele><time>2011-02-17T09:47:57Z</time></trkpt>
<trkpt lat="42.264397" lon="3.259768"><ele>224.5</ele><time>2011-02-17T09:48:02Z</time></trkpt>
<trkpt lat="42.264560" lon="3.259665"><ele>224.2</ele><time>2011-02-17T09:48:07Z</time></trkpt>
<trkpt lat="42.264740" lon="3.259583"><ele>224</ele><time>2011-02-17T09:48:12Z</time></trkpt>
<trkpt lat="42.264888" lon="3.259405"><ele>223.5</ele><time>2011-02-17T09:48:17Z</time></trkpt>
<trkpt lat="42.265022" lon="3.259168"><ele>223.1</ele><time>2011-02-17T09:48:22Z</time></trkpt>
<trkpt lat="42.265140" lon="3.258903"><ele>223.1</ele><time>2011-02-17T09:48:27Z</time></trkpt>
<trkpt lat="42.265255" lon="3.258640"><ele>223</ele><time>2011-02-17T09:48:32Z</time></trkpt>
<trkpt lat="42.265343" lon="3.258345"><ele>222.7</ele><time>2011-02-17T09:48:37Z</time></trkpt>
<trkpt lat="42.265343" lon="3.258020"><ele>222.8</ele><time>2011-02-17T09:48:42Z</time></trkpt>
<trkpt lat="42.265338" lon="3.257695"><ele>222.7</ele><time>2011-02-17T09:48:47Z</time></trkpt>
<trkpt lat="42.265353" lon="3.257377"><ele>222.7</ele><time>2011-02-17T09:48:52Z</time></trkpt>
<trkpt lat="42.265388" lon="3.257075"><ele>222.9</ele><time>2011-02-17T09:48:57Z</time></trkpt>
<trkpt lat="42.265438" lon="3.256782"><ele>222.9</ele><time>2011-02-17T09:49:02Z</time></trkpt>
<trkpt lat="42.265522" lon="3.256495"><ele>223.1</ele><time>2011-02-17T09:49:07Z</time></trkpt>
<trkpt lat="42.265602" lon="3.256202"><ele>223.2</ele><time>2011-02-17T09:49:12Z</time></trkpt>
<trkpt lat="42.265682" lon="3.255903"><ele>223.5</ele><time>2011-02-17T09:49:17Z</time></trkpt>
<trkpt lat="42.265778" lon="3.255607"><ele>223.6</ele><time>2011-02-17T09:49:22Z</time></trkpt>
<trkpt lat="42.265950" lon="3.255380"><ele>223.2</ele><time>2011-02-17T09:49:27Z</time></trkpt>
<trkpt lat="42.266197" lon="3.255302"><ele>222.4</ele><time>2011-02-17T09:49:32Z</time></trkpt>
<trkpt lat="42.266448" lon="3.255192"><ele>221.7</ele><time>2011-02-17T09:49:37Z</time></trkpt>
<trkpt lat="42.266708" lon="3.255120"><ele>221.2</ele><time>2011-02-17T09:49:42Z</time></trkpt>
<trkpt lat="42.266975" lon="3.255127"><ele>220.6</ele><time>2011-02-17T09:49:47Z</time></trkpt>
<trkpt lat="42.267162" lon="3.254893"><ele>219.6</ele><time>2011-02-17T09:49:52Z</time></trkpt>
<trkpt lat="42.267167" lon="3.254518"><ele>218.8</ele><time>2011-02-17T09:49:57Z</time></trkpt>
<trkpt lat="42.267297" lon="3.254195"><ele>218.4</ele><time>2011-02-17T09:50:02Z</time></trkpt>
<trkpt lat="42.267540" lon="3.253995"><ele>217.6</ele><time>2011-02-17T09:50:07Z</time></trkpt>
<trkpt lat="42.267830" lon="3.253900"><ele>217.1</ele><time>2011-02-17T09:50:12Z</time></trkpt>
<trkpt lat="42.268040" lon="3.253857"><ele>216.5</ele><time>2011-02-17T09:50:17Z</time></trkpt>
<trkpt lat="42.268177" lon="3.253815"><ele>215.9</ele><time>2011-02-17T09:50:22Z</time></trkpt>
<trkpt lat="42.268182" lon="3.253595"><ele>215.8</ele><time>2011-02-17T09:50:27Z</time></trkpt>
<trkpt lat="42.268013" lon="3.253312"><ele>214.7</ele><time>2011-02-17T09:50:32Z</time></trkpt>
<trkpt lat="42.267838" lon="3.253008"><ele>213.5</ele><time>2011-02-17T09:50:37Z</time></trkpt>
<trkpt lat="42.267818" lon="3.252637"><ele>211.3</ele><time>2011-02-17T09:50:42Z</time></trkpt>
<trkpt lat="42.267928" lon="3.252235"><ele>209</ele><time>2011-02-17T09:50:47Z</time></trkpt>
<trkpt lat="42.267982" lon="3.251795"><ele>206.6</ele><time>2011-02-17T09:50:52Z</time></trkpt>
<trkpt lat="42.267833" lon="3.251375"><ele>204.3</ele><time>2011-02-17T09:50:57Z</time></trkpt>
<trkpt lat="42.267608" lon="3.251008"><ele>202.3</ele><time>2011-02-17T09:51:02Z</time></trkpt>
<trkpt lat="42.267360" lon="3.250640"><ele>199.6</ele><time>2011-02-17T09:51:07Z</time></trkpt>
<trkpt lat="42.267188" lon="3.250257"><ele>197.1</ele><time>2011-02-17T09:51:12Z</time></trkpt>
<trkpt lat="42.267277" lon="3.249810"><ele>194.9</ele><time>2011-02-17T09:51:17Z</time></trkpt>
<trkpt lat="42.267460" lon="3.249413"><ele>192.8</ele><time>2011-02-17T09:51:22Z</time></trkpt>
<trkpt lat="42.267612" lon="3.249232"><ele>191.8</ele><time>2011-02-17T09:51:27Z</time></trkpt>
<trkpt lat="42.267623" lon="3.249208"><ele>191.5</ele><time>2011-02-17T09:51:32Z</time></trkpt>
<trkpt lat="42.267623" lon="3.249212"><ele>191.5</ele><time>2011-02-17T09:51:37Z</time></trkpt>
<trkpt lat="42.267623" lon="3.249223"><ele>191.9</ele><time>2011-02-17T09:51:42Z</time></trkpt>
<trkpt lat="42.267623" lon="3.249223"><ele>192.2</ele><time>2011-02-17T09:51:47Z</time></trkpt>
<trkpt lat="42.267635" lon="3.249215"><ele>192.2</ele><time>2011-02-17T09:51:52Z</time></trkpt>
<trkpt lat="42.267662" lon="3.249193"><ele>192.2</ele><time>2011-02-17T09:51:57Z</time></trkpt>
<trkpt lat="42.267682" lon="3.249215"><ele>191.7</ele><time>2011-02-17T09:52:02Z</time></trkpt>
<trkpt lat="42.267682" lon="3.249215"><ele>191.6</ele><time>2011-02-17T09:52:07Z</time></trkpt>
<trkpt lat="42.267685" lon="3.249217"><ele>191.6</ele><time>2011-02-17T09:52:12Z</time></trkpt>
<trkpt lat="42.267685" lon="3.249220"><ele>191.5</ele><time>2011-02-17T09:52:17Z</time></trkpt>
<trkpt lat="42.267682" lon="3.249220"><ele>191.3</ele><time>2011-02-17T09:52:22Z</time></trkpt>
<trkpt lat="42.267682" lon="3.249220"><ele>191.1</ele><time>2011-02-17T09:52:27Z</time></trkpt>
<trkpt lat="42.267685" lon="3.249222"><ele>190.5</ele><time>2011-02-17T09:52:32Z</time></trkpt>
<trkpt lat="42.267688" lon="3.249222"><ele>190.1</ele><time>2011-02-17T09:52:37Z</time></trkpt>
<trkpt lat="42.267685" lon="3.249223"><ele>190.1</ele><time>2011-02-17T09:52:42Z</time></trkpt>
<trkpt lat="42.267693" lon="3.249218"><ele>189.5</ele><time>2011-02-17T09:52:47Z</time></trkpt>
<trkpt lat="42.267682" lon="3.249210"><ele>189.1</ele><time>2011-02-17T09:52:52Z</time></trkpt>
<trkpt lat="42.267662" lon="3.249213"><ele>188.9</ele><time>2011-02-17T09:52:57Z</time></trkpt>
<trkpt lat="42.267638" lon="3.249232"><ele>189.7</ele><time>2011-02-17T09:53:02Z</time></trkpt>
<trkpt lat="42.267638" lon="3.249232"><ele>189.6</ele><time>2011-02-17T09:53:07Z</time></trkpt>
<trkpt lat="42.267635" lon="3.249232"><ele>189.4</ele><time>2011-02-17T09:53:12Z</time></trkpt>
<trkpt lat="42.267635" lon="3.249233"><ele>189.2</ele><time>2011-02-17T09:53:17Z</time></trkpt>
<trkpt lat="42.267647" lon="3.249232"><ele>189</ele><time>2011-02-17T09:53:22Z</time></trkpt>
<trkpt lat="42.267632" lon="3.249247"><ele>189.1</ele><time>2011-02-17T09:53:27Z</time></trkpt>
<trkpt lat="42.267628" lon="3.249243"><ele>188.9</ele><time>2011-02-17T09:53:32Z</time></trkpt>
<trkpt lat="42.267628" lon="3.249248"><ele>189.2</ele><time>2011-02-17T09:53:37Z</time></trkpt>
<trkpt lat="42.267623" lon="3.249255"><ele>189.1</ele><time>2011-02-17T09:53:42Z</time></trkpt>
<trkpt lat="42.267623" lon="3.249257"><ele>189.1</ele><time>2011-02-17T09:53:47Z</time></trkpt>
<trkpt lat="42.267628" lon="3.249255"><ele>189.3</ele><time>2011-02-17T09:53:52Z</time></trkpt>
<trkpt lat="42.267632" lon="3.249242"><ele>189.6</ele><time>2011-02-17T09:53:57Z</time></trkpt>
<trkpt lat="42.267602" lon="3.249140"><ele>189.5</ele><time>2011-02-17T09:54:02Z</time></trkpt>
<trkpt lat="42.267478" lon="3.249020"><ele>189.9</ele><time>2011-02-17T09:54:07Z</time></trkpt>
<trkpt lat="42.267250" lon="3.249063"><ele>188.8</ele><time>2011-02-17T09:54:12Z</time></trkpt>
<trkpt lat="42.266972" lon="3.249152"><ele>187.6</ele><time>2011-02-17T09:54:17Z</time></trkpt>
<trkpt lat="42.266685" lon="3.249230"><ele>185.9</ele><time>2011-02-17T09:54:22Z</time></trkpt>
<trkpt lat="42.266357" lon="3.249225"><ele>183.7</ele><time>2011-02-17T09:54:27Z</time></trkpt>
<trkpt lat="42.266007" lon="3.249297"><ele>181.3</ele><time>2011-02-17T09:54:32Z</time></trkpt>
<trkpt lat="42.265652" lon="3.249428"><ele>179.2</ele><time>2011-02-17T09:54:37Z</time></trkpt>
<trkpt lat="42.265308" lon="3.249510"><ele>177</ele><time>2011-02-17T09:54:42Z</time></trkpt>
<trkpt lat="42.264988" lon="3.249307"><ele>174.6</ele><time>2011-02-17T09:54:47Z</time></trkpt>
<trkpt lat="42.264702" lon="3.248945"><ele>171.2</ele><time>2011-02-17T09:54:52Z</time></trkpt>
<trkpt lat="42.264415" lon="3.248590"><ele>167.7</ele><time>2011-02-17T09:54:57Z</time></trkpt>
<trkpt lat="42.264142" lon="3.248283"><ele>164.2</ele><time>2011-02-17T09:55:02Z</time></trkpt>
<trkpt lat="42.264145" lon="3.247843"><ele>161.4</ele><time>2011-02-17T09:55:07Z</time></trkpt>
<trkpt lat="42.264042" lon="3.247453"><ele>158.5</ele><time>2011-02-17T09:55:12Z</time></trkpt>
<trkpt lat="42.263707" lon="3.247373"><ele>155.7</ele><time>2011-02-17T09:55:17Z</time></trkpt>
<trkpt lat="42.263355" lon="3.247213"><ele>152.6</ele><time>2011-02-17T09:55:22Z</time></trkpt>
<trkpt lat="42.263050" lon="3.246995"><ele>149.7</ele><time>2011-02-17T09:55:27Z</time></trkpt>
<trkpt lat="42.262913" lon="3.246643"><ele>147.7</ele><time>2011-02-17T09:55:32Z</time></trkpt>
<trkpt lat="42.262978" lon="3.246180"><ele>145.7</ele><time>2011-02-17T09:55:37Z</time></trkpt>
<trkpt lat="42.262798" lon="3.245742"><ele>142.1</ele><time>2011-02-17T09:55:42Z</time></trkpt>
<trkpt lat="42.262432" lon="3.245512"><ele>139</ele><time>2011-02-17T09:55:47Z</time></trkpt>
<trkpt lat="42.262130" lon="3.245233"><ele>135.7</ele><time>2011-02-17T09:55:52Z</time></trkpt>
<trkpt lat="42.262040" lon="3.244757"><ele>132.6</ele><time>2011-02-17T09:55:57Z</time></trkpt>
<trkpt lat="42.262272" lon="3.244335"><ele>129.6</ele><time>2011-02-17T09:56:02Z</time></trkpt>
<trkpt lat="42.262565" lon="3.243987"><ele>127.4</ele><time>2011-02-17T09:56:07Z</time></trkpt>
<trkpt lat="42.262672" lon="3.243760"><ele>124.5</ele><time>2011-02-17T09:56:12Z</time></trkpt>
<trkpt lat="42.262458" lon="3.243773"><ele>122.3</ele><time>2011-02-17T09:56:17Z</time></trkpt>
<trkpt lat="42.262192" lon="3.243985"><ele>119.2</ele><time>2011-02-17T09:56:22Z</time></trkpt>
<trkpt lat="42.261857" lon="3.244148"><ele>115.2</ele><time>2011-02-17T09:56:27Z</time></trkpt>
<trkpt lat="42.261623" lon="3.244543"><ele>111.3</ele><time>2011-02-17T09:56:32Z</time></trkpt>
<trkpt lat="42.261452" lon="3.244990"><ele>107.2</ele><time>2011-02-17T09:56:37Z</time></trkpt>
<trkpt lat="42.261292" lon="3.245453"><ele>103</ele><time>2011-02-17T09:56:42Z</time></trkpt>
<trkpt lat="42.261262" lon="3.245907"><ele>100</ele><time>2011-02-17T09:56:47Z</time></trkpt>
<trkpt lat="42.261547" lon="3.246238"><ele>96.7</ele><time>2011-02-17T09:56:52Z</time></trkpt>
<trkpt lat="42.261700" lon="3.246615"><ele>93.7</ele><time>2011-02-17T09:56:57Z</time></trkpt>
<trkpt lat="42.261688" lon="3.247103"><ele>90.3</ele><time>2011-02-17T09:57:02Z</time></trkpt>
<trkpt lat="42.261688" lon="3.247635"><ele>86.4</ele><time>2011-02-17T09:57:07Z</time></trkpt>
<trkpt lat="42.261857" lon="3.248138"><ele>82.5</ele><time>2011-02-17T09:57:12Z</time></trkpt>
<trkpt lat="42.261913" lon="3.248515"><ele>79.8</ele><time>2011-02-17T09:57:17Z</time></trkpt>
<trkpt lat="42.261653" lon="3.248647"><ele>77.6</ele><time>2011-02-17T09:57:22Z</time></trkpt>
<trkpt lat="42.261330" lon="3.248720"><ele>76.2</ele><time>2011-02-17T09:57:27Z</time></trkpt>
<trkpt lat="42.260972" lon="3.248852"><ele>73</ele><time>2011-02-17T09:57:32Z</time></trkpt>
<trkpt lat="42.260620" lon="3.249112"><ele>70</ele><time>2011-02-17T09:57:37Z</time></trkpt>
<trkpt lat="42.260288" lon="3.249238"><ele>67.7</ele><time>2011-02-17T09:57:42Z</time></trkpt>
<trkpt lat="42.260105" lon="3.249382"><ele>66</ele><time>2011-02-17T09:57:47Z</time></trkpt>
<trkpt lat="42.260178" lon="3.249137"><ele>64.7</ele><time>2011-02-17T09:57:52Z</time></trkpt>
<trkpt lat="42.260445" lon="3.248938"><ele>62.3</ele><time>2011-02-17T09:57:57Z</time></trkpt>
<trkpt lat="42.260747" lon="3.248673"><ele>60.3</ele><time>2011-02-17T09:58:02Z</time></trkpt>
<trkpt lat="42.261043" lon="3.248405"><ele>58.1</ele><time>2011-02-17T09:58:07Z</time></trkpt>
<trkpt lat="42.261245" lon="3.248123"><ele>55.9</ele><time>2011-02-17T09:58:12Z</time></trkpt>
<trkpt lat="42.261108" lon="3.247752"><ele>53.8</ele><time>2011-02-17T09:58:17Z</time></trkpt>
<trkpt lat="42.260940" lon="3.247323"><ele>51.7</ele><time>2011-02-17T09:58:22Z</time></trkpt>
<trkpt lat="42.260842" lon="3.246985"><ele>50</ele><time>2011-02-17T09:58:27Z</time></trkpt>
<trkpt lat="42.260735" lon="3.246883"><ele>48.5</ele><time>2011-02-17T09:58:32Z</time></trkpt>
<trkpt lat="42.260528" lon="3.246800"><ele>46.2</ele><time>2011-02-17T09:58:37Z</time></trkpt>
<trkpt lat="42.260333" lon="3.246693"><ele>44.4</ele><time>2011-02-17T09:58:42Z</time></trkpt>
<trkpt lat="42.260315" lon="3.246695"><ele>43.3</ele><time>2011-02-17T09:58:47Z</time></trkpt>
<trkpt lat="42.260318" lon="3.246695"><ele>43</ele><time>2011-02-17T09:58:52Z</time></trkpt>
<trkpt lat="42.260318" lon="3.246693"><ele>43</ele><time>2011-02-17T09:58:57Z</time></trkpt>
<trkpt lat="42.260318" lon="3.246700"><ele>43</ele><time>2011-02-17T09:59:02Z</time></trkpt>
<trkpt lat="42.260315" lon="3.246702"><ele>43.2</ele><time>2011-02-17T09:59:07Z</time></trkpt>
<trkpt lat="42.260318" lon="3.246707"><ele>43.7</ele><time>2011-02-17T09:59:12Z</time></trkpt>
<trkpt lat="42.260323" lon="3.246708"><ele>43.7</ele><time>2011-02-17T09:59:17Z</time></trkpt>
<trkpt lat="42.260315" lon="3.246707"><ele>43.7</ele><time>2011-02-17T09:59:22Z</time></trkpt>
<trkpt lat="42.260312" lon="3.246705"><ele>43.6</ele><time>2011-02-17T09:59:27Z</time></trkpt>
<trkpt lat="42.260297" lon="3.246688"><ele>43.2</ele><time>2011-02-17T09:59:32Z</time></trkpt>
<trkpt lat="42.260277" lon="3.246692"><ele>43.8</ele><time>2011-02-17T09:59:37Z</time></trkpt>
<trkpt lat="42.260212" lon="3.246668"><ele>42.2</ele><time>2011-02-17T09:59:42Z</time></trkpt>
<trkpt lat="42.260090" lon="3.246623"><ele>41.2</ele><time>2011-02-17T09:59:47Z</time></trkpt>
<trkpt lat="42.259937" lon="3.246400"><ele>38.9</ele><time>2011-02-17T09:59:52Z</time></trkpt>
<trkpt lat="42.259850" lon="3.246463"><ele>37.9</ele><time>2011-02-17T09:59:57Z</time></trkpt>
<trkpt lat="42.259927" lon="3.246760"><ele>35.6</ele><time>2011-02-17T10:00:02Z</time></trkpt>
<trkpt lat="42.260128" lon="3.246985"><ele>32</ele><time>2011-02-17T10:00:07Z</time></trkpt>
<trkpt lat="42.260268" lon="3.247222"><ele>28.5</ele><time>2011-02-17T10:00:12Z</time></trkpt>
<trkpt lat="42.260182" lon="3.247462"><ele>27.1</ele><time>2011-02-17T10:00:17Z</time></trkpt>
<trkpt lat="42.260135" lon="3.247540"><ele>26.8</ele><time>2011-02-17T10:00:22Z</time></trkpt>
<trkpt lat="42.260140" lon="3.247532"><ele>26.2</ele><time>2011-02-17T10:00:27Z</time></trkpt>
<trkpt lat="42.260140" lon="3.247532"><ele>26.4</ele><time>2011-02-17T10:00:32Z</time></trkpt>
<trkpt lat="42.260125" lon="3.247558"><ele>26.9</ele><time>2011-02-17T10:00:37Z</time></trkpt>
<trkpt lat="42.260040" lon="3.247718"><ele>26</ele><time>2011-02-17T10:00:42Z</time></trkpt>
<trkpt lat="42.259877" lon="3.247882"><ele>25.7</ele><time>2011-02-17T10:00:47Z</time></trkpt>
<trkpt lat="42.259700" lon="3.248045"><ele>25.2</ele><time>2011-02-17T10:00:52Z</time></trkpt>
<trkpt lat="42.259502" lon="3.248238"><ele>24.6</ele><time>2011-02-17T10:00:57Z</time></trkpt>
<trkpt lat="42.259300" lon="3.248437"><ele>23</ele><time>2011-02-17T10:01:02Z</time></trkpt>
<trkpt lat="42.258987" lon="3.248403"><ele>21.3</ele><time>2011-02-17T10:01:07Z</time></trkpt>
<trkpt lat="42.258690" lon="3.248587"><ele>19.6</ele><time>2011-02-17T10:01:12Z</time></trkpt>
<trkpt lat="42.258492" lon="3.248750"><ele>19.8</ele><time>2011-02-17T10:01:17Z</time></trkpt>
<trkpt lat="42.258335" lon="3.248947"><ele>18.7</ele><time>2011-02-17T10:01:22Z</time></trkpt>
<trkpt lat="42.258210" lon="3.249293"><ele>16.4</ele><time>2011-02-17T10:01:27Z</time></trkpt>
<trkpt lat="42.258087" lon="3.249675"><ele>15</ele><time>2011-02-17T10:01:32Z</time></trkpt>
<trkpt lat="42.257980" lon="3.250053"><ele>13.6</ele><time>2011-02-17T10:01:37Z</time></trkpt>
<trkpt lat="42.257870" lon="3.250415"><ele>12.6</ele><time>2011-02-17T10:01:42Z</time></trkpt>
<trkpt lat="42.257717" lon="3.250728"><ele>12</ele><time>2011-02-17T10:01:47Z</time></trkpt>
<trkpt lat="42.257518" lon="3.250963"><ele>12.2</ele><time>2011-02-17T10:01:52Z</time></trkpt>
<trkpt lat="42.257278" lon="3.251170"><ele>11.9</ele><time>2011-02-17T10:01:57Z</time></trkpt>
<trkpt lat="42.256997" lon="3.251293"><ele>11.6</ele><time>2011-02-17T10:02:02Z</time></trkpt>
<trkpt lat="42.256692" lon="3.251397"><ele>10.7</ele><time>2011-02-17T10:02:07Z</time></trkpt>
<trkpt lat="42.256497" lon="3.251483"><ele>10.7</ele><time>2011-02-17T10:02:12Z</time></trkpt>
<trkpt lat="42.256337" lon="3.251573"><ele>10.5</ele><time>2011-02-17T10:02:17Z</time></trkpt>
<trkpt lat="42.256150" lon="3.251788"><ele>9.1</ele><time>2011-02-17T10:02:22Z</time></trkpt>
<trkpt lat="42.255993" lon="3.252105"><ele>8.1</ele><time>2011-02-17T10:02:27Z</time></trkpt>
<trkpt lat="42.255993" lon="3.252458"><ele>8.3</ele><time>2011-02-17T10:02:32Z</time></trkpt>
<trkpt lat="42.256015" lon="3.252840"><ele>7.7</ele><time>2011-02-17T10:02:37Z</time></trkpt>
<trkpt lat="42.256000" lon="3.253247"><ele>7.1</ele><time>2011-02-17T10:02:42Z</time></trkpt>
<trkpt lat="42.255920" lon="3.253642"><ele>6.3</ele><time>2011-02-17T10:02:47Z</time></trkpt>
<trkpt lat="42.255807" lon="3.254018"><ele>5.8</ele><time>2011-02-17T10:02:52Z</time></trkpt>
<trkpt lat="42.255677" lon="3.254352"><ele>5.6</ele><time>2011-02-17T10:02:57Z</time></trkpt>
<trkpt lat="42.255428" lon="3.254475"><ele>5.7</ele><time>2011-02-17T10:03:02Z</time></trkpt>
<trkpt lat="42.255142" lon="3.254585"><ele>5</ele><time>2011-02-17T10:03:07Z</time></trkpt>
<trkpt lat="42.254842" lon="3.254620"><ele>4.1</ele><time>2011-02-17T10:03:12Z</time></trkpt>
<trkpt lat="42.254535" lon="3.254612"><ele>3.5</ele><time>2011-02-17T10:03:17Z</time></trkpt>
<trkpt lat="42.254238" lon="3.254508"><ele>3.2</ele><time>2011-02-17T10:03:22Z</time></trkpt>
<trkpt lat="42.253948" lon="3.254360"><ele>3</ele><time>2011-02-17T10:03:27Z</time></trkpt>
<trkpt lat="42.253697" lon="3.254228"><ele>3.5</ele><time>2011-02-17T10:03:32Z</time></trkpt>
<trkpt lat="42.253543" lon="3.254083"><ele>4.5</ele><time>2011-02-17T10:03:37Z</time></trkpt>
<trkpt lat="42.253418" lon="3.254060"><ele>5.3</ele><time>2011-02-17T10:03:42Z</time></trkpt>
<trkpt lat="42.253312" lon="3.254018"><ele>5.7</ele><time>2011-02-17T10:03:47Z</time></trkpt>
<trkpt lat="42.253232" lon="3.253932"><ele>6.3</ele><time>2011-02-17T10:03:52Z</time></trkpt>
<trkpt lat="42.253147" lon="3.253832"><ele>6.8</ele><time>2011-02-17T10:03:57Z</time></trkpt>
<trkpt lat="42.253075" lon="3.253692"><ele>6.7</ele><time>2011-02-17T10:04:02Z</time></trkpt>
<trkpt lat="42.252998" lon="3.253533"><ele>6.7</ele><time>2011-02-17T10:04:07Z</time></trkpt>
<trkpt lat="42.252888" lon="3.253422"><ele>6.7</ele><time>2011-02-17T10:04:12Z</time></trkpt>
<trkpt lat="42.252765" lon="3.253372"><ele>7.1</ele><time>2011-02-17T10:04:17Z</time></trkpt>
<trkpt lat="42.252628" lon="3.253342"><ele>7.1</ele><time>2011-02-17T10:04:22Z</time></trkpt>
<trkpt lat="42.252548" lon="3.253352"><ele>6.3</ele><time>2011-02-17T10:04:27Z</time></trkpt>
<trkpt lat="42.252563" lon="3.253393"><ele>5.5</ele><time>2011-02-17T10:04:32Z</time></trkpt>
<trkpt lat="42.252617" lon="3.253402"><ele>5.4</ele><time>2011-02-17T10:04:37Z</time></trkpt>
<trkpt lat="42.252690" lon="3.253397"><ele>5.8</ele><time>2011-02-17T10:04:42Z</time></trkpt>
<trkpt lat="42.252770" lon="3.253415"><ele>6.1</ele><time>2011-02-17T10:04:47Z</time></trkpt>
<trkpt lat="42.252842" lon="3.253440"><ele>6</ele><time>2011-02-17T10:04:52Z</time></trkpt>
<trkpt lat="42.252922" lon="3.253438"><ele>5.9</ele><time>2011-02-17T10:04:57Z</time></trkpt>
<trkpt lat="42.253010" lon="3.253473"><ele>5.8</ele><time>2011-02-17T10:05:02Z</time></trkpt>
<trkpt lat="42.253108" lon="3.253522"><ele>5.7</ele><time>2011-02-17T10:05:07Z</time></trkpt>
<trkpt lat="42.253193" lon="3.253590"><ele>6.2</ele><time>2011-02-17T10:05:12Z</time></trkpt>
<trkpt lat="42.253270" lon="3.253672"><ele>7.4</ele><time>2011-02-17T10:05:17Z</time></trkpt>
<trkpt lat="42.253338" lon="3.253768"><ele>7.3</ele><time>2011-02-17T10:05:22Z</time></trkpt>
<trkpt lat="42.253418" lon="3.253853"><ele>6.5</ele><time>2011-02-17T10:05:27Z</time></trkpt>
<trkpt lat="42.253457" lon="3.253963"><ele>5.7</ele><time>2011-02-17T10:05:32Z</time></trkpt>
<trkpt lat="42.253582" lon="3.254063"><ele>4.8</ele><time>2011-02-17T10:05:37Z</time></trkpt>
<trkpt lat="42.253628" lon="3.254213"><ele>4.3</ele><time>2011-02-17T10:05:42Z</time></trkpt>
<trkpt lat="42.253548" lon="3.254302"><ele>4.4</ele><time>2011-02-17T10:05:47Z</time></trkpt>
<trkpt lat="42.253498" lon="3.254378"><ele>4.3</ele><time>2011-02-17T10:05:52Z</time></trkpt>
<trkpt lat="42.253483" lon="3.254468"><ele>4.2</ele><time>2011-02-17T10:05:57Z</time></trkpt>
<trkpt lat="42.253552" lon="3.254478"><ele>4.3</ele><time>2011-02-17T10:06:02Z</time></trkpt>
<trkpt lat="42.253628" lon="3.254373"><ele>4.3</ele><time>2011-02-17T10:06:07Z</time></trkpt>
<trkpt lat="42.253708" lon="3.254283"><ele>4.6</ele><time>2011-02-17T10:06:12Z</time></trkpt>
<trkpt lat="42.253848" lon="3.254325"><ele>4.4</ele><time>2011-02-17T10:06:17Z</time></trkpt>
<trkpt lat="42.253987" lon="3.254392"><ele>4.6</ele><time>2011-02-17T10:06:22Z</time></trkpt>
<trkpt lat="42.254132" lon="3.254452"><ele>4.5</ele><time>2011-02-17T10:06:27Z</time></trkpt>
<trkpt lat="42.254268" lon="3.254523"><ele>4.5</ele><time>2011-02-17T10:06:32Z</time></trkpt>
<trkpt lat="42.254422" lon="3.254590"><ele>4.6</ele><time>2011-02-17T10:06:37Z</time></trkpt>
<trkpt lat="42.254578" lon="3.254627"><ele>4.8</ele><time>2011-02-17T10:06:42Z</time></trkpt>
<trkpt lat="42.254738" lon="3.254647"><ele>5.1</ele><time>2011-02-17T10:06:47Z</time></trkpt>
<trkpt lat="42.254905" lon="3.254625"><ele>5.2</ele><time>2011-02-17T10:06:52Z</time></trkpt>
<trkpt lat="42.255070" lon="3.254598"><ele>5.5</ele><time>2011-02-17T10:06:57Z</time></trkpt>
<trkpt lat="42.255222" lon="3.254568"><ele>6</ele><time>2011-02-17T10:07:02Z</time></trkpt>
<trkpt lat="42.255383" lon="3.254515"><ele>6.4</ele><time>2011-02-17T10:07:07Z</time></trkpt>
<trkpt lat="42.255538" lon="3.254443"><ele>7</ele><time>2011-02-17T10:07:12Z</time></trkpt>
<trkpt lat="42.255695" lon="3.254358"><ele>7.6</ele><time>2011-02-17T10:07:17Z</time></trkpt>
<trkpt lat="42.255798" lon="3.254178"><ele>7.8</ele><time>2011-02-17T10:07:22Z</time></trkpt>
<trkpt lat="42.255843" lon="3.253968"><ele>7.8</ele><time>2011-02-17T10:07:27Z</time></trkpt>
<trkpt lat="42.255920" lon="3.253767"><ele>8.2</ele><time>2011-02-17T10:07:32Z</time></trkpt>
<trkpt lat="42.255973" lon="3.253545"><ele>8</ele><time>2011-02-17T10:07:37Z</time></trkpt>
<trkpt lat="42.256015" lon="3.253328"><ele>8.4</ele><time>2011-02-17T10:07:42Z</time></trkpt>
<trkpt lat="42.256038" lon="3.253100"><ele>8.5</ele><time>2011-02-17T10:07:47Z</time></trkpt>
<trkpt lat="42.256050" lon="3.252882"><ele>8.9</ele><time>2011-02-17T10:07:52Z</time></trkpt>
<trkpt lat="42.256047" lon="3.252657"><ele>9.1</ele><time>2011-02-17T10:07:57Z</time></trkpt>
<trkpt lat="42.256035" lon="3.252433"><ele>9.2</ele><time>2011-02-17T10:08:02Z</time></trkpt>
<trkpt lat="42.256023" lon="3.252205"><ele>9.2</ele><time>2011-02-17T10:08:07Z</time></trkpt>
<trkpt lat="42.256077" lon="3.251940"><ele>8.3</ele><time>2011-02-17T10:08:12Z</time></trkpt>
<trkpt lat="42.256160" lon="3.251763"><ele>9.5</ele><time>2011-02-17T10:08:17Z</time></trkpt>
<trkpt lat="42.256290" lon="3.251677"><ele>10.5</ele><time>2011-02-17T10:08:22Z</time></trkpt>
<trkpt lat="42.256408" lon="3.251548"><ele>11.3</ele><time>2011-02-17T10:08:27Z</time></trkpt>
<trkpt lat="42.256535" lon="3.251477"><ele>11.8</ele><time>2011-02-17T10:08:32Z</time></trkpt>
<trkpt lat="42.256675" lon="3.251415"><ele>11.7</ele><time>2011-02-17T10:08:37Z</time></trkpt>
<trkpt lat="42.256817" lon="3.251357"><ele>12.6</ele><time>2011-02-17T10:08:42Z</time></trkpt>
<trkpt lat="42.256958" lon="3.251302"><ele>13.1</ele><time>2011-02-17T10:08:47Z</time></trkpt>
<trkpt lat="42.257107" lon="3.251267"><ele>13.9</ele><time>2011-02-17T10:08:52Z</time></trkpt>
<trkpt lat="42.257248" lon="3.251210"><ele>14.7</ele><time>2011-02-17T10:08:57Z</time></trkpt>
<trkpt lat="42.257397" lon="3.251115"><ele>14.9</ele><time>2011-02-17T10:09:02Z</time></trkpt>
<trkpt lat="42.257545" lon="3.250983"><ele>15.2</ele><time>2011-02-17T10:09:07Z</time></trkpt>
<trkpt lat="42.257702" lon="3.250852"><ele>15.3</ele><time>2011-02-17T10:09:12Z</time></trkpt>
<trkpt lat="42.257813" lon="3.250638"><ele>15.1</ele><time>2011-02-17T10:09:17Z</time></trkpt>
<trkpt lat="42.257908" lon="3.250437"><ele>15.3</ele><time>2011-02-17T10:09:22Z</time></trkpt>
<trkpt lat="42.257973" lon="3.250235"><ele>16.1</ele><time>2011-02-17T10:09:27Z</time></trkpt>
<trkpt lat="42.258033" lon="3.250015"><ele>16.2</ele><time>2011-02-17T10:09:32Z</time></trkpt>
<trkpt lat="42.258095" lon="3.249812"><ele>16.7</ele><time>2011-02-17T10:09:37Z</time></trkpt>
<trkpt lat="42.258137" lon="3.249612"><ele>17.3</ele><time>2011-02-17T10:09:42Z</time></trkpt>
<trkpt lat="42.258202" lon="3.249405"><ele>17.5</ele><time>2011-02-17T10:09:47Z</time></trkpt>
<trkpt lat="42.258270" lon="3.249190"><ele>18.1</ele><time>2011-02-17T10:09:52Z</time></trkpt>
<trkpt lat="42.258335" lon="3.249005"><ele>19</ele><time>2011-02-17T10:09:57Z</time></trkpt>
<trkpt lat="42.258418" lon="3.248848"><ele>19.9</ele><time>2011-02-17T10:10:02Z</time></trkpt>
<trkpt lat="42.258530" lon="3.248733"><ele>20.8</ele><time>2011-02-17T10:10:07Z</time></trkpt>
<trkpt lat="42.258678" lon="3.248610"><ele>20.8</ele><time>2011-02-17T10:10:12Z</time></trkpt>
<trkpt lat="42.258847" lon="3.248503"><ele>20.6</ele><time>2011-02-17T10:10:17Z</time></trkpt>
<trkpt lat="42.258980" lon="3.248415"><ele>21.4</ele><time>2011-02-17T10:10:22Z</time></trkpt>
<trkpt lat="42.259098" lon="3.248418"><ele>22.1</ele><time>2011-02-17T10:10:27Z</time></trkpt>
<trkpt lat="42.259220" lon="3.248457"><ele>22.6</ele><time>2011-02-17T10:10:32Z</time></trkpt>
<trkpt lat="42.259342" lon="3.248453"><ele>23.3</ele><time>2011-02-17T10:10:37Z</time></trkpt>
<trkpt lat="42.259442" lon="3.248383"><ele>24.4</ele><time>2011-02-17T10:10:42Z</time></trkpt>
<trkpt lat="42.259533" lon="3.248270"><ele>24.9</ele><time>2011-02-17T10:10:47Z</time></trkpt>
<trkpt lat="42.259637" lon="3.248140"><ele>25.1</ele><time>2011-02-17T10:10:52Z</time></trkpt>
<trkpt lat="42.259743" lon="3.248038"><ele>26</ele><time>2011-02-17T10:10:57Z</time></trkpt>
<trkpt lat="42.259862" lon="3.247937"><ele>26.4</ele><time>2011-02-17T10:11:02Z</time></trkpt>
<trkpt lat="42.259990" lon="3.247820"><ele>26.6</ele><time>2011-02-17T10:11:07Z</time></trkpt>
<trkpt lat="42.260093" lon="3.247677"><ele>27.2</ele><time>2011-02-17T10:11:12Z</time></trkpt>
<trkpt lat="42.260162" lon="3.247517"><ele>27.7</ele><time>2011-02-17T10:11:17Z</time></trkpt>
<trkpt lat="42.260238" lon="3.247385"><ele>28</ele><time>2011-02-17T10:11:22Z</time></trkpt>
<trkpt lat="42.260288" lon="3.247220"><ele>28.9</ele><time>2011-02-17T10:11:27Z</time></trkpt>
<trkpt lat="42.260253" lon="3.247105"><ele>30.2</ele><time>2011-02-17T10:11:32Z</time></trkpt>
<trkpt lat="42.260205" lon="3.247023"><ele>31.6</ele><time>2011-02-17T10:11:37Z</time></trkpt>
<trkpt lat="42.260152" lon="3.246952"><ele>33.6</ele><time>2011-02-17T10:11:42Z</time></trkpt>
<trkpt lat="42.260087" lon="3.246890"><ele>34</ele><time>2011-02-17T10:11:47Z</time></trkpt>
<trkpt lat="42.260017" lon="3.246833"><ele>34.6</ele><time>2011-02-17T10:11:52Z</time></trkpt>
<trkpt lat="42.259957" lon="3.246758"><ele>35.1</ele><time>2011-02-17T10:11:57Z</time></trkpt>
<trkpt lat="42.259915" lon="3.246670"><ele>36.9</ele><time>2011-02-17T10:12:02Z</time></trkpt>
<trkpt lat="42.259880" lon="3.246570"><ele>38</ele><time>2011-02-17T10:12:07Z</time></trkpt>
<trkpt lat="42.259868" lon="3.246460"><ele>39.1</ele><time>2011-02-17T10:12:12Z</time></trkpt>
<trkpt lat="42.259868" lon="3.246323"><ele>39</ele><time>2011-02-17T10:12:17Z</time></trkpt>
<trkpt lat="42.259842" lon="3.246167"><ele>38.5</ele><time>2011-02-17T10:12:22Z</time></trkpt>
<trkpt lat="42.259800" lon="3.246012"><ele>38.3</ele><time>2011-02-17T10:12:27Z</time></trkpt>
<trkpt lat="42.259770" lon="3.245823"><ele>38.3</ele><time>2011-02-17T10:12:32Z</time></trkpt>
<trkpt lat="42.259818" lon="3.245658"><ele>39.1</ele><time>2011-02-17T10:12:37Z</time></trkpt>
<trkpt lat="42.259907" lon="3.245543"><ele>40.4</ele><time>2011-02-17T10:12:42Z</time></trkpt>
<trkpt lat="42.260007" lon="3.245425"><ele>41.1</ele><time>2011-02-17T10:12:47Z</time></trkpt>
<trkpt lat="42.260105" lon="3.245310"><ele>42.2</ele><time>2011-02-17T10:12:52Z</time></trkpt>
<trkpt lat="42.260193" lon="3.245197"><ele>43.3</ele><time>2011-02-17T10:12:57Z</time></trkpt>
<trkpt lat="42.260265" lon="3.245078"><ele>44.2</ele><time>2011-02-17T10:13:02Z</time></trkpt>
<trkpt lat="42.260327" lon="3.244953"><ele>44.9</ele><time>2011-02-17T10:13:07Z</time></trkpt>
<trkpt lat="42.260353" lon="3.244813"><ele>45.3</ele><time>2011-02-17T10:13:12Z</time></trkpt>
<trkpt lat="42.260292" lon="3.244697"><ele>45.6</ele><time>2011-02-17T10:13:17Z</time></trkpt>
<trkpt lat="42.260185" lon="3.244705"><ele>46</ele><time>2011-02-17T10:13:22Z</time></trkpt>
<trkpt lat="42.260093" lon="3.244817"><ele>46.2</ele><time>2011-02-17T10:13:27Z</time></trkpt>
<trkpt lat="42.260022" lon="3.244945"><ele>46.1</ele><time>2011-02-17T10:13:32Z</time></trkpt>
<trkpt lat="42.259948" lon="3.245080"><ele>46.2</ele><time>2011-02-17T10:13:37Z</time></trkpt>
<trkpt lat="42.259857" lon="3.245210"><ele>46</ele><time>2011-02-17T10:13:42Z</time></trkpt>
<trkpt lat="42.259765" lon="3.245313"><ele>46.5</ele><time>2011-02-17T10:13:47Z</time></trkpt>
<trkpt lat="42.259673" lon="3.245415"><ele>46.9</ele><time>2011-02-17T10:13:52Z</time></trkpt>
<trkpt lat="42.259598" lon="3.245492"><ele>47.2</ele><time>2011-02-17T10:13:57Z</time></trkpt>
<trkpt lat="42.259518" lon="3.245537"><ele>47.6</ele><time>2011-02-17T10:14:02Z</time></trkpt>
<trkpt lat="42.259403" lon="3.245567"><ele>48.1</ele><time>2011-02-17T10:14:07Z</time></trkpt>
<trkpt lat="42.259273" lon="3.245543"><ele>49</ele><time>2011-02-17T10:14:12Z</time></trkpt>
<trkpt lat="42.259143" lon="3.245490"><ele>49.7</ele><time>2011-02-17T10:14:17Z</time></trkpt>
<trkpt lat="42.259018" lon="3.245440"><ele>50.9</ele><time>2011-02-17T10:14:22Z</time></trkpt>
<trkpt lat="42.258903" lon="3.245482"><ele>51.2</ele><time>2011-02-17T10:14:27Z</time></trkpt>
<trkpt lat="42.258865" lon="3.245633"><ele>51.7</ele><time>2011-02-17T10:14:32Z</time></trkpt>
<trkpt lat="42.258915" lon="3.245787"><ele>52.2</ele><time>2011-02-17T10:14:37Z</time></trkpt>
<trkpt lat="42.258983" lon="3.245915"><ele>52.8</ele><time>2011-02-17T10:14:42Z</time></trkpt>
<trkpt lat="42.259048" lon="3.246037"><ele>53.7</ele><time>2011-02-17T10:14:47Z</time></trkpt>
<trkpt lat="42.259090" lon="3.246178"><ele>54.5</ele><time>2011-02-17T10:14:52Z</time></trkpt>
<trkpt lat="42.259113" lon="3.246328"><ele>55.2</ele><time>2011-02-17T10:14:57Z</time></trkpt>
<trkpt lat="42.259132" lon="3.246485"><ele>55.5</ele><time>2011-02-17T10:15:02Z</time></trkpt>
<trkpt lat="42.259155" lon="3.246652"><ele>56.2</ele><time>2011-02-17T10:15:07Z</time></trkpt>
<trkpt lat="42.259170" lon="3.246803"><ele>57.1</ele><time>2011-02-17T10:15:12Z</time></trkpt>
<trkpt lat="42.259182" lon="3.246960"><ele>57.9</ele><time>2011-02-17T10:15:17Z</time></trkpt>
<trkpt lat="42.259202" lon="3.247117"><ele>58.8</ele><time>2011-02-17T10:15:22Z</time></trkpt>
<trkpt lat="42.259212" lon="3.247270"><ele>59.9</ele><time>2011-02-17T10:15:27Z</time></trkpt>
<trkpt lat="42.259193" lon="3.247423"><ele>60.7</ele><time>2011-02-17T10:15:32Z</time></trkpt>
<trkpt lat="42.259128" lon="3.247550"><ele>61.6</ele><time>2011-02-17T10:15:37Z</time></trkpt>
<trkpt lat="42.259018" lon="3.247627"><ele>62.1</ele><time>2011-02-17T10:15:42Z</time></trkpt>
<trkpt lat="42.258912" lon="3.247663"><ele>63.3</ele><time>2011-02-17T10:15:47Z</time></trkpt>
<trkpt lat="42.258812" lon="3.247683"><ele>64.3</ele><time>2011-02-17T10:15:52Z</time></trkpt>
<trkpt lat="42.258708" lon="3.247692"><ele>65.2</ele><time>2011-02-17T10:15:57Z</time></trkpt>
<trkpt lat="42.258607" lon="3.247695"><ele>66.1</ele><time>2011-02-17T10:16:02Z</time></trkpt>
<trkpt lat="42.258510" lon="3.247707"><ele>67.2</ele><time>2011-02-17T10:16:07Z</time></trkpt>
<trkpt lat="42.258438" lon="3.247712"><ele>68.1</ele><time>2011-02-17T10:16:12Z</time></trkpt>
<trkpt lat="42.258355" lon="3.247730"><ele>68.8</ele><time>2011-02-17T10:16:17Z</time></trkpt>
<trkpt lat="42.258270" lon="3.247752"><ele>69</ele><time>2011-02-17T10:16:22Z</time></trkpt>
<trkpt lat="42.258190" lon="3.247802"><ele>69.7</ele><time>2011-02-17T10:16:27Z</time></trkpt>
<trkpt lat="42.258110" lon="3.247848"><ele>70.5</ele><time>2011-02-17T10:16:32Z</time></trkpt>
<trkpt lat="42.258030" lon="3.247907"><ele>71.1</ele><time>2011-02-17T10:16:37Z</time></trkpt>
<trkpt lat="42.257947" lon="3.247983"><ele>71.6</ele><time>2011-02-17T10:16:42Z</time></trkpt>
<trkpt lat="42.257862" lon="3.248085"><ele>71.9</ele><time>2011-02-17T10:16:47Z</time></trkpt>
<trkpt lat="42.257778" lon="3.248195"><ele>72.1</ele><time>2011-02-17T10:16:52Z</time></trkpt>
<trkpt lat="42.257690" lon="3.248307"><ele>72.2</ele><time>2011-02-17T10:16:57Z</time></trkpt>
<trkpt lat="42.257583" lon="3.248417"><ele>72.2</ele><time>2011-02-17T10:17:02Z</time></trkpt>
<trkpt lat="42.257473" lon="3.248565"><ele>72.1</ele><time>2011-02-17T10:17:07Z</time></trkpt>
<trkpt lat="42.257373" lon="3.248682"><ele>72.9</ele><time>2011-02-17T10:17:12Z</time></trkpt>
<trkpt lat="42.257282" lon="3.248803"><ele>73.9</ele><time>2011-02-17T10:17:17Z</time></trkpt>
<trkpt lat="42.257202" lon="3.248935"><ele>74.9</ele><time>2011-02-17T10:17:22Z</time></trkpt>
<trkpt lat="42.257110" lon="3.249058"><ele>75.9</ele><time>2011-02-17T10:17:27Z</time></trkpt>
<trkpt lat="42.257015" lon="3.249173"><ele>76.8</ele><time>2011-02-17T10:17:32Z</time></trkpt>
<trkpt lat="42.256905" lon="3.249260"><ele>77.6</ele><time>2011-02-17T10:17:37Z</time></trkpt>
<trkpt lat="42.256783" lon="3.249277"><ele>78.6</ele><time>2011-02-17T10:17:42Z</time></trkpt>
<trkpt lat="42.256665" lon="3.249228"><ele>79.3</ele><time>2011-02-17T10:17:47Z</time></trkpt>
<trkpt lat="42.256568" lon="3.249162"><ele>80.4</ele><time>2011-02-17T10:17:52Z</time></trkpt>
<trkpt lat="42.256503" lon="3.249060"><ele>81.4</ele><time>2011-02-17T10:17:57Z</time></trkpt>
<trkpt lat="42.256458" lon="3.248935"><ele>82.7</ele><time>2011-02-17T10:18:02Z</time></trkpt>
<trkpt lat="42.256423" lon="3.248805"><ele>84.2</ele><time>2011-02-17T10:18:07Z</time></trkpt>
<trkpt lat="42.256375" lon="3.248675"><ele>85.2</ele><time>2011-02-17T10:18:12Z</time></trkpt>
<trkpt lat="42.256310" lon="3.248557"><ele>85.7</ele><time>2011-02-17T10:18:17Z</time></trkpt>
<trkpt lat="42.256230" lon="3.248472"><ele>86.4</ele><time>2011-02-17T10:18:22Z</time></trkpt>
<trkpt lat="42.256127" lon="3.248472"><ele>87</ele><time>2011-02-17T10:18:27Z</time></trkpt>
<trkpt lat="42.256035" lon="3.248532"><ele>87.6</ele><time>2011-02-17T10:18:32Z</time></trkpt>
<trkpt lat="42.255947" lon="3.248608"><ele>88.3</ele><time>2011-02-17T10:18:37Z</time></trkpt>
<trkpt lat="42.255852" lon="3.248643"><ele>89</ele><time>2011-02-17T10:18:42Z</time></trkpt>
<trkpt lat="42.255745" lon="3.248672"><ele>89.4</ele><time>2011-02-17T10:18:47Z</time></trkpt>
<trkpt lat="42.255642" lon="3.248730"><ele>90</ele><time>2011-02-17T10:18:52Z</time></trkpt>
<trkpt lat="42.255558" lon="3.248805"><ele>90.8</ele><time>2011-02-17T10:18:57Z</time></trkpt>
<trkpt lat="42.255482" lon="3.248900"><ele>91.5</ele><time>2011-02-17T10:19:02Z</time></trkpt>
<trkpt lat="42.255398" lon="3.248988"><ele>92.2</ele><time>2011-02-17T10:19:07Z</time></trkpt>
<trkpt lat="42.255307" lon="3.249068"><ele>93</ele><time>2011-02-17T10:19:12Z</time></trkpt>
<trkpt lat="42.255222" lon="3.249152"><ele>93.8</ele><time>2011-02-17T10:19:17Z</time></trkpt>
<trkpt lat="42.255127" lon="3.249250"><ele>94.5</ele><time>2011-02-17T10:19:22Z</time></trkpt>
<trkpt lat="42.255035" lon="3.249310"><ele>95.4</ele><time>2011-02-17T10:19:27Z</time></trkpt>
<trkpt lat="42.254940" lon="3.249347"><ele>96.2</ele><time>2011-02-17T10:19:32Z</time></trkpt>
<trkpt lat="42.254837" lon="3.249387"><ele>97.1</ele><time>2011-02-17T10:19:37Z</time></trkpt>
<trkpt lat="42.254733" lon="3.249430"><ele>98</ele><time>2011-02-17T10:19:42Z</time></trkpt>
<trkpt lat="42.254623" lon="3.249462"><ele>98.9</ele><time>2011-02-17T10:19:47Z</time></trkpt>
<trkpt lat="42.254513" lon="3.249490"><ele>99.6</ele><time>2011-02-17T10:19:52Z</time></trkpt>
<trkpt lat="42.254395" lon="3.249495"><ele>100.2</ele><time>2011-02-17T10:19:57Z</time></trkpt>
<trkpt lat="42.254277" lon="3.249485"><ele>101</ele><time>2011-02-17T10:20:02Z</time></trkpt>
<trkpt lat="42.254177" lon="3.249428"><ele>102</ele><time>2011-02-17T10:20:07Z</time></trkpt>
<trkpt lat="42.254085" lon="3.249338"><ele>103</ele><time>2011-02-17T10:20:12Z</time></trkpt>
<trkpt lat="42.254005" lon="3.249213"><ele>103.7</ele><time>2011-02-17T10:20:17Z</time></trkpt>
<trkpt lat="42.253928" lon="3.249070"><ele>104</ele><time>2011-02-17T10:20:22Z</time></trkpt>
<trkpt lat="42.253833" lon="3.248922"><ele>103.1</ele><time>2011-02-17T10:20:27Z</time></trkpt>
<trkpt lat="42.253693" lon="3.248902"><ele>102.6</ele><time>2011-02-17T10:20:32Z</time></trkpt>
<trkpt lat="42.253640" lon="3.249043"><ele>104.3</ele><time>2011-02-17T10:20:37Z</time></trkpt>
<trkpt lat="42.253628" lon="3.249195"><ele>105.1</ele><time>2011-02-17T10:20:42Z</time></trkpt>
<trkpt lat="42.253715" lon="3.249242"><ele>105.2</ele><time>2011-02-17T10:20:47Z</time></trkpt>
<trkpt lat="42.253712" lon="3.249245"><ele>105.1</ele><time>2011-02-17T10:20:52Z</time></trkpt>
<trkpt lat="42.253715" lon="3.249247"><ele>105</ele><time>2011-02-17T10:20:57Z</time></trkpt>
<trkpt lat="42.253715" lon="3.249250"><ele>104.9</ele><time>2011-02-17T10:21:02Z</time></trkpt>
<trkpt lat="42.253715" lon="3.249252"><ele>105.1</ele><time>2011-02-17T10:21:07Z</time></trkpt>
<trkpt lat="42.253753" lon="3.249195"><ele>105.6</ele><time>2011-02-17T10:21:12Z</time></trkpt>
<trkpt lat="42.253750" lon="3.249032"><ele>105.1</ele><time>2011-02-17T10:21:17Z</time></trkpt>
<trkpt lat="42.253670" lon="3.248720"><ele>102.7</ele><time>2011-02-17T10:21:22Z</time></trkpt>
<trkpt lat="42.253472" lon="3.248442"><ele>101.1</ele><time>2011-02-17T10:21:27Z</time></trkpt>
<trkpt lat="42.253323" lon="3.248162"><ele>99.7</ele><time>2011-02-17T10:21:32Z</time></trkpt>
<trkpt lat="42.253392" lon="3.247832"><ele>98.9</ele><time>2011-02-17T10:21:37Z</time></trkpt>
<trkpt lat="42.253185" lon="3.247760"><ele>98.1</ele><time>2011-02-17T10:21:42Z</time></trkpt>
<trkpt lat="42.252957" lon="3.247850"><ele>97.4</ele><time>2011-02-17T10:21:47Z</time></trkpt>
<trkpt lat="42.252732" lon="3.247867"><ele>96.3</ele><time>2011-02-17T10:21:52Z</time></trkpt>
<trkpt lat="42.252548" lon="3.247712"><ele>95.6</ele><time>2011-02-17T10:21:57Z</time></trkpt>
<trkpt lat="42.252552" lon="3.247417"><ele>95.5</ele><time>2011-02-17T10:22:02Z</time></trkpt>
<trkpt lat="42.252637" lon="3.247212"><ele>95.8</ele><time>2011-02-17T10:22:07Z</time></trkpt>
<trkpt lat="42.252610" lon="3.247027"><ele>96.4</ele><time>2011-02-17T10:22:12Z</time></trkpt>
<trkpt lat="42.252427" lon="3.247113"><ele>95.7</ele><time>2011-02-17T10:22:17Z</time></trkpt>
<trkpt lat="42.252235" lon="3.247322"><ele>94.1</ele><time>2011-02-17T10:22:22Z</time></trkpt>
<trkpt lat="42.252003" lon="3.247517"><ele>92.2</ele><time>2011-02-17T10:22:27Z</time></trkpt>
<trkpt lat="42.251747" lon="3.247652"><ele>90.8</ele><time>2011-02-17T10:22:32Z</time></trkpt>
<trkpt lat="42.251453" lon="3.247652"><ele>89.5</ele><time>2011-02-17T10:22:37Z</time></trkpt>
<trkpt lat="42.251152" lon="3.247645"><ele>87.8</ele><time>2011-02-17T10:22:42Z</time></trkpt>
<trkpt lat="42.250858" lon="3.247742"><ele>86.4</ele><time>2011-02-17T10:22:47Z</time></trkpt>
<trkpt lat="42.250550" lon="3.247828"><ele>84.5</ele><time>2011-02-17T10:22:52Z</time></trkpt>
<trkpt lat="42.250332" lon="3.248153"><ele>82.3</ele><time>2011-02-17T10:22:57Z</time></trkpt>
<trkpt lat="42.250118" lon="3.248465"><ele>80.4</ele><time>2011-02-17T10:23:02Z</time></trkpt>
<trkpt lat="42.249825" lon="3.248543"><ele>79.1</ele><time>2011-02-17T10:23:07Z</time></trkpt>
<trkpt lat="42.249523" lon="3.248637"><ele>78</ele><time>2011-02-17T10:23:12Z</time></trkpt>
<trkpt lat="42.249352" lon="3.248958"><ele>76.2</ele><time>2011-02-17T10:23:17Z</time></trkpt>
<trkpt lat="42.249210" lon="3.249288"><ele>74.3</ele><time>2011-02-17T10:23:22Z</time></trkpt>
<trkpt lat="42.248973" lon="3.249512"><ele>72.6</ele><time>2011-02-17T10:23:27Z</time></trkpt>
<trkpt lat="42.248722" lon="3.249493"><ele>70.9</ele><time>2011-02-17T10:23:32Z</time></trkpt>
<trkpt lat="42.248517" lon="3.249223"><ele>69.5</ele><time>2011-02-17T10:23:37Z</time></trkpt>
<trkpt lat="42.248360" lon="3.248862"><ele>68.2</ele><time>2011-02-17T10:23:42Z</time></trkpt>
<trkpt lat="42.248307" lon="3.248562"><ele>67.1</ele><time>2011-02-17T10:23:47Z</time></trkpt>
<trkpt lat="42.248292" lon="3.248515"><ele>66.7</ele><time>2011-02-17T10:23:52Z</time></trkpt>
<trkpt lat="42.248292" lon="3.248510"><ele>66.7</ele><time>2011-02-17T10:23:57Z</time></trkpt>
<trkpt lat="42.248292" lon="3.248505"><ele>66.7</ele><time>2011-02-17T10:24:02Z</time></trkpt>
<trkpt lat="42.248292" lon="3.248455"><ele>66.7</ele><time>2011-02-17T10:24:07Z</time></trkpt>
<trkpt lat="42.248272" lon="3.248222"><ele>66.2</ele><time>2011-02-17T10:24:12Z</time></trkpt>
<trkpt lat="42.248257" lon="3.247903"><ele>64.9</ele><time>2011-02-17T10:24:17Z</time></trkpt>
<trkpt lat="42.248200" lon="3.247553"><ele>62.9</ele><time>2011-02-17T10:24:22Z</time></trkpt>
<trkpt lat="42.247890" lon="3.247525"><ele>61</ele><time>2011-02-17T10:24:27Z</time></trkpt>
<trkpt lat="42.247647" lon="3.247658"><ele>60.5</ele><time>2011-02-17T10:24:32Z</time></trkpt>
<trkpt lat="42.247567" lon="3.247825"><ele>60.7</ele><time>2011-02-17T10:24:37Z</time></trkpt>
<trkpt lat="42.247508" lon="3.247963"><ele>61</ele><time>2011-02-17T10:24:42Z</time></trkpt>
<trkpt lat="42.247467" lon="3.248077"><ele>61.2</ele><time>2011-02-17T10:24:47Z</time></trkpt>
<trkpt lat="42.247498" lon="3.248065"><ele>61.7</ele><time>2011-02-17T10:24:52Z</time></trkpt>
<trkpt lat="42.247508" lon="3.248055"><ele>62.1</ele><time>2011-02-17T10:24:57Z</time></trkpt>
<trkpt lat="42.247508" lon="3.248057"><ele>62.4</ele><time>2011-02-17T10:25:02Z</time></trkpt>
<trkpt lat="42.247508" lon="3.248058"><ele>62.6</ele><time>2011-02-17T10:25:07Z</time></trkpt>
<trkpt lat="42.247508" lon="3.248058"><ele>62.7</ele><time>2011-02-17T10:25:12Z</time></trkpt>
<trkpt lat="42.247508" lon="3.248058"><ele>62.8</ele><time>2011-02-17T10:25:17Z</time></trkpt>
<trkpt lat="42.247508" lon="3.248058"><ele>62.9</ele><time>2011-02-17T10:25:22Z</time></trkpt>
<trkpt lat="42.247508" lon="3.248060"><ele>62.4</ele><time>2011-02-17T10:25:27Z</time></trkpt>
<trkpt lat="42.247508" lon="3.248062"><ele>62.4</ele><time>2011-02-17T10:25:32Z</time></trkpt>
<trkpt lat="42.247508" lon="3.248062"><ele>62.8</ele><time>2011-02-17T10:25:37Z</time></trkpt>
<trkpt lat="42.247508" lon="3.248062"><ele>63.1</ele><time>2011-02-17T10:25:42Z</time></trkpt>
<trkpt lat="42.247508" lon="3.248063"><ele>63.4</ele><time>2011-02-17T10:25:47Z</time></trkpt>
<trkpt lat="42.247508" lon="3.248065"><ele>63.6</ele><time>2011-02-17T10:25:52Z</time></trkpt>
<trkpt lat="42.247508" lon="3.248058"><ele>63.4</ele><time>2011-02-17T10:25:57Z</time></trkpt>
<trkpt lat="42.247508" lon="3.248062"><ele>63.1</ele><time>2011-02-17T10:26:02Z</time></trkpt>
<trkpt lat="42.247508" lon="3.248063"><ele>63</ele><time>2011-02-17T10:26:07Z</time></trkpt>
<trkpt lat="42.247513" lon="3.248065"><ele>62.5</ele><time>2011-02-17T10:26:12Z</time></trkpt>
<trkpt lat="42.247513" lon="3.248067"><ele>62.4</ele><time>2011-02-17T10:26:17Z</time></trkpt>
<trkpt lat="42.247513" lon="3.248067"><ele>62.3</ele><time>2011-02-17T10:26:22Z</time></trkpt>
<trkpt lat="42.247513" lon="3.248065"><ele>62.7</ele><time>2011-02-17T10:26:27Z</time></trkpt>
<trkpt lat="42.247508" lon="3.248063"><ele>62.8</ele><time>2011-02-17T10:26:32Z</time></trkpt>
<trkpt lat="42.247513" lon="3.248062"><ele>62.5</ele><time>2011-02-17T10:26:37Z</time></trkpt>
<trkpt lat="42.247520" lon="3.248042"><ele>62.6</ele><time>2011-02-17T10:26:42Z</time></trkpt>
<trkpt lat="42.247585" lon="3.247903"><ele>62.9</ele><time>2011-02-17T10:26:47Z</time></trkpt>
<trkpt lat="42.247665" lon="3.247672"><ele>62.7</ele><time>2011-02-17T10:26:52Z</time></trkpt>
<trkpt lat="42.247738" lon="3.247428"><ele>62.2</ele><time>2011-02-17T10:26:57Z</time></trkpt>
<trkpt lat="42.247857" lon="3.247120"><ele>60.7</ele><time>2011-02-17T10:27:02Z</time></trkpt>
<trkpt lat="42.248017" lon="3.246783"><ele>59.2</ele><time>2011-02-17T10:27:07Z</time></trkpt>
<trkpt lat="42.248222" lon="3.246463"><ele>57.6</ele><time>2011-02-17T10:27:12Z</time></trkpt>
<trkpt lat="42.248482" lon="3.246273"><ele>55.8</ele><time>2011-02-17T10:27:17Z</time></trkpt>
<trkpt lat="42.248780" lon="3.246308"><ele>53.5</ele><time>2011-02-17T10:27:22Z</time></trkpt>
<trkpt lat="42.249077" lon="3.246487"><ele>51.7</ele><time>2011-02-17T10:27:27Z</time></trkpt>
<trkpt lat="42.249378" lon="3.246430"><ele>50.1</ele><time>2011-02-17T10:27:32Z</time></trkpt>
<trkpt lat="42.249595" lon="3.246210"><ele>48.5</ele><time>2011-02-17T10:27:37Z</time></trkpt>
<trkpt lat="42.249817" lon="3.245935"><ele>46.7</ele><time>2011-02-17T10:27:42Z</time></trkpt>
<trkpt lat="42.250083" lon="3.245693"><ele>44.7</ele><time>2011-02-17T10:27:47Z</time></trkpt>
<trkpt lat="42.250397" lon="3.245555"><ele>42.5</ele><time>2011-02-17T10:27:52Z</time></trkpt>
<trkpt lat="42.250728" lon="3.245485"><ele>40.4</ele><time>2011-02-17T10:27:57Z</time></trkpt>
<trkpt lat="42.251042" lon="3.245425"><ele>39</ele><time>2011-02-17T10:28:02Z</time></trkpt>
<trkpt lat="42.251118" lon="3.245013"><ele>37</ele><time>2011-02-17T10:28:07Z</time></trkpt>
<trkpt lat="42.251015" lon="3.244597"><ele>34.7</ele><time>2011-02-17T10:28:12Z</time></trkpt>
<trkpt lat="42.251175" lon="3.244210"><ele>33.1</ele><time>2011-02-17T10:28:17Z</time></trkpt>
<trkpt lat="42.251438" lon="3.243937"><ele>31.6</ele><time>2011-02-17T10:28:22Z</time></trkpt>
<trkpt lat="42.251672" lon="3.243643"><ele>30.7</ele><time>2011-02-17T10:28:27Z</time></trkpt>
<trkpt lat="42.251590" lon="3.243295"><ele>30.1</ele><time>2011-02-17T10:28:32Z</time></trkpt>
<trkpt lat="42.251373" lon="3.243270"><ele>29.7</ele><time>2011-02-17T10:28:37Z</time></trkpt>
<trkpt lat="42.251183" lon="3.243242"><ele>30.2</ele><time>2011-02-17T10:28:42Z</time></trkpt>
<trkpt lat="42.251033" lon="3.243095"><ele>30.7</ele><time>2011-02-17T10:28:47Z</time></trkpt>
<trkpt lat="42.250908" lon="3.242940"><ele>31.4</ele><time>2011-02-17T10:28:52Z</time></trkpt>
<trkpt lat="42.250793" lon="3.242797"><ele>32.2</ele><time>2011-02-17T10:28:57Z</time></trkpt>
<trkpt lat="42.250702" lon="3.242603"><ele>32.9</ele><time>2011-02-17T10:29:02Z</time></trkpt>
<trkpt lat="42.250683" lon="3.242355"><ele>33.3</ele><time>2011-02-17T10:29:07Z</time></trkpt>
<trkpt lat="42.250702" lon="3.242163"><ele>33.5</ele><time>2011-02-17T10:29:12Z</time></trkpt>
<trkpt lat="42.250763" lon="3.241973"><ele>33.7</ele><time>2011-02-17T10:29:17Z</time></trkpt>
<trkpt lat="42.250908" lon="3.241773"><ele>33.6</ele><time>2011-02-17T10:29:22Z</time></trkpt>
<trkpt lat="42.251083" lon="3.241532"><ele>32.8</ele><time>2011-02-17T10:29:27Z</time></trkpt>
<trkpt lat="42.251258" lon="3.241243"><ele>31.7</ele><time>2011-02-17T10:29:32Z</time></trkpt>
<trkpt lat="42.251453" lon="3.240943"><ele>30.7</ele><time>2011-02-17T10:29:37Z</time></trkpt>
<trkpt lat="42.251595" lon="3.240600"><ele>29.9</ele><time>2011-02-17T10:29:42Z</time></trkpt>
<trkpt lat="42.251735" lon="3.240243"><ele>28.7</ele><time>2011-02-17T10:29:47Z</time></trkpt>
<trkpt lat="42.251862" lon="3.239885"><ele>26.5</ele><time>2011-02-17T10:29:52Z</time></trkpt>
<trkpt lat="42.251912" lon="3.239458"><ele>23.6</ele><time>2011-02-17T10:29:57Z</time></trkpt>
<trkpt lat="42.252110" lon="3.239122"><ele>22.3</ele><time>2011-02-17T10:30:02Z</time></trkpt>
<trkpt lat="42.252258" lon="3.238748"><ele>20.8</ele><time>2011-02-17T10:30:07Z</time></trkpt>
<trkpt lat="42.252075" lon="3.238483"><ele>20.4</ele><time>2011-02-17T10:30:12Z</time></trkpt>
<trkpt lat="42.251865" lon="3.238445"><ele>21</ele><time>2011-02-17T10:30:17Z</time></trkpt>
<trkpt lat="42.251747" lon="3.238333"><ele>21.9</ele><time>2011-02-17T10:30:22Z</time></trkpt>
<trkpt lat="42.251693" lon="3.238195"><ele>22.4</ele><time>2011-02-17T10:30:27Z</time></trkpt>
<trkpt lat="42.251643" lon="3.238048"><ele>22.9</ele><time>2011-02-17T10:30:32Z</time></trkpt>
<trkpt lat="42.251563" lon="3.237922"><ele>23.2</ele><time>2011-02-17T10:30:37Z</time></trkpt>
<trkpt lat="42.251457" lon="3.237825"><ele>23.8</ele><time>2011-02-17T10:30:42Z</time></trkpt>
<trkpt lat="42.251350" lon="3.237748"><ele>24.5</ele><time>2011-02-17T10:30:47Z</time></trkpt>
<trkpt lat="42.251237" lon="3.237688"><ele>25.6</ele><time>2011-02-17T10:30:52Z</time></trkpt>
<trkpt lat="42.251113" lon="3.237652"><ele>26.4</ele><time>2011-02-17T10:30:57Z</time></trkpt>
<trkpt lat="42.250992" lon="3.237660"><ele>27.2</ele><time>2011-02-17T10:31:02Z</time></trkpt>
<trkpt lat="42.250873" lon="3.237662"><ele>28.4</ele><time>2011-02-17T10:31:07Z</time></trkpt>
<trkpt lat="42.250763" lon="3.237622"><ele>29.5</ele><time>2011-02-17T10:31:12Z</time></trkpt>
<trkpt lat="42.250645" lon="3.237585"><ele>30.6</ele><time>2011-02-17T10:31:17Z</time></trkpt>
<trkpt lat="42.250530" lon="3.237557"><ele>31.8</ele><time>2011-02-17T10:31:22Z</time></trkpt>
<trkpt lat="42.250408" lon="3.237513"><ele>32.3</ele><time>2011-02-17T10:31:27Z</time></trkpt>
<trkpt lat="42.250293" lon="3.237462"><ele>33.1</ele><time>2011-02-17T10:31:32Z</time></trkpt>
<trkpt lat="42.250187" lon="3.237400"><ele>34</ele><time>2011-02-17T10:31:37Z</time></trkpt>
<trkpt lat="42.250083" lon="3.237342"><ele>34.9</ele><time>2011-02-17T10:31:42Z</time></trkpt>
<trkpt lat="42.249977" lon="3.237295"><ele>36</ele><time>2011-02-17T10:31:47Z</time></trkpt>
<trkpt lat="42.249870" lon="3.237252"><ele>36.9</ele><time>2011-02-17T10:31:52Z</time></trkpt>
<trkpt lat="42.249760" lon="3.237218"><ele>38.3</ele><time>2011-02-17T10:31:57Z</time></trkpt>
<trkpt lat="42.249653" lon="3.237198"><ele>39.1</ele><time>2011-02-17T10:32:02Z</time></trkpt>
<trkpt lat="42.249547" lon="3.237182"><ele>40.3</ele><time>2011-02-17T10:32:07Z</time></trkpt>
<trkpt lat="42.249435" lon="3.237143"><ele>41.3</ele><time>2011-02-17T10:32:12Z</time></trkpt>
<trkpt lat="42.249332" lon="3.237095"><ele>41.9</ele><time>2011-02-17T10:32:17Z</time></trkpt>
<trkpt lat="42.249230" lon="3.237033"><ele>42.7</ele><time>2011-02-17T10:32:22Z</time></trkpt>
<trkpt lat="42.249123" lon="3.236938"><ele>42.7</ele><time>2011-02-17T10:32:27Z</time></trkpt>
<trkpt lat="42.249012" lon="3.236907"><ele>43.4</ele><time>2011-02-17T10:32:32Z</time></trkpt>
<trkpt lat="42.248920" lon="3.236832"><ele>44.2</ele><time>2011-02-17T10:32:37Z</time></trkpt>
<trkpt lat="42.248852" lon="3.236717"><ele>45.6</ele><time>2011-02-17T10:32:42Z</time></trkpt>
<trkpt lat="42.248843" lon="3.236548"><ele>46.5</ele><time>2011-02-17T10:32:47Z</time></trkpt>
<trkpt lat="42.248878" lon="3.236370"><ele>46.7</ele><time>2011-02-17T10:32:52Z</time></trkpt>
<trkpt lat="42.248970" lon="3.236210"><ele>47.6</ele><time>2011-02-17T10:32:57Z</time></trkpt>
<trkpt lat="42.249062" lon="3.236050"><ele>48.2</ele><time>2011-02-17T10:33:02Z</time></trkpt>
<trkpt lat="42.249172" lon="3.235873"><ele>48.8</ele><time>2011-02-17T10:33:07Z</time></trkpt>
<trkpt lat="42.249310" lon="3.235693"><ele>49</ele><time>2011-02-17T10:33:12Z</time></trkpt>
<trkpt lat="42.249473" lon="3.235502"><ele>49.1</ele><time>2011-02-17T10:33:17Z</time></trkpt>
<trkpt lat="42.249595" lon="3.235260"><ele>48.2</ele><time>2011-02-17T10:33:22Z</time></trkpt>
<trkpt lat="42.249512" lon="3.234937"><ele>46.2</ele><time>2011-02-17T10:33:27Z</time></trkpt>
<trkpt lat="42.249370" lon="3.234587"><ele>44.4</ele><time>2011-02-17T10:33:32Z</time></trkpt>
<trkpt lat="42.249325" lon="3.234187"><ele>43.3</ele><time>2011-02-17T10:33:37Z</time></trkpt>
<trkpt lat="42.249325" lon="3.233790"><ele>42.3</ele><time>2011-02-17T10:33:42Z</time></trkpt>
<trkpt lat="42.249402" lon="3.233400"><ele>40.7</ele><time>2011-02-17T10:33:47Z</time></trkpt>
<trkpt lat="42.249473" lon="3.233005"><ele>39.2</ele><time>2011-02-17T10:33:52Z</time></trkpt>
<trkpt lat="42.249627" lon="3.232692"><ele>38.4</ele><time>2011-02-17T10:33:57Z</time></trkpt>
<trkpt lat="42.249897" lon="3.232518"><ele>36.7</ele><time>2011-02-17T10:34:02Z</time></trkpt>
<trkpt lat="42.250195" lon="3.232327"><ele>34.6</ele><time>2011-02-17T10:34:07Z</time></trkpt>
<trkpt lat="42.250447" lon="3.232053"><ele>32.8</ele><time>2011-02-17T10:34:12Z</time></trkpt>
<trkpt lat="42.250583" lon="3.231645"><ele>31.1</ele><time>2011-02-17T10:34:17Z</time></trkpt>
<trkpt lat="42.250828" lon="3.231293"><ele>28.6</ele><time>2011-02-17T10:34:22Z</time></trkpt>
<trkpt lat="42.251128" lon="3.231070"><ele>26.1</ele><time>2011-02-17T10:34:27Z</time></trkpt>
<trkpt lat="42.251290" lon="3.230972"><ele>25</ele><time>2011-02-17T10:34:32Z</time></trkpt>
<trkpt lat="42.251423" lon="3.230758"><ele>24.2</ele><time>2011-02-17T10:34:37Z</time></trkpt>
<trkpt lat="42.251625" lon="3.230500"><ele>22.2</ele><time>2011-02-17T10:34:42Z</time></trkpt>
<trkpt lat="42.251842" lon="3.230220"><ele>21</ele><time>2011-02-17T10:34:47Z</time></trkpt>
<trkpt lat="42.251892" lon="3.229800"><ele>20.4</ele><time>2011-02-17T10:34:52Z</time></trkpt>
<trkpt lat="42.252083" lon="3.229448"><ele>18</ele><time>2011-02-17T10:34:57Z</time></trkpt>
<trkpt lat="42.252353" lon="3.229210"><ele>16.7</ele><time>2011-02-17T10:35:02Z</time></trkpt>
<trkpt lat="42.252522" lon="3.228893"><ele>16.6</ele><time>2011-02-17T10:35:07Z</time></trkpt>
<trkpt lat="42.252655" lon="3.228588"><ele>16.7</ele><time>2011-02-17T10:35:12Z</time></trkpt>
<trkpt lat="42.252762" lon="3.228297"><ele>17</ele><time>2011-02-17T10:35:17Z</time></trkpt>
<trkpt lat="42.252853" lon="3.227988"><ele>16.5</ele><time>2011-02-17T10:35:22Z</time></trkpt>
<trkpt lat="42.252972" lon="3.227648"><ele>15.2</ele><time>2011-02-17T10:35:27Z</time></trkpt>
<trkpt lat="42.253140" lon="3.227362"><ele>14.6</ele><time>2011-02-17T10:35:32Z</time></trkpt>
<trkpt lat="42.253212" lon="3.227027"><ele>12.9</ele><time>2011-02-17T10:35:37Z</time></trkpt>
<trkpt lat="42.253200" lon="3.226640"><ele>11.9</ele><time>2011-02-17T10:35:42Z</time></trkpt>
<trkpt lat="42.253113" lon="3.226282"><ele>11</ele><time>2011-02-17T10:35:47Z</time></trkpt>
<trkpt lat="42.252942" lon="3.226023"><ele>9.4</ele><time>2011-02-17T10:35:52Z</time></trkpt>
<trkpt lat="42.252883" lon="3.225822"><ele>9.6</ele><time>2011-02-17T10:35:57Z</time></trkpt>
<trkpt lat="42.252968" lon="3.225705"><ele>10.3</ele><time>2011-02-17T10:36:02Z</time></trkpt>
<trkpt lat="42.252972" lon="3.225627"><ele>10.2</ele><time>2011-02-17T10:36:07Z</time></trkpt>
<trkpt lat="42.252968" lon="3.225625"><ele>9.6</ele><time>2011-02-17T10:36:12Z</time></trkpt>
<trkpt lat="42.252963" lon="3.225627"><ele>9.7</ele><time>2011-02-17T10:36:17Z</time></trkpt>
<trkpt lat="42.252960" lon="3.225625"><ele>10.4</ele><time>2011-02-17T10:36:22Z</time></trkpt>
<trkpt lat="42.252918" lon="3.225663"><ele>10.7</ele><time>2011-02-17T10:36:27Z</time></trkpt>
<trkpt lat="42.252842" lon="3.225748"><ele>10.6</ele><time>2011-02-17T10:36:32Z</time></trkpt>
<trkpt lat="42.252823" lon="3.225777"><ele>10.5</ele><time>2011-02-17T10:36:37Z</time></trkpt>
<trkpt lat="42.252818" lon="3.225773"><ele>10.4</ele><time>2011-02-17T10:36:42Z</time></trkpt>
<trkpt lat="42.252823" lon="3.225765"><ele>10.3</ele><time>2011-02-17T10:36:47Z</time></trkpt>
<trkpt lat="42.252823" lon="3.225763"><ele>10.2</ele><time>2011-02-17T10:36:52Z</time></trkpt>
<trkpt lat="42.252823" lon="3.225768"><ele>10.3</ele><time>2011-02-17T10:36:57Z</time></trkpt>
<trkpt lat="42.252823" lon="3.225772"><ele>10.1</ele><time>2011-02-17T10:37:02Z</time></trkpt>
<trkpt lat="42.252823" lon="3.225773"><ele>9.3</ele><time>2011-02-17T10:37:07Z</time></trkpt>
<trkpt lat="42.252827" lon="3.225777"><ele>8.6</ele><time>2011-02-17T10:37:12Z</time></trkpt>
<trkpt lat="42.252830" lon="3.225778"><ele>7.1</ele><time>2011-02-17T10:37:17Z</time></trkpt>
<trkpt lat="42.252830" lon="3.225777"><ele>5.6</ele><time>2011-02-17T10:37:22Z</time></trkpt>
<trkpt lat="42.252827" lon="3.225772"><ele>3.5</ele><time>2011-02-17T10:37:27Z</time></trkpt>
<trkpt lat="42.252827" lon="3.225768"><ele>2.7</ele><time>2011-02-17T10:37:32Z</time></trkpt>
<trkpt lat="42.252823" lon="3.225768"><ele>2.2</ele><time>2011-02-17T10:37:37Z</time></trkpt>
<trkpt lat="42.252827" lon="3.225770"><ele>2.2</ele><time>2011-02-17T10:37:42Z</time></trkpt>
<trkpt lat="42.252827" lon="3.225772"><ele>2.4</ele><time>2011-02-17T10:37:47Z</time></trkpt>
<trkpt lat="42.252823" lon="3.225772"><ele>1.6</ele><time>2011-02-17T10:37:52Z</time></trkpt>
<trkpt lat="42.252818" lon="3.225763"><ele>2.5</ele><time>2011-02-17T10:37:57Z</time></trkpt>
<trkpt lat="42.252818" lon="3.225760"><ele>3.7</ele><time>2011-02-17T10:38:02Z</time></trkpt>
<trkpt lat="42.252818" lon="3.225765"><ele>4.2</ele><time>2011-02-17T10:38:07Z</time></trkpt>
<trkpt lat="42.252812" lon="3.225760"><ele>5.9</ele><time>2011-02-17T10:38:12Z</time></trkpt>
<trkpt lat="42.252818" lon="3.225762"><ele>7.6</ele><time>2011-02-17T10:38:17Z</time></trkpt>
<trkpt lat="42.252823" lon="3.225745"><ele>11.4</ele><time>2011-02-17T10:38:22Z</time></trkpt>
<trkpt lat="42.252862" lon="3.225767"><ele>12.7</ele><time>2011-02-17T10:38:27Z</time></trkpt>
<trkpt lat="42.252868" lon="3.225782"><ele>11.8</ele><time>2011-02-17T10:38:32Z</time></trkpt>
<trkpt lat="42.252872" lon="3.225782"><ele>11.9</ele><time>2011-02-17T10:38:37Z</time></trkpt>
<trkpt lat="42.252865" lon="3.225762"><ele>13.3</ele><time>2011-02-17T10:38:42Z</time></trkpt>
<trkpt lat="42.252862" lon="3.225753"><ele>14</ele><time>2011-02-17T10:38:47Z</time></trkpt>
<trkpt lat="42.252853" lon="3.225753"><ele>14.2</ele><time>2011-02-17T10:38:52Z</time></trkpt>
<trkpt lat="42.252853" lon="3.225767"><ele>13.6</ele><time>2011-02-17T10:38:57Z</time></trkpt>
<trkpt lat="42.252853" lon="3.225773"><ele>12.9</ele><time>2011-02-17T10:39:02Z</time></trkpt>
<trkpt lat="42.252853" lon="3.225782"><ele>12.1</ele><time>2011-02-17T10:39:07Z</time></trkpt>
<trkpt lat="42.252853" lon="3.225788"><ele>11.6</ele><time>2011-02-17T10:39:12Z</time></trkpt>
<trkpt lat="42.252853" lon="3.225790"><ele>11.4</ele><time>2011-02-17T10:39:17Z</time></trkpt>
<trkpt lat="42.252812" lon="3.225853"><ele>11.2</ele><time>2011-02-17T10:39:22Z</time></trkpt>
<trkpt lat="42.252673" lon="3.225783"><ele>11.2</ele><time>2011-02-17T10:39:27Z</time></trkpt>
<trkpt lat="42.252507" lon="3.225752"><ele>11.7</ele><time>2011-02-17T10:39:32Z</time></trkpt>
<trkpt lat="42.252365" lon="3.225742"><ele>12.2</ele><time>2011-02-17T10:39:37Z</time></trkpt>
<trkpt lat="42.252217" lon="3.225732"><ele>12.4</ele><time>2011-02-17T10:39:42Z</time></trkpt>
<trkpt lat="42.252060" lon="3.225755"><ele>12.4</ele><time>2011-02-17T10:39:47Z</time></trkpt>
<trkpt lat="42.251903" lon="3.225780"><ele>12.6</ele><time>2011-02-17T10:39:52Z</time></trkpt>
<trkpt lat="42.251743" lon="3.225793"><ele>13</ele><time>2011-02-17T10:39:57Z</time></trkpt>
<trkpt lat="42.251587" lon="3.225793"><ele>13.8</ele><time>2011-02-17T10:40:02Z</time></trkpt>
<trkpt lat="42.251438" lon="3.225800"><ele>15.1</ele><time>2011-02-17T10:40:07Z</time></trkpt>
<trkpt lat="42.251278" lon="3.225810"><ele>14.9</ele><time>2011-02-17T10:40:12Z</time></trkpt>
<trkpt lat="42.251107" lon="3.225833"><ele>15.6</ele><time>2011-02-17T10:40:17Z</time></trkpt>
<trkpt lat="42.250942" lon="3.225863"><ele>17</ele><time>2011-02-17T10:40:22Z</time></trkpt>
<trkpt lat="42.250778" lon="3.225887"><ele>17.5</ele><time>2011-02-17T10:40:27Z</time></trkpt>
<trkpt lat="42.250618" lon="3.225912"><ele>17.9</ele><time>2011-02-17T10:40:32Z</time></trkpt>
<trkpt lat="42.250453" lon="3.225927"><ele>18.4</ele><time>2011-02-17T10:40:37Z</time></trkpt>
<trkpt lat="42.250293" lon="3.225945"><ele>19.3</ele><time>2011-02-17T10:40:42Z</time></trkpt>
<trkpt lat="42.250148" lon="3.226008"><ele>20.5</ele><time>2011-02-17T10:40:47Z</time></trkpt>
<trkpt lat="42.250018" lon="3.226070"><ele>21.5</ele><time>2011-02-17T10:40:52Z</time></trkpt>
<trkpt lat="42.249882" lon="3.226078"><ele>22.2</ele><time>2011-02-17T10:40:57Z</time></trkpt>
<trkpt lat="42.249760" lon="3.226005"><ele>22.7</ele><time>2011-02-17T10:41:02Z</time></trkpt>
<trkpt lat="42.249698" lon="3.225863"><ele>23.2</ele><time>2011-02-17T10:41:07Z</time></trkpt>
<trkpt lat="42.249653" lon="3.225717"><ele>23.9</ele><time>2011-02-17T10:41:12Z</time></trkpt>
<trkpt lat="42.249607" lon="3.225572"><ele>24.8</ele><time>2011-02-17T10:41:17Z</time></trkpt>
<trkpt lat="42.249547" lon="3.225442"><ele>26.3</ele><time>2011-02-17T10:41:22Z</time></trkpt>
<trkpt lat="42.249467" lon="3.225338"><ele>28.4</ele><time>2011-02-17T10:41:27Z</time></trkpt>
<trkpt lat="42.249382" lon="3.225235"><ele>30</ele><time>2011-02-17T10:41:32Z</time></trkpt>
<trkpt lat="42.249290" lon="3.225145"><ele>32</ele><time>2011-02-17T10:41:37Z</time></trkpt>
<trkpt lat="42.249203" lon="3.225040"><ele>33.2</ele><time>2011-02-17T10:41:42Z</time></trkpt>
<trkpt lat="42.249123" lon="3.224928"><ele>35.7</ele><time>2011-02-17T10:41:47Z</time></trkpt>
<trkpt lat="42.249043" lon="3.224793"><ele>34.7</ele><time>2011-02-17T10:41:52Z</time></trkpt>
<trkpt lat="42.248978" lon="3.224643"><ele>34</ele><time>2011-02-17T10:41:57Z</time></trkpt>
<trkpt lat="42.248917" lon="3.224495"><ele>33.9</ele><time>2011-02-17T10:42:02Z</time></trkpt>
<trkpt lat="42.248828" lon="3.224377"><ele>34.1</ele><time>2011-02-17T10:42:07Z</time></trkpt>
<trkpt lat="42.248707" lon="3.224347"><ele>34.4</ele><time>2011-02-17T10:42:12Z</time></trkpt>
<trkpt lat="42.248588" lon="3.224370"><ele>35</ele><time>2011-02-17T10:42:17Z</time></trkpt>
<trkpt lat="42.248470" lon="3.224410"><ele>36.6</ele><time>2011-02-17T10:42:22Z</time></trkpt>
<trkpt lat="42.248363" lon="3.224500"><ele>37.3</ele><time>2011-02-17T10:42:27Z</time></trkpt>
<trkpt lat="42.248322" lon="3.224647"><ele>38.1</ele><time>2011-02-17T10:42:32Z</time></trkpt>
<trkpt lat="42.248328" lon="3.224777"><ele>41.3</ele><time>2011-02-17T10:42:37Z</time></trkpt>
<trkpt lat="42.248318" lon="3.224922"><ele>43.8</ele><time>2011-02-17T10:42:42Z</time></trkpt>
<trkpt lat="42.248295" lon="3.225070"><ele>45.8</ele><time>2011-02-17T10:42:47Z</time></trkpt>
<trkpt lat="42.248280" lon="3.225233"><ele>46.6</ele><time>2011-02-17T10:42:52Z</time></trkpt>
<trkpt lat="42.248257" lon="3.225400"><ele>47.4</ele><time>2011-02-17T10:42:57Z</time></trkpt>
<trkpt lat="42.248245" lon="3.225560"><ele>48.4</ele><time>2011-02-17T10:43:02Z</time></trkpt>
<trkpt lat="42.248227" lon="3.225725"><ele>49.1</ele><time>2011-02-17T10:43:07Z</time></trkpt>
<trkpt lat="42.248222" lon="3.225888"><ele>49.7</ele><time>2011-02-17T10:43:12Z</time></trkpt>
<trkpt lat="42.248195" lon="3.226052"><ele>50.5</ele><time>2011-02-17T10:43:17Z</time></trkpt>
<trkpt lat="42.248162" lon="3.226213"><ele>50.9</ele><time>2011-02-17T10:43:22Z</time></trkpt>
<trkpt lat="42.248100" lon="3.226372"><ele>50.4</ele><time>2011-02-17T10:43:27Z</time></trkpt>
<trkpt lat="42.248032" lon="3.226515"><ele>50.3</ele><time>2011-02-17T10:43:32Z</time></trkpt>
<trkpt lat="42.247937" lon="3.226632"><ele>50.6</ele><time>2011-02-17T10:43:37Z</time></trkpt>
<trkpt lat="42.247833" lon="3.226722"><ele>50.7</ele><time>2011-02-17T10:43:42Z</time></trkpt>
<trkpt lat="42.247723" lon="3.226785"><ele>50.3</ele><time>2011-02-17T10:43:47Z</time></trkpt>
<trkpt lat="42.247605" lon="3.226823"><ele>50.4</ele><time>2011-02-17T10:43:52Z</time></trkpt>
<trkpt lat="42.247493" lon="3.226860"><ele>50.6</ele><time>2011-02-17T10:43:57Z</time></trkpt>
<trkpt lat="42.247380" lon="3.226893"><ele>51</ele><time>2011-02-17T10:44:02Z</time></trkpt>
<trkpt lat="42.247262" lon="3.226930"><ele>51.6</ele><time>2011-02-17T10:44:07Z</time></trkpt>
<trkpt lat="42.247143" lon="3.226967"><ele>51.8</ele><time>2011-02-17T10:44:12Z</time></trkpt>
<trkpt lat="42.247025" lon="3.227033"><ele>52.4</ele><time>2011-02-17T10:44:17Z</time></trkpt>
<trkpt lat="42.246937" lon="3.227145"><ele>53.4</ele><time>2011-02-17T10:44:22Z</time></trkpt>
<trkpt lat="42.246857" lon="3.227253"><ele>54.9</ele><time>2011-02-17T10:44:27Z</time></trkpt>
<trkpt lat="42.246758" lon="3.227345"><ele>55.9</ele><time>2011-02-17T10:44:32Z</time></trkpt>
<trkpt lat="42.246640" lon="3.227415"><ele>56.7</ele><time>2011-02-17T10:44:37Z</time></trkpt>
<trkpt lat="42.246525" lon="3.227458"><ele>57.6</ele><time>2011-02-17T10:44:42Z</time></trkpt>
<trkpt lat="42.246403" lon="3.227490"><ele>58.8</ele><time>2011-02-17T10:44:47Z</time></trkpt>
<trkpt lat="42.246285" lon="3.227523"><ele>59.6</ele><time>2011-02-17T10:44:52Z</time></trkpt>
<trkpt lat="42.246167" lon="3.227585"><ele>60.3</ele><time>2011-02-17T10:44:57Z</time></trkpt>
<trkpt lat="42.246060" lon="3.227672"><ele>61.3</ele><time>2011-02-17T10:45:02Z</time></trkpt>
<trkpt lat="42.245960" lon="3.227767"><ele>62.6</ele><time>2011-02-17T10:45:07Z</time></trkpt>
<trkpt lat="42.245865" lon="3.227868"><ele>64</ele><time>2011-02-17T10:45:12Z</time></trkpt>
<trkpt lat="42.245758" lon="3.227960"><ele>65</ele><time>2011-02-17T10:45:17Z</time></trkpt>
<trkpt lat="42.245640" lon="3.228012"><ele>65.5</ele><time>2011-02-17T10:45:22Z</time></trkpt>
<trkpt lat="42.245522" lon="3.227977"><ele>66.2</ele><time>2011-02-17T10:45:27Z</time></trkpt>
<trkpt lat="42.245422" lon="3.227872"><ele>66.7</ele><time>2011-02-17T10:45:32Z</time></trkpt>
<trkpt lat="42.245373" lon="3.227720"><ele>67.4</ele><time>2011-02-17T10:45:37Z</time></trkpt>
<trkpt lat="42.245385" lon="3.227553"><ele>68.4</ele><time>2011-02-17T10:45:42Z</time></trkpt>
<trkpt lat="42.245427" lon="3.227398"><ele>69.5</ele><time>2011-02-17T10:45:47Z</time></trkpt>
<trkpt lat="42.245472" lon="3.227253"><ele>70.5</ele><time>2011-02-17T10:45:52Z</time></trkpt>
<trkpt lat="42.245522" lon="3.227108"><ele>71.5</ele><time>2011-02-17T10:45:57Z</time></trkpt>
<trkpt lat="42.245563" lon="3.226960"><ele>72.4</ele><time>2011-02-17T10:46:02Z</time></trkpt>
<trkpt lat="42.245610" lon="3.226812"><ele>73.3</ele><time>2011-02-17T10:46:07Z</time></trkpt>
<trkpt lat="42.245647" lon="3.226658"><ele>74.1</ele><time>2011-02-17T10:46:12Z</time></trkpt>
<trkpt lat="42.245678" lon="3.226505"><ele>75</ele><time>2011-02-17T10:46:17Z</time></trkpt>
<trkpt lat="42.245702" lon="3.226347"><ele>75.9</ele><time>2011-02-17T10:46:22Z</time></trkpt>
<trkpt lat="42.245717" lon="3.226192"><ele>77.4</ele><time>2011-02-17T10:46:27Z</time></trkpt>
<trkpt lat="42.245735" lon="3.226033"><ele>78.7</ele><time>2011-02-17T10:46:32Z</time></trkpt>
<trkpt lat="42.245750" lon="3.225878"><ele>79.9</ele><time>2011-02-17T10:46:37Z</time></trkpt>
<trkpt lat="42.245762" lon="3.225722"><ele>80.9</ele><time>2011-02-17T10:46:42Z</time></trkpt>
<trkpt lat="42.245765" lon="3.225562"><ele>81.8</ele><time>2011-02-17T10:46:47Z</time></trkpt>
<trkpt lat="42.245765" lon="3.225407"><ele>82.8</ele><time>2011-02-17T10:46:52Z</time></trkpt>
<trkpt lat="42.245765" lon="3.225237"><ele>82.2</ele><time>2011-02-17T10:46:57Z</time></trkpt>
<trkpt lat="42.245762" lon="3.225070"><ele>82.2</ele><time>2011-02-17T10:47:02Z</time></trkpt>
<trkpt lat="42.245765" lon="3.224903"><ele>82.6</ele><time>2011-02-17T10:47:07Z</time></trkpt>
<trkpt lat="42.245758" lon="3.224738"><ele>83.3</ele><time>2011-02-17T10:47:12Z</time></trkpt>
<trkpt lat="42.245743" lon="3.224580"><ele>84</ele><time>2011-02-17T10:47:17Z</time></trkpt>
<trkpt lat="42.245708" lon="3.224418"><ele>84.5</ele><time>2011-02-17T10:47:22Z</time></trkpt>
<trkpt lat="42.245655" lon="3.224270"><ele>85.1</ele><time>2011-02-17T10:47:27Z</time></trkpt>
<trkpt lat="42.245587" lon="3.224130"><ele>85.6</ele><time>2011-02-17T10:47:32Z</time></trkpt>
<trkpt lat="42.245525" lon="3.223988"><ele>86.3</ele><time>2011-02-17T10:47:37Z</time></trkpt>
<trkpt lat="42.245465" lon="3.223840"><ele>86.9</ele><time>2011-02-17T10:47:42Z</time></trkpt>
<trkpt lat="42.245430" lon="3.223685"><ele>87.6</ele><time>2011-02-17T10:47:47Z</time></trkpt>
<trkpt lat="42.245415" lon="3.223523"><ele>88.6</ele><time>2011-02-17T10:47:52Z</time></trkpt>
<trkpt lat="42.245400" lon="3.223365"><ele>90.2</ele><time>2011-02-17T10:47:57Z</time></trkpt>
<trkpt lat="42.245388" lon="3.223208"><ele>91.8</ele><time>2011-02-17T10:48:02Z</time></trkpt>
<trkpt lat="42.245373" lon="3.223052"><ele>93.4</ele><time>2011-02-17T10:48:07Z</time></trkpt>
<trkpt lat="42.245350" lon="3.222887"><ele>94.4</ele><time>2011-02-17T10:48:12Z</time></trkpt>
<trkpt lat="42.245297" lon="3.222727"><ele>94.4</ele><time>2011-02-17T10:48:17Z</time></trkpt>
<trkpt lat="42.245208" lon="3.222602"><ele>95</ele><time>2011-02-17T10:48:22Z</time></trkpt>
<trkpt lat="42.245098" lon="3.222542"><ele>95.7</ele><time>2011-02-17T10:48:27Z</time></trkpt>
<trkpt lat="42.244972" lon="3.222540"><ele>96.6</ele><time>2011-02-17T10:48:32Z</time></trkpt>
<trkpt lat="42.244850" lon="3.222565"><ele>98.5</ele><time>2011-02-17T10:48:37Z</time></trkpt>
<trkpt lat="42.244728" lon="3.222585"><ele>99.5</ele><time>2011-02-17T10:48:42Z</time></trkpt>
<trkpt lat="42.244607" lon="3.222602"><ele>100.3</ele><time>2011-02-17T10:48:47Z</time></trkpt>
<trkpt lat="42.244477" lon="3.222622"><ele>102.2</ele><time>2011-02-17T10:48:52Z</time></trkpt>
<trkpt lat="42.244347" lon="3.222610"><ele>101.6</ele><time>2011-02-17T10:48:57Z</time></trkpt>
<trkpt lat="42.244220" lon="3.222578"><ele>101.6</ele><time>2011-02-17T10:49:02Z</time></trkpt>
<trkpt lat="42.244102" lon="3.222523"><ele>101.8</ele><time>2011-02-17T10:49:07Z</time></trkpt>
<trkpt lat="42.244000" lon="3.222438"><ele>102.7</ele><time>2011-02-17T10:49:12Z</time></trkpt>
<trkpt lat="42.243915" lon="3.222320"><ele>103.4</ele><time>2011-02-17T10:49:17Z</time></trkpt>
<trkpt lat="42.243862" lon="3.222170"><ele>104</ele><time>2011-02-17T10:49:22Z</time></trkpt>
<trkpt lat="42.243828" lon="3.222012"><ele>104.7</ele><time>2011-02-17T10:49:27Z</time></trkpt>
<trkpt lat="42.243808" lon="3.221855"><ele>105.7</ele><time>2011-02-17T10:49:32Z</time></trkpt>
<trkpt lat="42.243805" lon="3.221692"><ele>107</ele><time>2011-02-17T10:49:37Z</time></trkpt>
<trkpt lat="42.243817" lon="3.221533"><ele>108.5</ele><time>2011-02-17T10:49:42Z</time></trkpt>
<trkpt lat="42.243843" lon="3.221373"><ele>109.7</ele><time>2011-02-17T10:49:47Z</time></trkpt>
<trkpt lat="42.243885" lon="3.221215"><ele>110.7</ele><time>2011-02-17T10:49:52Z</time></trkpt>
<trkpt lat="42.243927" lon="3.221047"><ele>111.6</ele><time>2011-02-17T10:49:57Z</time></trkpt>
<trkpt lat="42.243968" lon="3.220888"><ele>112.8</ele><time>2011-02-17T10:50:02Z</time></trkpt>
<trkpt lat="42.244018" lon="3.220737"><ele>113.5</ele><time>2011-02-17T10:50:07Z</time></trkpt>
<trkpt lat="42.244057" lon="3.220583"><ele>114.5</ele><time>2011-02-17T10:50:12Z</time></trkpt>
<trkpt lat="42.244065" lon="3.220423"><ele>115.8</ele><time>2011-02-17T10:50:17Z</time></trkpt>
<trkpt lat="42.244038" lon="3.220268"><ele>117.8</ele><time>2011-02-17T10:50:22Z</time></trkpt>
<trkpt lat="42.244003" lon="3.220132"><ele>119.3</ele><time>2011-02-17T10:50:27Z</time></trkpt>
<trkpt lat="42.243965" lon="3.219990"><ele>120.1</ele><time>2011-02-17T10:50:32Z</time></trkpt>
<trkpt lat="42.243947" lon="3.219822"><ele>121.5</ele><time>2011-02-17T10:50:37Z</time></trkpt>
<trkpt lat="42.243985" lon="3.219647"><ele>121.3</ele><time>2011-02-17T10:50:42Z</time></trkpt>
<trkpt lat="42.244068" lon="3.219517"><ele>122.4</ele><time>2011-02-17T10:50:47Z</time></trkpt>
<trkpt lat="42.244187" lon="3.219482"><ele>123.8</ele><time>2011-02-17T10:50:52Z</time></trkpt>
<trkpt lat="42.244305" lon="3.219502"><ele>125.6</ele><time>2011-02-17T10:50:57Z</time></trkpt>
<trkpt lat="42.244435" lon="3.219510"><ele>125.8</ele><time>2011-02-17T10:51:02Z</time></trkpt>
<trkpt lat="42.244542" lon="3.219427"><ele>126.8</ele><time>2011-02-17T10:51:07Z</time></trkpt>
<trkpt lat="42.244602" lon="3.219282"><ele>127.9</ele><time>2011-02-17T10:51:12Z</time></trkpt>
<trkpt lat="42.244602" lon="3.219112"><ele>128.4</ele><time>2011-02-17T10:51:17Z</time></trkpt>
<trkpt lat="42.244548" lon="3.218962"><ele>130</ele><time>2011-02-17T10:51:22Z</time></trkpt>
<trkpt lat="42.244445" lon="3.218837"><ele>126.9</ele><time>2011-02-17T10:51:27Z</time></trkpt>
<trkpt lat="42.244308" lon="3.218835"><ele>127.5</ele><time>2011-02-17T10:51:32Z</time></trkpt>
<trkpt lat="42.244183" lon="3.218912"><ele>128.2</ele><time>2011-02-17T10:51:37Z</time></trkpt>
<trkpt lat="42.244068" lon="3.218998"><ele>129.2</ele><time>2011-02-17T10:51:42Z</time></trkpt>
<trkpt lat="42.243953" lon="3.219075"><ele>130.1</ele><time>2011-02-17T10:51:47Z</time></trkpt>
<trkpt lat="42.243835" lon="3.219150"><ele>130.6</ele><time>2011-02-17T10:51:52Z</time></trkpt>
<trkpt lat="42.243713" lon="3.219205"><ele>132.3</ele><time>2011-02-17T10:51:57Z</time></trkpt>
<trkpt lat="42.243587" lon="3.219237"><ele>132.7</ele><time>2011-02-17T10:52:02Z</time></trkpt>
<trkpt lat="42.243458" lon="3.219260"><ele>133.1</ele><time>2011-02-17T10:52:07Z</time></trkpt>
<trkpt lat="42.243328" lon="3.219258"><ele>133.5</ele><time>2011-02-17T10:52:12Z</time></trkpt>
<trkpt lat="42.243202" lon="3.219243"><ele>133.9</ele><time>2011-02-17T10:52:17Z</time></trkpt>
<trkpt lat="42.243077" lon="3.219203"><ele>134.5</ele><time>2011-02-17T10:52:22Z</time></trkpt>
<trkpt lat="42.242965" lon="3.219135"><ele>135.9</ele><time>2011-02-17T10:52:27Z</time></trkpt>
<trkpt lat="42.242867" lon="3.219027"><ele>136.9</ele><time>2011-02-17T10:52:32Z</time></trkpt>
<trkpt lat="42.242787" lon="3.218900"><ele>138.4</ele><time>2011-02-17T10:52:37Z</time></trkpt>
<trkpt lat="42.242730" lon="3.218735"><ele>138.4</ele><time>2011-02-17T10:52:42Z</time></trkpt>
<trkpt lat="42.242683" lon="3.218567"><ele>138.2</ele><time>2011-02-17T10:52:47Z</time></trkpt>
<trkpt lat="42.242630" lon="3.218407"><ele>138.3</ele><time>2011-02-17T10:52:52Z</time></trkpt>
<trkpt lat="42.242577" lon="3.218255"><ele>138.8</ele><time>2011-02-17T10:52:57Z</time></trkpt>
<trkpt lat="42.242520" lon="3.218100"><ele>139.2</ele><time>2011-02-17T10:53:02Z</time></trkpt>
<trkpt lat="42.242467" lon="3.217950"><ele>140</ele><time>2011-02-17T10:53:07Z</time></trkpt>
<trkpt lat="42.242370" lon="3.217838"><ele>140.9</ele><time>2011-02-17T10:53:12Z</time></trkpt>
<trkpt lat="42.242252" lon="3.217800"><ele>141.9</ele><time>2011-02-17T10:53:17Z</time></trkpt>
<trkpt lat="42.242127" lon="3.217815"><ele>142.6</ele><time>2011-02-17T10:53:22Z</time></trkpt>
<trkpt lat="42.242005" lon="3.217833"><ele>143.2</ele><time>2011-02-17T10:53:27Z</time></trkpt>
<trkpt lat="42.241875" lon="3.217857"><ele>144.1</ele><time>2011-02-17T10:53:32Z</time></trkpt>
<trkpt lat="42.241748" lon="3.217875"><ele>145</ele><time>2011-02-17T10:53:37Z</time></trkpt>
<trkpt lat="42.241612" lon="3.217858"><ele>146.1</ele><time>2011-02-17T10:53:42Z</time></trkpt>
<trkpt lat="42.241497" lon="3.217782"><ele>147.3</ele><time>2011-02-17T10:53:47Z</time></trkpt>
<trkpt lat="42.241398" lon="3.217652"><ele>148.1</ele><time>2011-02-17T10:53:52Z</time></trkpt>
<trkpt lat="42.241322" lon="3.217493"><ele>148.8</ele><time>2011-02-17T10:53:57Z</time></trkpt>
<trkpt lat="42.241242" lon="3.217330"><ele>149.6</ele><time>2011-02-17T10:54:02Z</time></trkpt>
<trkpt lat="42.241158" lon="3.217163"><ele>150.4</ele><time>2011-02-17T10:54:07Z</time></trkpt>
<trkpt lat="42.241073" lon="3.216998"><ele>151.5</ele><time>2011-02-17T10:54:12Z</time></trkpt>
<trkpt lat="42.240990" lon="3.216835"><ele>152.3</ele><time>2011-02-17T10:54:17Z</time></trkpt>
<trkpt lat="42.240910" lon="3.216668"><ele>153.4</ele><time>2011-02-17T10:54:22Z</time></trkpt>
<trkpt lat="42.240852" lon="3.216485"><ele>154.4</ele><time>2011-02-17T10:54:27Z</time></trkpt>
<trkpt lat="42.240857" lon="3.216282"><ele>155.4</ele><time>2011-02-17T10:54:32Z</time></trkpt>
<trkpt lat="42.240922" lon="3.216103"><ele>156.5</ele><time>2011-02-17T10:54:37Z</time></trkpt>
<trkpt lat="42.241047" lon="3.215995"><ele>157.6</ele><time>2011-02-17T10:54:42Z</time></trkpt>
<trkpt lat="42.241192" lon="3.215965"><ele>158.7</ele><time>2011-02-17T10:54:47Z</time></trkpt>
<trkpt lat="42.241345" lon="3.215948"><ele>159.6</ele><time>2011-02-17T10:54:52Z</time></trkpt>
<trkpt lat="42.241490" lon="3.215932"><ele>160.6</ele><time>2011-02-17T10:54:57Z</time></trkpt>
<trkpt lat="42.241635" lon="3.215907"><ele>161.6</ele><time>2011-02-17T10:55:02Z</time></trkpt>
<trkpt lat="42.241780" lon="3.215900"><ele>162.6</ele><time>2011-02-17T10:55:07Z</time></trkpt>
<trkpt lat="42.241920" lon="3.215960"><ele>163.5</ele><time>2011-02-17T10:55:12Z</time></trkpt>
<trkpt lat="42.242062" lon="3.216022"><ele>164.4</ele><time>2011-02-17T10:55:17Z</time></trkpt>
<trkpt lat="42.242198" lon="3.216068"><ele>165.4</ele><time>2011-02-17T10:55:22Z</time></trkpt>
<trkpt lat="42.242348" lon="3.216082"><ele>166.4</ele><time>2011-02-17T10:55:27Z</time></trkpt>
<trkpt lat="42.242497" lon="3.216092"><ele>167.3</ele><time>2011-02-17T10:55:32Z</time></trkpt>
<trkpt lat="42.242642" lon="3.216055"><ele>168.3</ele><time>2011-02-17T10:55:37Z</time></trkpt>
<trkpt lat="42.242772" lon="3.215962"><ele>169.4</ele><time>2011-02-17T10:55:42Z</time></trkpt>
<trkpt lat="42.242882" lon="3.215833"><ele>170.4</ele><time>2011-02-17T10:55:47Z</time></trkpt>
<trkpt lat="42.242992" lon="3.215703"><ele>171.5</ele><time>2011-02-17T10:55:52Z</time></trkpt>
<trkpt lat="42.243095" lon="3.215557"><ele>172.5</ele><time>2011-02-17T10:55:57Z</time></trkpt>
<trkpt lat="42.243038" lon="3.215382"><ele>172.4</ele><time>2011-02-17T10:56:02Z</time></trkpt>
<trkpt lat="42.242965" lon="3.215188"><ele>172.3</ele><time>2011-02-17T10:56:07Z</time></trkpt>
<trkpt lat="42.242973" lon="3.214970"><ele>172.7</ele><time>2011-02-17T10:56:12Z</time></trkpt>
<trkpt lat="42.242912" lon="3.214848"><ele>172.1</ele><time>2011-02-17T10:56:17Z</time></trkpt>
<trkpt lat="42.242902" lon="3.214855"><ele>171.9</ele><time>2011-02-17T10:56:22Z</time></trkpt>
<trkpt lat="42.242905" lon="3.214852"><ele>172.3</ele><time>2011-02-17T10:56:27Z</time></trkpt>
<trkpt lat="42.242897" lon="3.214840"><ele>172.3</ele><time>2011-02-17T10:56:32Z</time></trkpt>
<trkpt lat="42.242885" lon="3.214815"><ele>172</ele><time>2011-02-17T10:56:37Z</time></trkpt>
<trkpt lat="42.242893" lon="3.214837"><ele>172.2</ele><time>2011-02-17T10:56:42Z</time></trkpt>
<trkpt lat="42.242893" lon="3.214835"><ele>172.8</ele><time>2011-02-17T10:56:47Z</time></trkpt>
<trkpt lat="42.242902" lon="3.214822"><ele>172.8</ele><time>2011-02-17T10:56:52Z</time></trkpt>
<trkpt lat="42.242893" lon="3.214822"><ele>172.7</ele><time>2011-02-17T10:56:57Z</time></trkpt>
<trkpt lat="42.242878" lon="3.214818"><ele>172.5</ele><time>2011-02-17T10:57:02Z</time></trkpt>
<trkpt lat="42.242878" lon="3.214818"><ele>172.4</ele><time>2011-02-17T10:57:07Z</time></trkpt>
<trkpt lat="42.242878" lon="3.214818"><ele>172.4</ele><time>2011-02-17T10:57:12Z</time></trkpt>
<trkpt lat="42.242885" lon="3.214828"><ele>172.4</ele><time>2011-02-17T10:57:17Z</time></trkpt>
<trkpt lat="42.242908" lon="3.214850"><ele>172.5</ele><time>2011-02-17T10:57:22Z</time></trkpt>
<trkpt lat="42.242908" lon="3.214855"><ele>173.2</ele><time>2011-02-17T10:57:27Z</time></trkpt>
<trkpt lat="42.242908" lon="3.214857"><ele>173</ele><time>2011-02-17T10:57:32Z</time></trkpt>
<trkpt lat="42.242932" lon="3.214888"><ele>173</ele><time>2011-02-17T10:57:37Z</time></trkpt>
<trkpt lat="42.242962" lon="3.214978"><ele>172.7</ele><time>2011-02-17T10:57:42Z</time></trkpt>
<trkpt lat="42.242955" lon="3.215142"><ele>172.2</ele><time>2011-02-17T10:57:47Z</time></trkpt>
<trkpt lat="42.243008" lon="3.215318"><ele>171.8</ele><time>2011-02-17T10:57:52Z</time></trkpt>
<trkpt lat="42.243095" lon="3.215470"><ele>171.1</ele><time>2011-02-17T10:57:57Z</time></trkpt>
<trkpt lat="42.243237" lon="3.215425"><ele>171.6</ele><time>2011-02-17T10:58:02Z</time></trkpt>
<trkpt lat="42.243405" lon="3.215350"><ele>171.8</ele><time>2011-02-17T10:58:07Z</time></trkpt>
<trkpt lat="42.243595" lon="3.215343"><ele>171.4</ele><time>2011-02-17T10:58:12Z</time></trkpt>
<trkpt lat="42.243808" lon="3.215372"><ele>170.8</ele><time>2011-02-17T10:58:17Z</time></trkpt>
<trkpt lat="42.244053" lon="3.215420"><ele>170</ele><time>2011-02-17T10:58:22Z</time></trkpt>
<trkpt lat="42.244278" lon="3.215625"><ele>168.6</ele><time>2011-02-17T10:58:27Z</time></trkpt>
<trkpt lat="42.244418" lon="3.215950"><ele>166.7</ele><time>2011-02-17T10:58:32Z</time></trkpt>
<trkpt lat="42.244545" lon="3.216305"><ele>164.9</ele><time>2011-02-17T10:58:37Z</time></trkpt>
<trkpt lat="42.244693" lon="3.216632"><ele>164.1</ele><time>2011-02-17T10:58:42Z</time></trkpt>
<trkpt lat="42.244888" lon="3.216798"><ele>164</ele><time>2011-02-17T10:58:47Z</time></trkpt>
<trkpt lat="42.245057" lon="3.216828"><ele>165</ele><time>2011-02-17T10:58:52Z</time></trkpt>
<trkpt lat="42.245193" lon="3.216755"><ele>166.4</ele><time>2011-02-17T10:58:57Z</time></trkpt>
<trkpt lat="42.245312" lon="3.216633"><ele>167.7</ele><time>2011-02-17T10:59:02Z</time></trkpt>
<trkpt lat="42.245403" lon="3.216493"><ele>168.8</ele><time>2011-02-17T10:59:07Z</time></trkpt>
<trkpt lat="42.245480" lon="3.216360"><ele>169.7</ele><time>2011-02-17T10:59:12Z</time></trkpt>
<trkpt lat="42.245563" lon="3.216235"><ele>170.8</ele><time>2011-02-17T10:59:17Z</time></trkpt>
<trkpt lat="42.245655" lon="3.216118"><ele>171.9</ele><time>2011-02-17T10:59:22Z</time></trkpt>
<trkpt lat="42.245758" lon="3.216022"><ele>173</ele><time>2011-02-17T10:59:27Z</time></trkpt>
<trkpt lat="42.245877" lon="3.215953"><ele>174</ele><time>2011-02-17T10:59:32Z</time></trkpt>
<trkpt lat="42.245995" lon="3.215892"><ele>175.1</ele><time>2011-02-17T10:59:37Z</time></trkpt>
<trkpt lat="42.246108" lon="3.215825"><ele>176.2</ele><time>2011-02-17T10:59:42Z</time></trkpt>
<trkpt lat="42.246220" lon="3.215730"><ele>177.1</ele><time>2011-02-17T10:59:47Z</time></trkpt>
<trkpt lat="42.246300" lon="3.215588"><ele>178.1</ele><time>2011-02-17T10:59:52Z</time></trkpt>
<trkpt lat="42.246360" lon="3.215433"><ele>178.8</ele><time>2011-02-17T10:59:57Z</time></trkpt>
<trkpt lat="42.246425" lon="3.215285"><ele>179.8</ele><time>2011-02-17T11:00:02Z</time></trkpt>
<trkpt lat="42.246505" lon="3.215153"><ele>180.8</ele><time>2011-02-17T11:00:07Z</time></trkpt>
<trkpt lat="42.246613" lon="3.215058"><ele>181.7</ele><time>2011-02-17T11:00:12Z</time></trkpt>
<trkpt lat="42.246735" lon="3.215005"><ele>182.6</ele><time>2011-02-17T11:00:17Z</time></trkpt>
<trkpt lat="42.246857" lon="3.214950"><ele>183.4</ele><time>2011-02-17T11:00:22Z</time></trkpt>
<trkpt lat="42.246975" lon="3.214882"><ele>184.5</ele><time>2011-02-17T11:00:27Z</time></trkpt>
<trkpt lat="42.247082" lon="3.214795"><ele>185.8</ele><time>2011-02-17T11:00:32Z</time></trkpt>
<trkpt lat="42.247185" lon="3.214700"><ele>187</ele><time>2011-02-17T11:00:37Z</time></trkpt>
<trkpt lat="42.247300" lon="3.214615"><ele>188.1</ele><time>2011-02-17T11:00:42Z</time></trkpt>
<trkpt lat="42.247425" lon="3.214623"><ele>189.3</ele><time>2011-02-17T11:00:47Z</time></trkpt>
<trkpt lat="42.247543" lon="3.214703"><ele>189.3</ele><time>2011-02-17T11:00:52Z</time></trkpt>
<trkpt lat="42.247673" lon="3.214780"><ele>189.1</ele><time>2011-02-17T11:00:57Z</time></trkpt>
<trkpt lat="42.247807" lon="3.214780"><ele>189.9</ele><time>2011-02-17T11:01:02Z</time></trkpt>
<trkpt lat="42.247943" lon="3.214692"><ele>190.6</ele><time>2011-02-17T11:01:07Z</time></trkpt>
<trkpt lat="42.248085" lon="3.214578"><ele>191.6</ele><time>2011-02-17T11:01:12Z</time></trkpt>
<trkpt lat="42.248245" lon="3.214475"><ele>192.4</ele><time>2011-02-17T11:01:17Z</time></trkpt>
<trkpt lat="42.248417" lon="3.214368"><ele>193</ele><time>2011-02-17T11:01:22Z</time></trkpt>
<trkpt lat="42.248588" lon="3.214227"><ele>193.2</ele><time>2011-02-17T11:01:27Z</time></trkpt>
<trkpt lat="42.248768" lon="3.214055"><ele>193.5</ele><time>2011-02-17T11:01:32Z</time></trkpt>
<trkpt lat="42.248940" lon="3.213838"><ele>193.3</ele><time>2011-02-17T11:01:37Z</time></trkpt>
<trkpt lat="42.249107" lon="3.213588"><ele>193.1</ele><time>2011-02-17T11:01:42Z</time></trkpt>
<trkpt lat="42.249290" lon="3.213358"><ele>192.7</ele><time>2011-02-17T11:01:47Z</time></trkpt>
<trkpt lat="42.249508" lon="3.213233"><ele>192.7</ele><time>2011-02-17T11:01:52Z</time></trkpt>
<trkpt lat="42.249733" lon="3.213112"><ele>192.5</ele><time>2011-02-17T11:01:57Z</time></trkpt>
<trkpt lat="42.249817" lon="3.212783"><ele>191.5</ele><time>2011-02-17T11:02:02Z</time></trkpt>
<trkpt lat="42.249837" lon="3.212418"><ele>190.5</ele><time>2011-02-17T11:02:07Z</time></trkpt>
<trkpt lat="42.250003" lon="3.212092"><ele>189.8</ele><time>2011-02-17T11:02:12Z</time></trkpt>
<trkpt lat="42.250225" lon="3.211812"><ele>188.9</ele><time>2011-02-17T11:02:17Z</time></trkpt>
<trkpt lat="42.250462" lon="3.211563"><ele>188.1</ele><time>2011-02-17T11:02:22Z</time></trkpt>
<trkpt lat="42.250737" lon="3.211438"><ele>187.4</ele><time>2011-02-17T11:02:27Z</time></trkpt>
<trkpt lat="42.250995" lon="3.211528"><ele>186.8</ele><time>2011-02-17T11:02:32Z</time></trkpt>
<trkpt lat="42.251225" lon="3.211683"><ele>186.5</ele><time>2011-02-17T11:02:37Z</time></trkpt>
<trkpt lat="42.251472" lon="3.211740"><ele>187.2</ele><time>2011-02-17T11:02:42Z</time></trkpt>
<trkpt lat="42.251637" lon="3.211468"><ele>187.6</ele><time>2011-02-17T11:02:47Z</time></trkpt>
<trkpt lat="42.251785" lon="3.211138"><ele>187.4</ele><time>2011-02-17T11:02:52Z</time></trkpt>
<trkpt lat="42.252007" lon="3.210847"><ele>186.7</ele><time>2011-02-17T11:02:57Z</time></trkpt>
<trkpt lat="42.252262" lon="3.210602"><ele>185.9</ele><time>2011-02-17T11:03:02Z</time></trkpt>
<trkpt lat="42.252373" lon="3.210257"><ele>185.5</ele><time>2011-02-17T11:03:07Z</time></trkpt>
<trkpt lat="42.252182" lon="3.209992"><ele>184.5</ele><time>2011-02-17T11:03:12Z</time></trkpt>
<trkpt lat="42.251915" lon="3.209793"><ele>183.6</ele><time>2011-02-17T11:03:17Z</time></trkpt>
<trkpt lat="42.251820" lon="3.209382"><ele>182.3</ele><time>2011-02-17T11:03:22Z</time></trkpt>
<trkpt lat="42.251788" lon="3.208922"><ele>180.4</ele><time>2011-02-17T11:03:27Z</time></trkpt>
<trkpt lat="42.251950" lon="3.208523"><ele>178.9</ele><time>2011-02-17T11:03:32Z</time></trkpt>
<trkpt lat="42.252293" lon="3.208498"><ele>178.2</ele><time>2011-02-17T11:03:37Z</time></trkpt>
<trkpt lat="42.252578" lon="3.208662"><ele>177.5</ele><time>2011-02-17T11:03:42Z</time></trkpt>
<trkpt lat="42.252823" lon="3.208878"><ele>176.4</ele><time>2011-02-17T11:03:47Z</time></trkpt>
<trkpt lat="42.253055" lon="3.208745"><ele>176.3</ele><time>2011-02-17T11:03:52Z</time></trkpt>
<trkpt lat="42.253227" lon="3.208460"><ele>177</ele><time>2011-02-17T11:03:57Z</time></trkpt>
<trkpt lat="42.253365" lon="3.208130"><ele>177.2</ele><time>2011-02-17T11:04:02Z</time></trkpt>
<trkpt lat="42.253357" lon="3.207737"><ele>177</ele><time>2011-02-17T11:04:07Z</time></trkpt>
<trkpt lat="42.253422" lon="3.207322"><ele>175.7</ele><time>2011-02-17T11:04:12Z</time></trkpt>
<trkpt lat="42.253558" lon="3.206902"><ele>173.6</ele><time>2011-02-17T11:04:17Z</time></trkpt>
<trkpt lat="42.253662" lon="3.206552"><ele>171.4</ele><time>2011-02-17T11:04:22Z</time></trkpt>
<trkpt lat="42.253723" lon="3.206257"><ele>169.5</ele><time>2011-02-17T11:04:27Z</time></trkpt>
<trkpt lat="42.253792" lon="3.206127"><ele>168.8</ele><time>2011-02-17T11:04:32Z</time></trkpt>
<trkpt lat="42.253857" lon="3.206168"><ele>169.9</ele><time>2011-02-17T11:04:37Z</time></trkpt>
<trkpt lat="42.253925" lon="3.206222"><ele>171.2</ele><time>2011-02-17T11:04:42Z</time></trkpt>
<trkpt lat="42.253998" lon="3.206275"><ele>172.5</ele><time>2011-02-17T11:04:47Z</time></trkpt>
<trkpt lat="42.254073" lon="3.206315"><ele>173.7</ele><time>2011-02-17T11:04:52Z</time></trkpt>
<trkpt lat="42.254155" lon="3.206345"><ele>174.9</ele><time>2011-02-17T11:04:57Z</time></trkpt>
<trkpt lat="42.254230" lon="3.206373"><ele>176.1</ele><time>2011-02-17T11:05:02Z</time></trkpt>
<trkpt lat="42.254310" lon="3.206402"><ele>177.2</ele><time>2011-02-17T11:05:07Z</time></trkpt>
<trkpt lat="42.254387" lon="3.206433"><ele>178.2</ele><time>2011-02-17T11:05:12Z</time></trkpt>
<trkpt lat="42.254463" lon="3.206475"><ele>179.2</ele><time>2011-02-17T11:05:17Z</time></trkpt>
<trkpt lat="42.254540" lon="3.206522"><ele>180.1</ele><time>2011-02-17T11:05:22Z</time></trkpt>
<trkpt lat="42.254612" lon="3.206582"><ele>180.8</ele><time>2011-02-17T11:05:27Z</time></trkpt>
<trkpt lat="42.254673" lon="3.206655"><ele>181.6</ele><time>2011-02-17T11:05:32Z</time></trkpt>
<trkpt lat="42.254697" lon="3.206755"><ele>182</ele><time>2011-02-17T11:05:37Z</time></trkpt>
<trkpt lat="42.254677" lon="3.206855"><ele>182.4</ele><time>2011-02-17T11:05:42Z</time></trkpt>
<trkpt lat="42.254638" lon="3.206960"><ele>182.9</ele><time>2011-02-17T11:05:47Z</time></trkpt>
<trkpt lat="42.254597" lon="3.207060"><ele>183.5</ele><time>2011-02-17T11:05:52Z</time></trkpt>
<trkpt lat="42.254562" lon="3.207177"><ele>184.1</ele><time>2011-02-17T11:05:57Z</time></trkpt>
<trkpt lat="42.254525" lon="3.207295"><ele>184.9</ele><time>2011-02-17T11:06:02Z</time></trkpt>
<trkpt lat="42.254487" lon="3.207415"><ele>185.8</ele><time>2011-02-17T11:06:07Z</time></trkpt>
<trkpt lat="42.254452" lon="3.207535"><ele>186.7</ele><time>2011-02-17T11:06:12Z</time></trkpt>
<trkpt lat="42.254422" lon="3.207658"><ele>187.5</ele><time>2011-02-17T11:06:17Z</time></trkpt>
<trkpt lat="42.254383" lon="3.207775"><ele>188.7</ele><time>2011-02-17T11:06:22Z</time></trkpt>
<trkpt lat="42.254342" lon="3.207883"><ele>189.8</ele><time>2011-02-17T11:06:27Z</time></trkpt>
<trkpt lat="42.254303" lon="3.207990"><ele>190.8</ele><time>2011-02-17T11:06:32Z</time></trkpt>
<trkpt lat="42.254262" lon="3.208088"><ele>191.8</ele><time>2011-02-17T11:06:37Z</time></trkpt>
<trkpt lat="42.254223" lon="3.208188"><ele>192.8</ele><time>2011-02-17T11:06:42Z</time></trkpt>
<trkpt lat="42.254185" lon="3.208285"><ele>193.6</ele><time>2011-02-17T11:06:47Z</time></trkpt>
<trkpt lat="42.254135" lon="3.208382"><ele>194.4</ele><time>2011-02-17T11:06:52Z</time></trkpt>
<trkpt lat="42.254090" lon="3.208475"><ele>195.3</ele><time>2011-02-17T11:06:57Z</time></trkpt>
<trkpt lat="42.254040" lon="3.208568"><ele>196.1</ele><time>2011-02-17T11:07:02Z</time></trkpt>
<trkpt lat="42.253993" lon="3.208660"><ele>197.1</ele><time>2011-02-17T11:07:07Z</time></trkpt>
<trkpt lat="42.253937" lon="3.208745"><ele>197.9</ele><time>2011-02-17T11:07:12Z</time></trkpt>
<trkpt lat="42.253880" lon="3.208827"><ele>198.7</ele><time>2011-02-17T11:07:17Z</time></trkpt>
<trkpt lat="42.253827" lon="3.208913"><ele>199.5</ele><time>2011-02-17T11:07:22Z</time></trkpt>
<trkpt lat="42.253768" lon="3.208998"><ele>200.4</ele><time>2011-02-17T11:07:27Z</time></trkpt>
<trkpt lat="42.253712" lon="3.209085"><ele>201.4</ele><time>2011-02-17T11:07:32Z</time></trkpt>
<trkpt lat="42.253658" lon="3.209175"><ele>202.4</ele><time>2011-02-17T11:07:37Z</time></trkpt>
<trkpt lat="42.253608" lon="3.209275"><ele>203.3</ele><time>2011-02-17T11:07:42Z</time></trkpt>
<trkpt lat="42.253578" lon="3.209388"><ele>203.7</ele><time>2011-02-17T11:07:47Z</time></trkpt>
<trkpt lat="42.253537" lon="3.209502"><ele>204</ele><time>2011-02-17T11:07:52Z</time></trkpt>
<trkpt lat="42.253505" lon="3.209617"><ele>204.4</ele><time>2011-02-17T11:07:57Z</time></trkpt>
<trkpt lat="42.253472" lon="3.209735"><ele>204.7</ele><time>2011-02-17T11:08:02Z</time></trkpt>
<trkpt lat="42.253437" lon="3.209848"><ele>205.3</ele><time>2011-02-17T11:08:07Z</time></trkpt>
<trkpt lat="42.253403" lon="3.209945"><ele>205.9</ele><time>2011-02-17T11:08:12Z</time></trkpt>
<trkpt lat="42.253365" lon="3.210057"><ele>206.6</ele><time>2011-02-17T11:08:17Z</time></trkpt>
<trkpt lat="42.253323" lon="3.210178"><ele>207.3</ele><time>2011-02-17T11:08:22Z</time></trkpt>
<trkpt lat="42.253285" lon="3.210305"><ele>208</ele><time>2011-02-17T11:08:27Z</time></trkpt>
<trkpt lat="42.253262" lon="3.210445"><ele>208.5</ele><time>2011-02-17T11:08:32Z</time></trkpt>
<trkpt lat="42.253273" lon="3.210588"><ele>208.9</ele><time>2011-02-17T11:08:37Z</time></trkpt>
<trkpt lat="42.253365" lon="3.210677"><ele>208.9</ele><time>2011-02-17T11:08:42Z</time></trkpt>
<trkpt lat="42.253472" lon="3.210647"><ele>209.8</ele><time>2011-02-17T11:08:47Z</time></trkpt>
<trkpt lat="42.253513" lon="3.210530"><ele>210.8</ele><time>2011-02-17T11:08:52Z</time></trkpt>
<trkpt lat="42.253495" lon="3.210390"><ele>210.9</ele><time>2011-02-17T11:08:57Z</time></trkpt>
<trkpt lat="42.253495" lon="3.210237"><ele>210.8</ele><time>2011-02-17T11:09:02Z</time></trkpt>
<trkpt lat="42.253540" lon="3.210110"><ele>211.4</ele><time>2011-02-17T11:09:07Z</time></trkpt>
<trkpt lat="42.253613" lon="3.210012"><ele>212.2</ele><time>2011-02-17T11:09:12Z</time></trkpt>
<trkpt lat="42.253688" lon="3.209933"><ele>213.4</ele><time>2011-02-17T11:09:17Z</time></trkpt>
<trkpt lat="42.253757" lon="3.209847"><ele>214.4</ele><time>2011-02-17T11:09:22Z</time></trkpt>
<trkpt lat="42.253830" lon="3.209773"><ele>215.5</ele><time>2011-02-17T11:09:27Z</time></trkpt>
<trkpt lat="42.253892" lon="3.209690"><ele>216.5</ele><time>2011-02-17T11:09:32Z</time></trkpt>
<trkpt lat="42.253957" lon="3.209610"><ele>217.3</ele><time>2011-02-17T11:09:37Z</time></trkpt>
<trkpt lat="42.254028" lon="3.209562"><ele>218.2</ele><time>2011-02-17T11:09:42Z</time></trkpt>
<trkpt lat="42.254108" lon="3.209520"><ele>219.1</ele><time>2011-02-17T11:09:47Z</time></trkpt>
<trkpt lat="42.254192" lon="3.209485"><ele>220</ele><time>2011-02-17T11:09:52Z</time></trkpt>
<trkpt lat="42.254277" lon="3.209453"><ele>220.9</ele><time>2011-02-17T11:09:57Z</time></trkpt>
<trkpt lat="42.254357" lon="3.209422"><ele>221.6</ele><time>2011-02-17T11:10:02Z</time></trkpt>
<trkpt lat="42.254440" lon="3.209390"><ele>222.4</ele><time>2011-02-17T11:10:07Z</time></trkpt>
<trkpt lat="42.254525" lon="3.209348"><ele>223.1</ele><time>2011-02-17T11:10:12Z</time></trkpt>
<trkpt lat="42.254608" lon="3.209308"><ele>223.7</ele><time>2011-02-17T11:10:17Z</time></trkpt>
<trkpt lat="42.254685" lon="3.209270"><ele>224.6</ele><time>2011-02-17T11:10:22Z</time></trkpt>
<trkpt lat="42.254765" lon="3.209232"><ele>225.4</ele><time>2011-02-17T11:10:27Z</time></trkpt>
<trkpt lat="42.254845" lon="3.209188"><ele>226.3</ele><time>2011-02-17T11:10:32Z</time></trkpt>
<trkpt lat="42.254922" lon="3.209143"><ele>227.2</ele><time>2011-02-17T11:10:37Z</time></trkpt>
<trkpt lat="42.255005" lon="3.209103"><ele>228</ele><time>2011-02-17T11:10:42Z</time></trkpt>
<trkpt lat="42.255082" lon="3.209058"><ele>228.8</ele><time>2011-02-17T11:10:47Z</time></trkpt>
<trkpt lat="42.255162" lon="3.209007"><ele>229.6</ele><time>2011-02-17T11:10:52Z</time></trkpt>
<trkpt lat="42.255238" lon="3.208958"><ele>230.4</ele><time>2011-02-17T11:10:57Z</time></trkpt>
<trkpt lat="42.255322" lon="3.208910"><ele>231.3</ele><time>2011-02-17T11:11:02Z</time></trkpt>
<trkpt lat="42.255398" lon="3.208855"><ele>232</ele><time>2011-02-17T11:11:07Z</time></trkpt>
<trkpt lat="42.255463" lon="3.208787"><ele>232.9</ele><time>2011-02-17T11:11:12Z</time></trkpt>
<trkpt lat="42.255527" lon="3.208715"><ele>233.7</ele><time>2011-02-17T11:11:17Z</time></trkpt>
<trkpt lat="42.255592" lon="3.208642"><ele>234.5</ele><time>2011-02-17T11:11:22Z</time></trkpt>
<trkpt lat="42.255657" lon="3.208563"><ele>235.1</ele><time>2011-02-17T11:11:27Z</time></trkpt>
<trkpt lat="42.255722" lon="3.208485"><ele>235.7</ele><time>2011-02-17T11:11:32Z</time></trkpt>
<trkpt lat="42.255787" lon="3.208392"><ele>236.3</ele><time>2011-02-17T11:11:37Z</time></trkpt>
<trkpt lat="42.255855" lon="3.208313"><ele>236.9</ele><time>2011-02-17T11:11:42Z</time></trkpt>
<trkpt lat="42.255928" lon="3.208253"><ele>237.6</ele><time>2011-02-17T11:11:47Z</time></trkpt>
<trkpt lat="42.256008" lon="3.208205"><ele>238.3</ele><time>2011-02-17T11:11:52Z</time></trkpt>
<trkpt lat="42.256092" lon="3.208165"><ele>239</ele><time>2011-02-17T11:11:57Z</time></trkpt>
<trkpt lat="42.256180" lon="3.208130"><ele>239.9</ele><time>2011-02-17T11:12:02Z</time></trkpt>
<trkpt lat="42.256257" lon="3.208088"><ele>240.7</ele><time>2011-02-17T11:12:07Z</time></trkpt>
<trkpt lat="42.256340" lon="3.208043"><ele>241.3</ele><time>2011-02-17T11:12:12Z</time></trkpt>
<trkpt lat="42.256420" lon="3.207998"><ele>242</ele><time>2011-02-17T11:12:17Z</time></trkpt>
<trkpt lat="42.256500" lon="3.207952"><ele>242.7</ele><time>2011-02-17T11:12:22Z</time></trkpt>
<trkpt lat="42.256577" lon="3.207910"><ele>243.5</ele><time>2011-02-17T11:12:27Z</time></trkpt>
<trkpt lat="42.256660" lon="3.207872"><ele>244.4</ele><time>2011-02-17T11:12:32Z</time></trkpt>
<trkpt lat="42.256748" lon="3.207840"><ele>245.2</ele><time>2011-02-17T11:12:37Z</time></trkpt>
<trkpt lat="42.256840" lon="3.207823"><ele>245.6</ele><time>2011-02-17T11:12:42Z</time></trkpt>
<trkpt lat="42.256935" lon="3.207817"><ele>246.2</ele><time>2011-02-17T11:12:47Z</time></trkpt>
<trkpt lat="42.257027" lon="3.207828"><ele>247</ele><time>2011-02-17T11:12:52Z</time></trkpt>
<trkpt lat="42.257118" lon="3.207867"><ele>247</ele><time>2011-02-17T11:12:57Z</time></trkpt>
<trkpt lat="42.257202" lon="3.207897"><ele>247.3</ele><time>2011-02-17T11:13:02Z</time></trkpt>
<trkpt lat="42.257290" lon="3.207933"><ele>247.9</ele><time>2011-02-17T11:13:07Z</time></trkpt>
<trkpt lat="42.257367" lon="3.207973"><ele>248.5</ele><time>2011-02-17T11:13:12Z</time></trkpt>
<trkpt lat="42.257447" lon="3.208013"><ele>249</ele><time>2011-02-17T11:13:17Z</time></trkpt>
<trkpt lat="42.257518" lon="3.208053"><ele>249.7</ele><time>2011-02-17T11:13:22Z</time></trkpt>
<trkpt lat="42.257607" lon="3.208093"><ele>250.2</ele><time>2011-02-17T11:13:27Z</time></trkpt>
<trkpt lat="42.257687" lon="3.208133"><ele>251</ele><time>2011-02-17T11:13:32Z</time></trkpt>
<trkpt lat="42.257775" lon="3.208153"><ele>251.9</ele><time>2011-02-17T11:13:37Z</time></trkpt>
<trkpt lat="42.257858" lon="3.208163"><ele>252.7</ele><time>2011-02-17T11:13:42Z</time></trkpt>
<trkpt lat="42.257947" lon="3.208165"><ele>253.4</ele><time>2011-02-17T11:13:47Z</time></trkpt>
<trkpt lat="42.258033" lon="3.208163"><ele>254.3</ele><time>2011-02-17T11:13:52Z</time></trkpt>
<trkpt lat="42.258122" lon="3.208155"><ele>255</ele><time>2011-02-17T11:13:57Z</time></trkpt>
<trkpt lat="42.258210" lon="3.208145"><ele>255.8</ele><time>2011-02-17T11:14:02Z</time></trkpt>
<trkpt lat="42.258300" lon="3.208133"><ele>256.7</ele><time>2011-02-17T11:14:07Z</time></trkpt>
<trkpt lat="42.258382" lon="3.208113"><ele>257.8</ele><time>2011-02-17T11:14:12Z</time></trkpt>
<trkpt lat="42.258465" lon="3.208085"><ele>258.8</ele><time>2011-02-17T11:14:17Z</time></trkpt>
<trkpt lat="42.258548" lon="3.208047"><ele>259.8</ele><time>2011-02-17T11:14:22Z</time></trkpt>
<trkpt lat="42.258625" lon="3.207997"><ele>260.7</ele><time>2011-02-17T11:14:27Z</time></trkpt>
<trkpt lat="42.258690" lon="3.207937"><ele>261.5</ele><time>2011-02-17T11:14:32Z</time></trkpt>
<trkpt lat="42.258758" lon="3.207870"><ele>262.2</ele><time>2011-02-17T11:14:37Z</time></trkpt>
<trkpt lat="42.258832" lon="3.207813"><ele>263.3</ele><time>2011-02-17T11:14:42Z</time></trkpt>
<trkpt lat="42.258900" lon="3.207755"><ele>264.4</ele><time>2011-02-17T11:14:47Z</time></trkpt>
<trkpt lat="42.258980" lon="3.207703"><ele>265.2</ele><time>2011-02-17T11:14:52Z</time></trkpt>
<trkpt lat="42.259052" lon="3.207638"><ele>266.1</ele><time>2011-02-17T11:14:57Z</time></trkpt>
<trkpt lat="42.259128" lon="3.207575"><ele>266.9</ele><time>2011-02-17T11:15:02Z</time></trkpt>
<trkpt lat="42.259202" lon="3.207512"><ele>267.6</ele><time>2011-02-17T11:15:07Z</time></trkpt>
<trkpt lat="42.259277" lon="3.207455"><ele>268.4</ele><time>2011-02-17T11:15:12Z</time></trkpt>
<trkpt lat="42.259353" lon="3.207397"><ele>269.1</ele><time>2011-02-17T11:15:17Z</time></trkpt>
<trkpt lat="42.259438" lon="3.207348"><ele>269.8</ele><time>2011-02-17T11:15:22Z</time></trkpt>
<trkpt lat="42.259518" lon="3.207312"><ele>270.6</ele><time>2011-02-17T11:15:27Z</time></trkpt>
<trkpt lat="42.259602" lon="3.207267"><ele>271.3</ele><time>2011-02-17T11:15:32Z</time></trkpt>
<trkpt lat="42.259690" lon="3.207242"><ele>271.9</ele><time>2011-02-17T11:15:37Z</time></trkpt>
<trkpt lat="42.259782" lon="3.207225"><ele>272</ele><time>2011-02-17T11:15:42Z</time></trkpt>
<trkpt lat="42.259883" lon="3.207192"><ele>272.5</ele><time>2011-02-17T11:15:47Z</time></trkpt>
<trkpt lat="42.260007" lon="3.207103"><ele>271.8</ele><time>2011-02-17T11:15:52Z</time></trkpt>
<trkpt lat="42.260188" lon="3.206957"><ele>270.8</ele><time>2011-02-17T11:15:57Z</time></trkpt>
<trkpt lat="42.260353" lon="3.206783"><ele>269.8</ele><time>2011-02-17T11:16:02Z</time></trkpt>
<trkpt lat="42.260330" lon="3.206498"><ele>267.8</ele><time>2011-02-17T11:16:07Z</time></trkpt>
<trkpt lat="42.260162" lon="3.206323"><ele>266.3</ele><time>2011-02-17T11:16:12Z</time></trkpt>
<trkpt lat="42.260102" lon="3.206120"><ele>265.9</ele><time>2011-02-17T11:16:17Z</time></trkpt>
<trkpt lat="42.260067" lon="3.205995"><ele>266.1</ele><time>2011-02-17T11:16:22Z</time></trkpt>
<trkpt lat="42.260028" lon="3.205890"><ele>266.5</ele><time>2011-02-17T11:16:27Z</time></trkpt>
<trkpt lat="42.260017" lon="3.205765"><ele>267.4</ele><time>2011-02-17T11:16:32Z</time></trkpt>
<trkpt lat="42.260002" lon="3.205632"><ele>268.2</ele><time>2011-02-17T11:16:37Z</time></trkpt>
<trkpt lat="42.259960" lon="3.205503"><ele>269</ele><time>2011-02-17T11:16:42Z</time></trkpt>
<trkpt lat="42.259910" lon="3.205375"><ele>268.8</ele><time>2011-02-17T11:16:47Z</time></trkpt>
<trkpt lat="42.259872" lon="3.205337"><ele>268.8</ele><time>2011-02-17T11:16:52Z</time></trkpt>
<trkpt lat="42.259872" lon="3.205340"><ele>268.6</ele><time>2011-02-17T11:16:57Z</time></trkpt>
<trkpt lat="42.259868" lon="3.205350"><ele>268.6</ele><time>2011-02-17T11:17:02Z</time></trkpt>
<trkpt lat="42.259880" lon="3.205382"><ele>268.6</ele><time>2011-02-17T11:17:07Z</time></trkpt>
<trkpt lat="42.259877" lon="3.205380"><ele>268.6</ele><time>2011-02-17T11:17:12Z</time></trkpt>
<trkpt lat="42.259877" lon="3.205380"><ele>268.6</ele><time>2011-02-17T11:17:17Z</time></trkpt>
<trkpt lat="42.259877" lon="3.205380"><ele>268.8</ele><time>2011-02-17T11:17:22Z</time></trkpt>
<trkpt lat="42.259877" lon="3.205373"><ele>269</ele><time>2011-02-17T11:17:27Z</time></trkpt>
<trkpt lat="42.259872" lon="3.205365"><ele>269.1</ele><time>2011-02-17T11:17:32Z</time></trkpt>
<trkpt lat="42.259872" lon="3.205362"><ele>269.2</ele><time>2011-02-17T11:17:37Z</time></trkpt>
<trkpt lat="42.259868" lon="3.205365"><ele>268.5</ele><time>2011-02-17T11:17:42Z</time></trkpt>
<trkpt lat="42.259865" lon="3.205368"><ele>267.9</ele><time>2011-02-17T11:17:47Z</time></trkpt>
<trkpt lat="42.259865" lon="3.205367"><ele>267</ele><time>2011-02-17T11:17:52Z</time></trkpt>
<trkpt lat="42.259865" lon="3.205367"><ele>266.6</ele><time>2011-02-17T11:17:57Z</time></trkpt>
<trkpt lat="42.259868" lon="3.205367"><ele>266.6</ele><time>2011-02-17T11:18:02Z</time></trkpt>
<trkpt lat="42.259868" lon="3.205367"><ele>266.6</ele><time>2011-02-17T11:18:07Z</time></trkpt>
<trkpt lat="42.259868" lon="3.205367"><ele>266.5</ele><time>2011-02-17T11:18:12Z</time></trkpt>
<trkpt lat="42.259865" lon="3.205363"><ele>266.6</ele><time>2011-02-17T11:18:17Z</time></trkpt>
<trkpt lat="42.259892" lon="3.205367"><ele>267.7</ele><time>2011-02-17T11:18:22Z</time></trkpt>
<trkpt lat="42.259892" lon="3.205370"><ele>267.6</ele><time>2011-02-17T11:18:27Z</time></trkpt>
<trkpt lat="42.259892" lon="3.205363"><ele>267.4</ele><time>2011-02-17T11:18:32Z</time></trkpt>
<trkpt lat="42.259892" lon="3.205360"><ele>267.4</ele><time>2011-02-17T11:18:37Z</time></trkpt>
<trkpt lat="42.259888" lon="3.205352"><ele>268.1</ele><time>2011-02-17T11:18:42Z</time></trkpt>
<trkpt lat="42.259888" lon="3.205348"><ele>268.6</ele><time>2011-02-17T11:18:47Z</time></trkpt>
<trkpt lat="42.259898" lon="3.205380"><ele>268.3</ele><time>2011-02-17T11:18:52Z</time></trkpt>
<trkpt lat="42.259918" lon="3.205428"><ele>268.6</ele><time>2011-02-17T11:18:57Z</time></trkpt>
<trkpt lat="42.259968" lon="3.205532"><ele>268.1</ele><time>2011-02-17T11:19:02Z</time></trkpt>
<trkpt lat="42.260013" lon="3.205782"><ele>266.5</ele><time>2011-02-17T11:19:07Z</time></trkpt>
<trkpt lat="42.260093" lon="3.206113"><ele>264.7</ele><time>2011-02-17T11:19:12Z</time></trkpt>
<trkpt lat="42.260193" lon="3.206383"><ele>264.4</ele><time>2011-02-17T11:19:17Z</time></trkpt>
<trkpt lat="42.260307" lon="3.206485"><ele>264.7</ele><time>2011-02-17T11:19:22Z</time></trkpt>
<trkpt lat="42.260365" lon="3.206598"><ele>265.4</ele><time>2011-02-17T11:19:27Z</time></trkpt>
<trkpt lat="42.260345" lon="3.206727"><ele>266.1</ele><time>2011-02-17T11:19:32Z</time></trkpt>
<trkpt lat="42.260273" lon="3.206822"><ele>266.8</ele><time>2011-02-17T11:19:37Z</time></trkpt>
<trkpt lat="42.260182" lon="3.206913"><ele>267.2</ele><time>2011-02-17T11:19:42Z</time></trkpt>
<trkpt lat="42.260087" lon="3.206993"><ele>267.7</ele><time>2011-02-17T11:19:47Z</time></trkpt>
<trkpt lat="42.260002" lon="3.207057"><ele>268.4</ele><time>2011-02-17T11:19:52Z</time></trkpt>
<trkpt lat="42.259922" lon="3.207108"><ele>269</ele><time>2011-02-17T11:19:57Z</time></trkpt>
<trkpt lat="42.259880" lon="3.207177"><ele>269.6</ele><time>2011-02-17T11:20:02Z</time></trkpt>
<trkpt lat="42.259957" lon="3.207198"><ele>270.5</ele><time>2011-02-17T11:20:07Z</time></trkpt>
<trkpt lat="42.260037" lon="3.207167"><ele>271.4</ele><time>2011-02-17T11:20:12Z</time></trkpt>
<trkpt lat="42.260125" lon="3.207170"><ele>272.3</ele><time>2011-02-17T11:20:17Z</time></trkpt>
<trkpt lat="42.260215" lon="3.207178"><ele>273.3</ele><time>2011-02-17T11:20:22Z</time></trkpt>
<trkpt lat="42.260303" lon="3.207188"><ele>274.3</ele><time>2011-02-17T11:20:27Z</time></trkpt>
<trkpt lat="42.260395" lon="3.207202"><ele>275.3</ele><time>2011-02-17T11:20:32Z</time></trkpt>
<trkpt lat="42.260483" lon="3.207222"><ele>276.2</ele><time>2011-02-17T11:20:37Z</time></trkpt>
<trkpt lat="42.260575" lon="3.207247"><ele>276.8</ele><time>2011-02-17T11:20:42Z</time></trkpt>
<trkpt lat="42.260662" lon="3.207273"><ele>277.5</ele><time>2011-02-17T11:20:47Z</time></trkpt>
<trkpt lat="42.260750" lon="3.207297"><ele>278.2</ele><time>2011-02-17T11:20:52Z</time></trkpt>
<trkpt lat="42.260842" lon="3.207305"><ele>279</ele><time>2011-02-17T11:20:57Z</time></trkpt>
<trkpt lat="42.260940" lon="3.207283"><ele>279.4</ele><time>2011-02-17T11:21:02Z</time></trkpt>
<trkpt lat="42.261032" lon="3.207248"><ele>280.6</ele><time>2011-02-17T11:21:07Z</time></trkpt>
<trkpt lat="42.261112" lon="3.207205"><ele>281.6</ele><time>2011-02-17T11:21:12Z</time></trkpt>
<trkpt lat="42.261192" lon="3.207160"><ele>282.8</ele><time>2011-02-17T11:21:17Z</time></trkpt>
<trkpt lat="42.261265" lon="3.207108"><ele>284.1</ele><time>2011-02-17T11:21:22Z</time></trkpt>
<trkpt lat="42.261337" lon="3.207055"><ele>285.1</ele><time>2011-02-17T11:21:27Z</time></trkpt>
<trkpt lat="42.261413" lon="3.206998"><ele>286</ele><time>2011-02-17T11:21:32Z</time></trkpt>
<trkpt lat="42.261490" lon="3.206938"><ele>286.8</ele><time>2011-02-17T11:21:37Z</time></trkpt>
<trkpt lat="42.261567" lon="3.206880"><ele>287.7</ele><time>2011-02-17T11:21:42Z</time></trkpt>
<trkpt lat="42.261647" lon="3.206828"><ele>288.8</ele><time>2011-02-17T11:21:47Z</time></trkpt>
<trkpt lat="42.261727" lon="3.206785"><ele>289.7</ele><time>2011-02-17T11:21:52Z</time></trkpt>
<trkpt lat="42.261818" lon="3.206755"><ele>290.6</ele><time>2011-02-17T11:21:57Z</time></trkpt>
<trkpt lat="42.261905" lon="3.206738"><ele>291.2</ele><time>2011-02-17T11:22:02Z</time></trkpt>
<trkpt lat="42.261997" lon="3.206748"><ele>291.8</ele><time>2011-02-17T11:22:07Z</time></trkpt>
<trkpt lat="42.262085" lon="3.206770"><ele>292.3</ele><time>2011-02-17T11:22:12Z</time></trkpt>
<trkpt lat="42.262180" lon="3.206802"><ele>292.4</ele><time>2011-02-17T11:22:17Z</time></trkpt>
<trkpt lat="42.262268" lon="3.206827"><ele>293.3</ele><time>2011-02-17T11:22:22Z</time></trkpt>
<trkpt lat="42.262352" lon="3.206848"><ele>294</ele><time>2011-02-17T11:22:27Z</time></trkpt>
<trkpt lat="42.262437" lon="3.206875"><ele>295</ele><time>2011-02-17T11:22:32Z</time></trkpt>
<trkpt lat="42.262523" lon="3.206910"><ele>295.8</ele><time>2011-02-17T11:22:37Z</time></trkpt>
<trkpt lat="42.262603" lon="3.206977"><ele>295.9</ele><time>2011-02-17T11:22:42Z</time></trkpt>
<trkpt lat="42.262657" lon="3.207080"><ele>295.7</ele><time>2011-02-17T11:22:47Z</time></trkpt>
<trkpt lat="42.262692" lon="3.207210"><ele>295.7</ele><time>2011-02-17T11:22:52Z</time></trkpt>
<trkpt lat="42.262718" lon="3.207353"><ele>295.9</ele><time>2011-02-17T11:22:57Z</time></trkpt>
<trkpt lat="42.262733" lon="3.207498"><ele>296.2</ele><time>2011-02-17T11:23:02Z</time></trkpt>
<trkpt lat="42.262760" lon="3.207633"><ele>297</ele><time>2011-02-17T11:23:07Z</time></trkpt>
<trkpt lat="42.262798" lon="3.207788"><ele>297.1</ele><time>2011-02-17T11:23:12Z</time></trkpt>
<trkpt lat="42.262825" lon="3.207938"><ele>297.7</ele><time>2011-02-17T11:23:17Z</time></trkpt>
<trkpt lat="42.262863" lon="3.208077"><ele>298.3</ele><time>2011-02-17T11:23:22Z</time></trkpt>
<trkpt lat="42.262928" lon="3.208205"><ele>299</ele><time>2011-02-17T11:23:27Z</time></trkpt>
<trkpt lat="42.262997" lon="3.208327"><ele>299.2</ele><time>2011-02-17T11:23:32Z</time></trkpt>
<trkpt lat="42.263080" lon="3.208427"><ele>299.5</ele><time>2011-02-17T11:23:37Z</time></trkpt>
<trkpt lat="42.263172" lon="3.208493"><ele>300.3</ele><time>2011-02-17T11:23:42Z</time></trkpt>
<trkpt lat="42.263257" lon="3.208538"><ele>301.2</ele><time>2011-02-17T11:23:47Z</time></trkpt>
<trkpt lat="42.263340" lon="3.208553"><ele>302.2</ele><time>2011-02-17T11:23:52Z</time></trkpt>
<trkpt lat="42.263440" lon="3.208540"><ele>302.6</ele><time>2011-02-17T11:23:57Z</time></trkpt>
<trkpt lat="42.263520" lon="3.208507"><ele>303.6</ele><time>2011-02-17T11:24:02Z</time></trkpt>
<trkpt lat="42.263612" lon="3.208452"><ele>304.7</ele><time>2011-02-17T11:24:07Z</time></trkpt>
<trkpt lat="42.263683" lon="3.208395"><ele>305.6</ele><time>2011-02-17T11:24:12Z</time></trkpt>
<trkpt lat="42.263767" lon="3.208338"><ele>306.5</ele><time>2011-02-17T11:24:17Z</time></trkpt>
<trkpt lat="42.263855" lon="3.208292"><ele>307.1</ele><time>2011-02-17T11:24:22Z</time></trkpt>
<trkpt lat="42.263950" lon="3.208257"><ele>307.8</ele><time>2011-02-17T11:24:27Z</time></trkpt>
<trkpt lat="42.264042" lon="3.208228"><ele>308.4</ele><time>2011-02-17T11:24:32Z</time></trkpt>
<trkpt lat="42.264142" lon="3.208208"><ele>309.1</ele><time>2011-02-17T11:24:37Z</time></trkpt>
<trkpt lat="42.264233" lon="3.208212"><ele>309.7</ele><time>2011-02-17T11:24:42Z</time></trkpt>
<trkpt lat="42.264308" lon="3.208283"><ele>310.6</ele><time>2011-02-17T11:24:47Z</time></trkpt>
<trkpt lat="42.264355" lon="3.208385"><ele>311.5</ele><time>2011-02-17T11:24:52Z</time></trkpt>
<trkpt lat="42.264355" lon="3.208517"><ele>311.9</ele><time>2011-02-17T11:24:57Z</time></trkpt>
<trkpt lat="42.264355" lon="3.208648"><ele>312.1</ele><time>2011-02-17T11:25:02Z</time></trkpt>
<trkpt lat="42.264358" lon="3.208783"><ele>312.3</ele><time>2011-02-17T11:25:07Z</time></trkpt>
<trkpt lat="42.264352" lon="3.208930"><ele>312.4</ele><time>2011-02-17T11:25:12Z</time></trkpt>
<trkpt lat="42.264352" lon="3.209105"><ele>312.5</ele><time>2011-02-17T11:25:17Z</time></trkpt>
<trkpt lat="42.264355" lon="3.209293"><ele>312.6</ele><time>2011-02-17T11:25:22Z</time></trkpt>
<trkpt lat="42.264358" lon="3.209483"><ele>312.6</ele><time>2011-02-17T11:25:27Z</time></trkpt>
<trkpt lat="42.264352" lon="3.209713"><ele>311.8</ele><time>2011-02-17T11:25:32Z</time></trkpt>
<trkpt lat="42.264332" lon="3.210000"><ele>310.6</ele><time>2011-02-17T11:25:37Z</time></trkpt>
<trkpt lat="42.264287" lon="3.210322"><ele>309.7</ele><time>2011-02-17T11:25:42Z</time></trkpt>
<trkpt lat="42.264180" lon="3.210573"><ele>309.4</ele><time>2011-02-17T11:25:47Z</time></trkpt>
<trkpt lat="42.264107" lon="3.210763"><ele>309.3</ele><time>2011-02-17T11:25:52Z</time></trkpt>
<trkpt lat="42.264092" lon="3.210985"><ele>309.1</ele><time>2011-02-17T11:25:57Z</time></trkpt>
<trkpt lat="42.264107" lon="3.211243"><ele>308.4</ele><time>2011-02-17T11:26:02Z</time></trkpt>
<trkpt lat="42.264118" lon="3.211512"><ele>307.6</ele><time>2011-02-17T11:26:07Z</time></trkpt>
<trkpt lat="42.264133" lon="3.211823"><ele>306.5</ele><time>2011-02-17T11:26:12Z</time></trkpt>
<trkpt lat="42.264142" lon="3.212110"><ele>306.1</ele><time>2011-02-17T11:26:17Z</time></trkpt>
<trkpt lat="42.264133" lon="3.212373"><ele>305.5</ele><time>2011-02-17T11:26:22Z</time></trkpt>
<trkpt lat="42.264175" lon="3.212582"><ele>306.2</ele><time>2011-02-17T11:26:27Z</time></trkpt>
<trkpt lat="42.264217" lon="3.212730"><ele>307.2</ele><time>2011-02-17T11:26:32Z</time></trkpt>
<trkpt lat="42.264263" lon="3.212830"><ele>308.3</ele><time>2011-02-17T11:26:37Z</time></trkpt>
<trkpt lat="42.264305" lon="3.212918"><ele>309</ele><time>2011-02-17T11:26:42Z</time></trkpt>
<trkpt lat="42.264347" lon="3.213002"><ele>309.9</ele><time>2011-02-17T11:26:47Z</time></trkpt>
<trkpt lat="42.264397" lon="3.213078"><ele>310.6</ele><time>2011-02-17T11:26:52Z</time></trkpt>
<trkpt lat="42.264447" lon="3.213152"><ele>311.2</ele><time>2011-02-17T11:26:57Z</time></trkpt>
<trkpt lat="42.264497" lon="3.213222"><ele>311.8</ele><time>2011-02-17T11:27:02Z</time></trkpt>
<trkpt lat="42.264550" lon="3.213288"><ele>312.4</ele><time>2011-02-17T11:27:07Z</time></trkpt>
<trkpt lat="42.264595" lon="3.213353"><ele>313.1</ele><time>2011-02-17T11:27:12Z</time></trkpt>
<trkpt lat="42.264652" lon="3.213412"><ele>313.9</ele><time>2011-02-17T11:27:17Z</time></trkpt>
<trkpt lat="42.264702" lon="3.213477"><ele>314.6</ele><time>2011-02-17T11:27:22Z</time></trkpt>
<trkpt lat="42.264758" lon="3.213540"><ele>315.2</ele><time>2011-02-17T11:27:27Z</time></trkpt>
<trkpt lat="42.264817" lon="3.213597"><ele>315.9</ele><time>2011-02-17T11:27:32Z</time></trkpt>
<trkpt lat="42.264873" lon="3.213648"><ele>316.7</ele><time>2011-02-17T11:27:37Z</time></trkpt>
<trkpt lat="42.264930" lon="3.213707"><ele>317.3</ele><time>2011-02-17T11:27:42Z</time></trkpt>
<trkpt lat="42.264988" lon="3.213757"><ele>318.1</ele><time>2011-02-17T11:27:47Z</time></trkpt>
<trkpt lat="42.265048" lon="3.213812"><ele>318.9</ele><time>2011-02-17T11:27:52Z</time></trkpt>
<trkpt lat="42.265107" lon="3.213867"><ele>319.8</ele><time>2011-02-17T11:27:57Z</time></trkpt>
<trkpt lat="42.265167" lon="3.213920"><ele>320.6</ele><time>2011-02-17T11:28:02Z</time></trkpt>
<trkpt lat="42.265228" lon="3.213980"><ele>321.1</ele><time>2011-02-17T11:28:07Z</time></trkpt>
<trkpt lat="42.265282" lon="3.214038"><ele>321.9</ele><time>2011-02-17T11:28:12Z</time></trkpt>
<trkpt lat="42.265338" lon="3.214095"><ele>323</ele><time>2011-02-17T11:28:17Z</time></trkpt>
<trkpt lat="42.265392" lon="3.214148"><ele>324</ele><time>2011-02-17T11:28:22Z</time></trkpt>
<trkpt lat="42.265445" lon="3.214205"><ele>324.9</ele><time>2011-02-17T11:28:27Z</time></trkpt>
<trkpt lat="42.265503" lon="3.214257"><ele>325.5</ele><time>2011-02-17T11:28:32Z</time></trkpt>
<trkpt lat="42.265568" lon="3.214307"><ele>326</ele><time>2011-02-17T11:28:37Z</time></trkpt>
<trkpt lat="42.265628" lon="3.214357"><ele>326.6</ele><time>2011-02-17T11:28:42Z</time></trkpt>
<trkpt lat="42.265693" lon="3.214393"><ele>327.3</ele><time>2011-02-17T11:28:47Z</time></trkpt>
<trkpt lat="42.265758" lon="3.214427"><ele>328.2</ele><time>2011-02-17T11:28:52Z</time></trkpt>
<trkpt lat="42.265832" lon="3.214435"><ele>329.4</ele><time>2011-02-17T11:28:57Z</time></trkpt>
<trkpt lat="42.265897" lon="3.214420"><ele>330.5</ele><time>2011-02-17T11:29:02Z</time></trkpt>
<trkpt lat="42.265957" lon="3.214387"><ele>332.1</ele><time>2011-02-17T11:29:07Z</time></trkpt>
<trkpt lat="42.266007" lon="3.214343"><ele>334.5</ele><time>2011-02-17T11:29:12Z</time></trkpt>
<trkpt lat="42.266052" lon="3.214287"><ele>337.4</ele><time>2011-02-17T11:29:17Z</time></trkpt>
<trkpt lat="42.266098" lon="3.214213"><ele>336.9</ele><time>2011-02-17T11:29:22Z</time></trkpt>
<trkpt lat="42.266148" lon="3.214152"><ele>338.7</ele><time>2011-02-17T11:29:27Z</time></trkpt>
<trkpt lat="42.266193" lon="3.214087"><ele>340.2</ele><time>2011-02-17T11:29:32Z</time></trkpt>
<trkpt lat="42.266243" lon="3.214017"><ele>340.7</ele><time>2011-02-17T11:29:37Z</time></trkpt>
<trkpt lat="42.266297" lon="3.213945"><ele>339.3</ele><time>2011-02-17T11:29:42Z</time></trkpt>
<trkpt lat="42.266350" lon="3.213875"><ele>338.7</ele><time>2011-02-17T11:29:47Z</time></trkpt>
<trkpt lat="42.266388" lon="3.213802"><ele>339.3</ele><time>2011-02-17T11:29:52Z</time></trkpt>
<trkpt lat="42.266442" lon="3.213748"><ele>340.7</ele><time>2011-02-17T11:29:57Z</time></trkpt>
<trkpt lat="42.266495" lon="3.213718"><ele>342.2</ele><time>2011-02-17T11:30:02Z</time></trkpt>
<trkpt lat="42.266560" lon="3.213700"><ele>343.1</ele><time>2011-02-17T11:30:07Z</time></trkpt>
<trkpt lat="42.266620" lon="3.213742"><ele>343.6</ele><time>2011-02-17T11:30:12Z</time></trkpt>
<trkpt lat="42.266678" lon="3.213797"><ele>343.9</ele><time>2011-02-17T11:30:17Z</time></trkpt>
<trkpt lat="42.266738" lon="3.213852"><ele>344.7</ele><time>2011-02-17T11:30:22Z</time></trkpt>
<trkpt lat="42.266797" lon="3.213903"><ele>345.7</ele><time>2011-02-17T11:30:27Z</time></trkpt>
<trkpt lat="42.266857" lon="3.213968"><ele>345.3</ele><time>2011-02-17T11:30:32Z</time></trkpt>
<trkpt lat="42.266907" lon="3.214032"><ele>345.1</ele><time>2011-02-17T11:30:37Z</time></trkpt>
<trkpt lat="42.266953" lon="3.214097"><ele>344.9</ele><time>2011-02-17T11:30:42Z</time></trkpt>
<trkpt lat="42.267002" lon="3.214158"><ele>345.1</ele><time>2011-02-17T11:30:47Z</time></trkpt>
<trkpt lat="42.267060" lon="3.214218"><ele>345.5</ele><time>2011-02-17T11:30:52Z</time></trkpt>
<trkpt lat="42.267113" lon="3.214280"><ele>346</ele><time>2011-02-17T11:30:57Z</time></trkpt>
<trkpt lat="42.267173" lon="3.214337"><ele>346.8</ele><time>2011-02-17T11:31:02Z</time></trkpt>
<trkpt lat="42.267220" lon="3.214400"><ele>346.9</ele><time>2011-02-17T11:31:07Z</time></trkpt>
<trkpt lat="42.267273" lon="3.214463"><ele>347.9</ele><time>2011-02-17T11:31:12Z</time></trkpt>
<trkpt lat="42.267330" lon="3.214523"><ele>349.2</ele><time>2011-02-17T11:31:17Z</time></trkpt>
<trkpt lat="42.267377" lon="3.214590"><ele>349.6</ele><time>2011-02-17T11:31:22Z</time></trkpt>
<trkpt lat="42.267425" lon="3.214660"><ele>350.2</ele><time>2011-02-17T11:31:27Z</time></trkpt>
<trkpt lat="42.267487" lon="3.214717"><ele>351.6</ele><time>2011-02-17T11:31:32Z</time></trkpt>
<trkpt lat="42.267548" lon="3.214777"><ele>352.8</ele><time>2011-02-17T11:31:37Z</time></trkpt>
<trkpt lat="42.267597" lon="3.214853"><ele>353</ele><time>2011-02-17T11:31:42Z</time></trkpt>
<trkpt lat="42.267647" lon="3.214922"><ele>353.5</ele><time>2011-02-17T11:31:47Z</time></trkpt>
<trkpt lat="42.267715" lon="3.214978"><ele>356</ele><time>2011-02-17T11:31:52Z</time></trkpt>
<trkpt lat="42.267757" lon="3.215052"><ele>356.9</ele><time>2011-02-17T11:31:57Z</time></trkpt>
<trkpt lat="42.267795" lon="3.215130"><ele>357.9</ele><time>2011-02-17T11:32:02Z</time></trkpt>
<trkpt lat="42.267830" lon="3.215212"><ele>358.6</ele><time>2011-02-17T11:32:07Z</time></trkpt>
<trkpt lat="42.267865" lon="3.215298"><ele>359.5</ele><time>2011-02-17T11:32:12Z</time></trkpt>
<trkpt lat="42.267918" lon="3.215367"><ele>360.1</ele><time>2011-02-17T11:32:17Z</time></trkpt>
<trkpt lat="42.267987" lon="3.215422"><ele>360.5</ele><time>2011-02-17T11:32:22Z</time></trkpt>
<trkpt lat="42.268058" lon="3.215467"><ele>361.1</ele><time>2011-02-17T11:32:27Z</time></trkpt>
<trkpt lat="42.268135" lon="3.215495"><ele>361.7</ele><time>2011-02-17T11:32:32Z</time></trkpt>
<trkpt lat="42.268218" lon="3.215512"><ele>362.2</ele><time>2011-02-17T11:32:37Z</time></trkpt>
<trkpt lat="42.268298" lon="3.215522"><ele>363.1</ele><time>2011-02-17T11:32:42Z</time></trkpt>
<trkpt lat="42.268372" lon="3.215540"><ele>364</ele><time>2011-02-17T11:32:47Z</time></trkpt>
<trkpt lat="42.268443" lon="3.215555"><ele>364.9</ele><time>2011-02-17T11:32:52Z</time></trkpt>
<trkpt lat="42.268525" lon="3.215552"><ele>365.6</ele><time>2011-02-17T11:32:57Z</time></trkpt>
<trkpt lat="42.268600" lon="3.215568"><ele>366.5</ele><time>2011-02-17T11:33:02Z</time></trkpt>
<trkpt lat="42.268668" lon="3.215592"><ele>367.1</ele><time>2011-02-17T11:33:07Z</time></trkpt>
<trkpt lat="42.268742" lon="3.215620"><ele>367.9</ele><time>2011-02-17T11:33:12Z</time></trkpt>
<trkpt lat="42.268813" lon="3.215662"><ele>368.6</ele><time>2011-02-17T11:33:17Z</time></trkpt>
<trkpt lat="42.268890" lon="3.215718"><ele>369</ele><time>2011-02-17T11:33:22Z</time></trkpt>
<trkpt lat="42.268952" lon="3.215785"><ele>369.1</ele><time>2011-02-17T11:33:27Z</time></trkpt>
<trkpt lat="42.269005" lon="3.215860"><ele>369.3</ele><time>2011-02-17T11:33:32Z</time></trkpt>
<trkpt lat="42.269050" lon="3.215943"><ele>369.3</ele><time>2011-02-17T11:33:37Z</time></trkpt>
<trkpt lat="42.269085" lon="3.216023"><ele>369.4</ele><time>2011-02-17T11:33:42Z</time></trkpt>
<trkpt lat="42.269100" lon="3.216090"><ele>369.6</ele><time>2011-02-17T11:33:47Z</time></trkpt>
<trkpt lat="42.269135" lon="3.216168"><ele>370</ele><time>2011-02-17T11:33:52Z</time></trkpt>
<trkpt lat="42.269180" lon="3.216250"><ele>370.5</ele><time>2011-02-17T11:33:57Z</time></trkpt>
<trkpt lat="42.269222" lon="3.216335"><ele>371.1</ele><time>2011-02-17T11:34:02Z</time></trkpt>
<trkpt lat="42.269265" lon="3.216422"><ele>371.9</ele><time>2011-02-17T11:34:07Z</time></trkpt>
<trkpt lat="42.269313" lon="3.216498"><ele>372.6</ele><time>2011-02-17T11:34:12Z</time></trkpt>
<trkpt lat="42.269345" lon="3.216587"><ele>373.6</ele><time>2011-02-17T11:34:17Z</time></trkpt>
<trkpt lat="42.269402" lon="3.216663"><ele>374.4</ele><time>2011-02-17T11:34:22Z</time></trkpt>
<trkpt lat="42.269443" lon="3.216747"><ele>375.3</ele><time>2011-02-17T11:34:27Z</time></trkpt>
<trkpt lat="42.269482" lon="3.216828"><ele>376.2</ele><time>2011-02-17T11:34:32Z</time></trkpt>
<trkpt lat="42.269523" lon="3.216910"><ele>377</ele><time>2011-02-17T11:34:37Z</time></trkpt>
<trkpt lat="42.269562" lon="3.216997"><ele>377.9</ele><time>2011-02-17T11:34:42Z</time></trkpt>
<trkpt lat="42.269608" lon="3.217093"><ele>378.5</ele><time>2011-02-17T11:34:47Z</time></trkpt>
<trkpt lat="42.269645" lon="3.217183"><ele>379.5</ele><time>2011-02-17T11:34:52Z</time></trkpt>
<trkpt lat="42.269677" lon="3.217275"><ele>380.5</ele><time>2011-02-17T11:34:57Z</time></trkpt>
<trkpt lat="42.269698" lon="3.217365"><ele>381.2</ele><time>2011-02-17T11:35:02Z</time></trkpt>
<trkpt lat="42.269718" lon="3.217458"><ele>382.1</ele><time>2011-02-17T11:35:07Z</time></trkpt>
<trkpt lat="42.269737" lon="3.217557"><ele>383</ele><time>2011-02-17T11:35:12Z</time></trkpt>
<trkpt lat="42.269760" lon="3.217657"><ele>383.9</ele><time>2011-02-17T11:35:17Z</time></trkpt>
<trkpt lat="42.269775" lon="3.217758"><ele>384.7</ele><time>2011-02-17T11:35:22Z</time></trkpt>
<trkpt lat="42.269795" lon="3.217858"><ele>385.6</ele><time>2011-02-17T11:35:27Z</time></trkpt>
<trkpt lat="42.269813" lon="3.217962"><ele>386.3</ele><time>2011-02-17T11:35:32Z</time></trkpt>
<trkpt lat="42.269840" lon="3.218077"><ele>387</ele><time>2011-02-17T11:35:37Z</time></trkpt>
<trkpt lat="42.269855" lon="3.218190"><ele>387.6</ele><time>2011-02-17T11:35:42Z</time></trkpt>
<trkpt lat="42.269870" lon="3.218298"><ele>388.2</ele><time>2011-02-17T11:35:47Z</time></trkpt>
<trkpt lat="42.269887" lon="3.218405"><ele>388.9</ele><time>2011-02-17T11:35:52Z</time></trkpt>
<trkpt lat="42.269893" lon="3.218512"><ele>389.5</ele><time>2011-02-17T11:35:57Z</time></trkpt>
<trkpt lat="42.269893" lon="3.218625"><ele>390.1</ele><time>2011-02-17T11:36:02Z</time></trkpt>
<trkpt lat="42.269905" lon="3.218735"><ele>390.7</ele><time>2011-02-17T11:36:07Z</time></trkpt>
<trkpt lat="42.269920" lon="3.218837"><ele>391.3</ele><time>2011-02-17T11:36:12Z</time></trkpt>
<trkpt lat="42.269935" lon="3.218942"><ele>392.2</ele><time>2011-02-17T11:36:17Z</time></trkpt>
<trkpt lat="42.269955" lon="3.219047"><ele>393</ele><time>2011-02-17T11:36:22Z</time></trkpt>
<trkpt lat="42.270000" lon="3.219153"><ele>393.5</ele><time>2011-02-17T11:36:27Z</time></trkpt>
<trkpt lat="42.270053" lon="3.219235"><ele>394.2</ele><time>2011-02-17T11:36:32Z</time></trkpt>
<trkpt lat="42.270127" lon="3.219283"><ele>394.6</ele><time>2011-02-17T11:36:37Z</time></trkpt>
<trkpt lat="42.270195" lon="3.219325"><ele>395.1</ele><time>2011-02-17T11:36:42Z</time></trkpt>
<trkpt lat="42.270275" lon="3.219355"><ele>395.8</ele><time>2011-02-17T11:36:47Z</time></trkpt>
<trkpt lat="42.270305" lon="3.219383"><ele>396.2</ele><time>2011-02-17T11:36:52Z</time></trkpt>
<trkpt lat="42.270310" lon="3.219392"><ele>396.3</ele><time>2011-02-17T11:36:57Z</time></trkpt>
<trkpt lat="42.270310" lon="3.219400"><ele>396</ele><time>2011-02-17T11:37:02Z</time></trkpt>
<trkpt lat="42.270305" lon="3.219408"><ele>396.6</ele><time>2011-02-17T11:37:07Z</time></trkpt>
<trkpt lat="42.270305" lon="3.219413"><ele>396.6</ele><time>2011-02-17T11:37:12Z</time></trkpt>
<trkpt lat="42.270305" lon="3.219420"><ele>396</ele><time>2011-02-17T11:37:17Z</time></trkpt>
<trkpt lat="42.270317" lon="3.219435"><ele>394.5</ele><time>2011-02-17T11:37:22Z</time></trkpt>
<trkpt lat="42.270317" lon="3.219427"><ele>394.7</ele><time>2011-02-17T11:37:27Z</time></trkpt>
<trkpt lat="42.270328" lon="3.219423"><ele>395.6</ele><time>2011-02-17T11:37:32Z</time></trkpt>
<trkpt lat="42.270402" lon="3.219407"><ele>396.6</ele><time>2011-02-17T11:37:37Z</time></trkpt>
<trkpt lat="42.270488" lon="3.219392"><ele>397.5</ele><time>2011-02-17T11:37:42Z</time></trkpt>
<trkpt lat="42.270565" lon="3.219368"><ele>398.7</ele><time>2011-02-17T11:37:47Z</time></trkpt>
<trkpt lat="42.270648" lon="3.219338"><ele>399.8</ele><time>2011-02-17T11:37:52Z</time></trkpt>
<trkpt lat="42.270722" lon="3.219300"><ele>400.9</ele><time>2011-02-17T11:37:57Z</time></trkpt>
<trkpt lat="42.270802" lon="3.219255"><ele>402</ele><time>2011-02-17T11:38:02Z</time></trkpt>
<trkpt lat="42.270878" lon="3.219210"><ele>403.2</ele><time>2011-02-17T11:38:07Z</time></trkpt>
<trkpt lat="42.270950" lon="3.219157"><ele>404.6</ele><time>2011-02-17T11:38:12Z</time></trkpt>
<trkpt lat="42.271015" lon="3.219088"><ele>406.8</ele><time>2011-02-17T11:38:17Z</time></trkpt>
<trkpt lat="42.271080" lon="3.219023"><ele>408.8</ele><time>2011-02-17T11:38:22Z</time></trkpt>
<trkpt lat="42.271145" lon="3.218955"><ele>410.4</ele><time>2011-02-17T11:38:27Z</time></trkpt>
<trkpt lat="42.271210" lon="3.218885"><ele>412.2</ele><time>2011-02-17T11:38:32Z</time></trkpt>
<trkpt lat="42.271275" lon="3.218820"><ele>413.7</ele><time>2011-02-17T11:38:37Z</time></trkpt>
<trkpt lat="42.271340" lon="3.218755"><ele>415.2</ele><time>2011-02-17T11:38:42Z</time></trkpt>
<trkpt lat="42.271405" lon="3.218690"><ele>416.7</ele><time>2011-02-17T11:38:47Z</time></trkpt>
<trkpt lat="42.271468" lon="3.218625"><ele>417.9</ele><time>2011-02-17T11:38:52Z</time></trkpt>
<trkpt lat="42.271542" lon="3.218558"><ele>419</ele><time>2011-02-17T11:38:57Z</time></trkpt>
<trkpt lat="42.271610" lon="3.218490"><ele>420.2</ele><time>2011-02-17T11:39:02Z</time></trkpt>
<trkpt lat="42.271683" lon="3.218422"><ele>421.3</ele><time>2011-02-17T11:39:07Z</time></trkpt>
<trkpt lat="42.271755" lon="3.218340"><ele>421.9</ele><time>2011-02-17T11:39:12Z</time></trkpt>
<trkpt lat="42.271823" lon="3.218268"><ele>422.8</ele><time>2011-02-17T11:39:17Z</time></trkpt>
<trkpt lat="42.271893" lon="3.218202"><ele>423.3</ele><time>2011-02-17T11:39:22Z</time></trkpt>
<trkpt lat="42.271965" lon="3.218130"><ele>423.7</ele><time>2011-02-17T11:39:27Z</time></trkpt>
<trkpt lat="42.272042" lon="3.218060"><ele>424.1</ele><time>2011-02-17T11:39:32Z</time></trkpt>
<trkpt lat="42.272118" lon="3.217997"><ele>424.2</ele><time>2011-02-17T11:39:37Z</time></trkpt>
<trkpt lat="42.272190" lon="3.217933"><ele>424.4</ele><time>2011-02-17T11:39:42Z</time></trkpt>
<trkpt lat="42.272273" lon="3.217885"><ele>424.8</ele><time>2011-02-17T11:39:47Z</time></trkpt>
<trkpt lat="42.272373" lon="3.217860"><ele>422.3</ele><time>2011-02-17T11:39:52Z</time></trkpt>
<trkpt lat="42.272468" lon="3.217877"><ele>420.4</ele><time>2011-02-17T11:39:57Z</time></trkpt>
<trkpt lat="42.272557" lon="3.217935"><ele>420.1</ele><time>2011-02-17T11:40:02Z</time></trkpt>
<trkpt lat="42.272648" lon="3.218002"><ele>419.1</ele><time>2011-02-17T11:40:07Z</time></trkpt>
<trkpt lat="42.272752" lon="3.218057"><ele>418.3</ele><time>2011-02-17T11:40:12Z</time></trkpt>
<trkpt lat="42.272842" lon="3.218122"><ele>418.2</ele><time>2011-02-17T11:40:17Z</time></trkpt>
<trkpt lat="42.272938" lon="3.218183"><ele>418.1</ele><time>2011-02-17T11:40:22Z</time></trkpt>
<trkpt lat="42.273022" lon="3.218250"><ele>418.2</ele><time>2011-02-17T11:40:27Z</time></trkpt>
<trkpt lat="42.273087" lon="3.218335"><ele>418.8</ele><time>2011-02-17T11:40:32Z</time></trkpt>
<trkpt lat="42.273152" lon="3.218425"><ele>419.5</ele><time>2011-02-17T11:40:37Z</time></trkpt>
<trkpt lat="42.273208" lon="3.218522"><ele>420.2</ele><time>2011-02-17T11:40:42Z</time></trkpt>
<trkpt lat="42.273262" lon="3.218622"><ele>420.9</ele><time>2011-02-17T11:40:47Z</time></trkpt>
<trkpt lat="42.273303" lon="3.218728"><ele>421.9</ele><time>2011-02-17T11:40:52Z</time></trkpt>
<trkpt lat="42.273342" lon="3.218837"><ele>423.1</ele><time>2011-02-17T11:40:57Z</time></trkpt>
<trkpt lat="42.273368" lon="3.218943"><ele>424.3</ele><time>2011-02-17T11:41:02Z</time></trkpt>
<trkpt lat="42.273395" lon="3.219060"><ele>425.2</ele><time>2011-02-17T11:41:07Z</time></trkpt>
<trkpt lat="42.273427" lon="3.219170"><ele>426.2</ele><time>2011-02-17T11:41:12Z</time></trkpt>
<trkpt lat="42.273442" lon="3.219285"><ele>426.9</ele><time>2011-02-17T11:41:17Z</time></trkpt>
<trkpt lat="42.273453" lon="3.219400"><ele>427.9</ele><time>2011-02-17T11:41:22Z</time></trkpt>
<trkpt lat="42.273460" lon="3.219513"><ele>428.9</ele><time>2011-02-17T11:41:27Z</time></trkpt>
<trkpt lat="42.273460" lon="3.219628"><ele>429.9</ele><time>2011-02-17T11:41:32Z</time></trkpt>
<trkpt lat="42.273460" lon="3.219745"><ele>430.7</ele><time>2011-02-17T11:41:37Z</time></trkpt>
<trkpt lat="42.273445" lon="3.219858"><ele>431.6</ele><time>2011-02-17T11:41:42Z</time></trkpt>
<trkpt lat="42.273430" lon="3.219977"><ele>432.4</ele><time>2011-02-17T11:41:47Z</time></trkpt>
<trkpt lat="42.273407" lon="3.220088"><ele>433.1</ele><time>2011-02-17T11:41:52Z</time></trkpt>
<trkpt lat="42.273377" lon="3.220203"><ele>433.5</ele><time>2011-02-17T11:41:57Z</time></trkpt>
<trkpt lat="42.273335" lon="3.220310"><ele>434</ele><time>2011-02-17T11:42:02Z</time></trkpt>
<trkpt lat="42.273293" lon="3.220412"><ele>434.5</ele><time>2011-02-17T11:42:07Z</time></trkpt>
<trkpt lat="42.273238" lon="3.220510"><ele>435</ele><time>2011-02-17T11:42:12Z</time></trkpt>
<trkpt lat="42.273185" lon="3.220608"><ele>435.7</ele><time>2011-02-17T11:42:17Z</time></trkpt>
<trkpt lat="42.273128" lon="3.220708"><ele>436.6</ele><time>2011-02-17T11:42:22Z</time></trkpt>
<trkpt lat="42.273067" lon="3.220810"><ele>437.6</ele><time>2011-02-17T11:42:27Z</time></trkpt>
<trkpt lat="42.273003" lon="3.220917"><ele>438.5</ele><time>2011-02-17T11:42:32Z</time></trkpt>
<trkpt lat="42.272938" lon="3.221027"><ele>439.1</ele><time>2011-02-17T11:42:37Z</time></trkpt>
<trkpt lat="42.272877" lon="3.221137"><ele>439.4</ele><time>2011-02-17T11:42:42Z</time></trkpt>
<trkpt lat="42.272808" lon="3.221250"><ele>439.8</ele><time>2011-02-17T11:42:47Z</time></trkpt>
<trkpt lat="42.272747" lon="3.221375"><ele>440.3</ele><time>2011-02-17T11:42:52Z</time></trkpt>
<trkpt lat="42.272687" lon="3.221493"><ele>440.9</ele><time>2011-02-17T11:42:57Z</time></trkpt>
<trkpt lat="42.272613" lon="3.221620"><ele>441</ele><time>2011-02-17T11:43:02Z</time></trkpt>
<trkpt lat="42.272533" lon="3.221757"><ele>441.7</ele><time>2011-02-17T11:43:07Z</time></trkpt>
<trkpt lat="42.272442" lon="3.221888"><ele>442.4</ele><time>2011-02-17T11:43:12Z</time></trkpt>
<trkpt lat="42.272347" lon="3.222002"><ele>443.3</ele><time>2011-02-17T11:43:17Z</time></trkpt>
<trkpt lat="42.272252" lon="3.222103"><ele>444.4</ele><time>2011-02-17T11:43:22Z</time></trkpt>
<trkpt lat="42.272160" lon="3.222205"><ele>445.4</ele><time>2011-02-17T11:43:27Z</time></trkpt>
<trkpt lat="42.272072" lon="3.222325"><ele>446.2</ele><time>2011-02-17T11:43:32Z</time></trkpt>
<trkpt lat="42.271992" lon="3.222467"><ele>446.4</ele><time>2011-02-17T11:43:37Z</time></trkpt>
<trkpt lat="42.271930" lon="3.222630"><ele>446.6</ele><time>2011-02-17T11:43:42Z</time></trkpt>
<trkpt lat="42.271893" lon="3.222808"><ele>446.6</ele><time>2011-02-17T11:43:47Z</time></trkpt>
<trkpt lat="42.271897" lon="3.223000"><ele>446.5</ele><time>2011-02-17T11:43:52Z</time></trkpt>
<trkpt lat="42.271920" lon="3.223195"><ele>445.9</ele><time>2011-02-17T11:43:57Z</time></trkpt>
<trkpt lat="42.271957" lon="3.223458"><ele>444.3</ele><time>2011-02-17T11:44:02Z</time></trkpt>
<trkpt lat="42.271983" lon="3.223852"><ele>441.3</ele><time>2011-02-17T11:44:07Z</time></trkpt>
<trkpt lat="42.271915" lon="3.224367"><ele>437</ele><time>2011-02-17T11:44:12Z</time></trkpt>
<trkpt lat="42.271873" lon="3.224917"><ele>432.9</ele><time>2011-02-17T11:44:17Z</time></trkpt>
<trkpt lat="42.272080" lon="3.225360"><ele>429.6</ele><time>2011-02-17T11:44:22Z</time></trkpt>
<trkpt lat="42.272445" lon="3.225640"><ele>425.8</ele><time>2011-02-17T11:44:27Z</time></trkpt>
<trkpt lat="42.272868" lon="3.225867"><ele>421.9</ele><time>2011-02-17T11:44:32Z</time></trkpt>
<trkpt lat="42.273285" lon="3.226122"><ele>418.8</ele><time>2011-02-17T11:44:37Z</time></trkpt>
<trkpt lat="42.273685" lon="3.226418"><ele>415.6</ele><time>2011-02-17T11:44:42Z</time></trkpt>
<trkpt lat="42.274078" lon="3.226710"><ele>411.9</ele><time>2011-02-17T11:44:47Z</time></trkpt>
<trkpt lat="42.274448" lon="3.227017"><ele>408.9</ele><time>2011-02-17T11:44:52Z</time></trkpt>
<trkpt lat="42.274697" lon="3.227412"><ele>406.4</ele><time>2011-02-17T11:44:57Z</time></trkpt>
<trkpt lat="42.274940" lon="3.227828"><ele>403</ele><time>2011-02-17T11:45:02Z</time></trkpt>
<trkpt lat="42.275215" lon="3.228208"><ele>398.5</ele><time>2011-02-17T11:45:07Z</time></trkpt>
<trkpt lat="42.275513" lon="3.228557"><ele>394.6</ele><time>2011-02-17T11:45:12Z</time></trkpt>
<trkpt lat="42.275822" lon="3.228745"><ele>392.6</ele><time>2011-02-17T11:45:17Z</time></trkpt>
<trkpt lat="42.276142" lon="3.228828"><ele>391</ele><time>2011-02-17T11:45:22Z</time></trkpt>
<trkpt lat="42.276485" lon="3.228860"><ele>388.5</ele><time>2011-02-17T11:45:27Z</time></trkpt>
<trkpt lat="42.276882" lon="3.228857"><ele>385.2</ele><time>2011-02-17T11:45:32Z</time></trkpt>
<trkpt lat="42.277112" lon="3.228517"><ele>383.7</ele><time>2011-02-17T11:45:37Z</time></trkpt>
<trkpt lat="42.277283" lon="3.228108"><ele>381</ele><time>2011-02-17T11:45:42Z</time></trkpt>
<trkpt lat="42.277508" lon="3.227808"><ele>378.2</ele><time>2011-02-17T11:45:47Z</time></trkpt>
<trkpt lat="42.277825" lon="3.227467"><ele>374.4</ele><time>2011-02-17T11:45:52Z</time></trkpt>
<trkpt lat="42.278080" lon="3.227210"><ele>372</ele><time>2011-02-17T11:45:57Z</time></trkpt>
<trkpt lat="42.278255" lon="3.226950"><ele>369.9</ele><time>2011-02-17T11:46:02Z</time></trkpt>
<trkpt lat="42.278480" lon="3.226638"><ele>367.7</ele><time>2011-02-17T11:46:07Z</time></trkpt>
<trkpt lat="42.278722" lon="3.226267"><ele>365.6</ele><time>2011-02-17T11:46:12Z</time></trkpt>
<trkpt lat="42.278968" lon="3.225858"><ele>363.1</ele><time>2011-02-17T11:46:17Z</time></trkpt>
<trkpt lat="42.279228" lon="3.225430"><ele>360.2</ele><time>2011-02-17T11:46:22Z</time></trkpt>
<trkpt lat="42.279442" lon="3.224920"><ele>357.1</ele><time>2011-02-17T11:46:27Z</time></trkpt>
<trkpt lat="42.279643" lon="3.224368"><ele>353.8</ele><time>2011-02-17T11:46:32Z</time></trkpt>
<trkpt lat="42.279987" lon="3.223935"><ele>350.8</ele><time>2011-02-17T11:46:37Z</time></trkpt>
<trkpt lat="42.280320" lon="3.223535"><ele>349.2</ele><time>2011-02-17T11:46:42Z</time></trkpt>
<trkpt lat="42.280567" lon="3.223253"><ele>348.6</ele><time>2011-02-17T11:46:47Z</time></trkpt>
<trkpt lat="42.280598" lon="3.223207"><ele>348.8</ele><time>2011-02-17T11:46:52Z</time></trkpt>
<trkpt lat="42.280598" lon="3.223210"><ele>349.3</ele><time>2011-02-17T11:46:57Z</time></trkpt>
<trkpt lat="42.280593" lon="3.223215"><ele>349.5</ele><time>2011-02-17T11:47:02Z</time></trkpt>
<trkpt lat="42.280590" lon="3.223217"><ele>349.6</ele><time>2011-02-17T11:47:07Z</time></trkpt>
<trkpt lat="42.280587" lon="3.223218"><ele>349.7</ele><time>2011-02-17T11:47:12Z</time></trkpt>
<trkpt lat="42.280582" lon="3.223220"><ele>350.2</ele><time>2011-02-17T11:47:17Z</time></trkpt>
<trkpt lat="42.280608" lon="3.223185"><ele>350.1</ele><time>2011-02-17T11:47:22Z</time></trkpt>
<trkpt lat="42.280708" lon="3.223073"><ele>350.1</ele><time>2011-02-17T11:47:27Z</time></trkpt>
<trkpt lat="42.280853" lon="3.222892"><ele>349.8</ele><time>2011-02-17T11:47:32Z</time></trkpt>
<trkpt lat="42.281013" lon="3.222645"><ele>348.9</ele><time>2011-02-17T11:47:37Z</time></trkpt>
<trkpt lat="42.281185" lon="3.222382"><ele>348.2</ele><time>2011-02-17T11:47:42Z</time></trkpt>
<trkpt lat="42.281322" lon="3.222160"><ele>347.3</ele><time>2011-02-17T11:47:47Z</time></trkpt>
<trkpt lat="42.281445" lon="3.221962"><ele>346.2</ele><time>2011-02-17T11:47:52Z</time></trkpt>
<trkpt lat="42.281540" lon="3.221762"><ele>345.1</ele><time>2011-02-17T11:47:57Z</time></trkpt>
<trkpt lat="42.281655" lon="3.221487"><ele>343.4</ele><time>2011-02-17T11:48:02Z</time></trkpt>
<trkpt lat="42.281810" lon="3.221118"><ele>341.3</ele><time>2011-02-17T11:48:07Z</time></trkpt>
<trkpt lat="42.281982" lon="3.220710"><ele>339.8</ele><time>2011-02-17T11:48:12Z</time></trkpt>
<trkpt lat="42.282188" lon="3.220382"><ele>339.2</ele><time>2011-02-17T11:48:17Z</time></trkpt>
<trkpt lat="42.282437" lon="3.220252"><ele>339.3</ele><time>2011-02-17T11:48:22Z</time></trkpt>
<trkpt lat="42.282677" lon="3.220097"><ele>338.2</ele><time>2011-02-17T11:48:27Z</time></trkpt>
<trkpt lat="42.282955" lon="3.219868"><ele>337.1</ele><time>2011-02-17T11:48:32Z</time></trkpt>
<trkpt lat="42.283242" lon="3.219635"><ele>337</ele><time>2011-02-17T11:48:37Z</time></trkpt>
<trkpt lat="42.283490" lon="3.219425"><ele>337.9</ele><time>2011-02-17T11:48:42Z</time></trkpt>
<trkpt lat="42.283725" lon="3.219270"><ele>338.7</ele><time>2011-02-17T11:48:47Z</time></trkpt>
<trkpt lat="42.283962" lon="3.219190"><ele>339.7</ele><time>2011-02-17T11:48:52Z</time></trkpt>
<trkpt lat="42.284192" lon="3.219128"><ele>340.4</ele><time>2011-02-17T11:48:57Z</time></trkpt>
<trkpt lat="42.284432" lon="3.219063"><ele>340.4</ele><time>2011-02-17T11:49:02Z</time></trkpt>
<trkpt lat="42.284683" lon="3.218982"><ele>340.1</ele><time>2011-02-17T11:49:07Z</time></trkpt>
<trkpt lat="42.284943" lon="3.218878"><ele>339.7</ele><time>2011-02-17T11:49:12Z</time></trkpt>
<trkpt lat="42.285202" lon="3.218723"><ele>339.1</ele><time>2011-02-17T11:49:17Z</time></trkpt>
<trkpt lat="42.285462" lon="3.218558"><ele>338.1</ele><time>2011-02-17T11:49:22Z</time></trkpt>
<trkpt lat="42.285710" lon="3.218333"><ele>336.4</ele><time>2011-02-17T11:49:27Z</time></trkpt>
<trkpt lat="42.285947" lon="3.217960"><ele>333</ele><time>2011-02-17T11:49:32Z</time></trkpt>
<trkpt lat="42.286370" lon="3.217872"><ele>330.5</ele><time>2011-02-17T11:49:37Z</time></trkpt>
<trkpt lat="42.286767" lon="3.217883"><ele>329.5</ele><time>2011-02-17T11:49:42Z</time></trkpt>
<trkpt lat="42.287117" lon="3.217890"><ele>328.8</ele><time>2011-02-17T11:49:47Z</time></trkpt>
<trkpt lat="42.287442" lon="3.217958"><ele>327.8</ele><time>2011-02-17T11:49:52Z</time></trkpt>
<trkpt lat="42.287770" lon="3.218045"><ele>326.7</ele><time>2011-02-17T11:49:57Z</time></trkpt>
<trkpt lat="42.288113" lon="3.218143"><ele>325</ele><time>2011-02-17T11:50:02Z</time></trkpt>
<trkpt lat="42.288478" lon="3.218305"><ele>322.9</ele><time>2011-02-17T11:50:07Z</time></trkpt>
<trkpt lat="42.288833" lon="3.218468"><ele>320.6</ele><time>2011-02-17T11:50:12Z</time></trkpt>
<trkpt lat="42.289112" lon="3.218363"><ele>318</ele><time>2011-02-17T11:50:17Z</time></trkpt>
<trkpt lat="42.289203" lon="3.218017"><ele>315.7</ele><time>2011-02-17T11:50:22Z</time></trkpt>
<trkpt lat="42.288940" lon="3.217783"><ele>313.4</ele><time>2011-02-17T11:50:27Z</time></trkpt>
<trkpt lat="42.288608" lon="3.217592"><ele>312.1</ele><time>2011-02-17T11:50:32Z</time></trkpt>
<trkpt lat="42.288463" lon="3.217537"><ele>311.5</ele><time>2011-02-17T11:50:37Z</time></trkpt>
<trkpt lat="42.288457" lon="3.217543"><ele>310.7</ele><time>2011-02-17T11:50:42Z</time></trkpt>
<trkpt lat="42.288457" lon="3.217545"><ele>310.1</ele><time>2011-02-17T11:50:47Z</time></trkpt>
<trkpt lat="42.288457" lon="3.217548"><ele>309.8</ele><time>2011-02-17T11:50:52Z</time></trkpt>
<trkpt lat="42.288457" lon="3.217552"><ele>309</ele><time>2011-02-17T11:50:57Z</time></trkpt>
<trkpt lat="42.288457" lon="3.217553"><ele>308.7</ele><time>2011-02-17T11:51:02Z</time></trkpt>
<trkpt lat="42.288457" lon="3.217555"><ele>308.6</ele><time>2011-02-17T11:51:07Z</time></trkpt>
<trkpt lat="42.288457" lon="3.217553"><ele>308.4</ele><time>2011-02-17T11:51:12Z</time></trkpt>
<trkpt lat="42.288452" lon="3.217552"><ele>308.9</ele><time>2011-02-17T11:51:17Z</time></trkpt>
<trkpt lat="42.288448" lon="3.217548"><ele>308.9</ele><time>2011-02-17T11:51:22Z</time></trkpt>
<trkpt lat="42.288445" lon="3.217548"><ele>309</ele><time>2011-02-17T11:51:27Z</time></trkpt>
<trkpt lat="42.288413" lon="3.217508"><ele>309.1</ele><time>2011-02-17T11:51:32Z</time></trkpt>
<trkpt lat="42.288288" lon="3.217367"><ele>308.6</ele><time>2011-02-17T11:51:37Z</time></trkpt>
<trkpt lat="42.288033" lon="3.217193"><ele>307.2</ele><time>2011-02-17T11:51:42Z</time></trkpt>
<trkpt lat="42.287762" lon="3.216837"><ele>303.9</ele><time>2011-02-17T11:51:47Z</time></trkpt>
<trkpt lat="42.287770" lon="3.216387"><ele>301.6</ele><time>2011-02-17T11:51:52Z</time></trkpt>
<trkpt lat="42.288002" lon="3.215945"><ele>297.9</ele><time>2011-02-17T11:51:57Z</time></trkpt>
<trkpt lat="42.288327" lon="3.215450"><ele>292.7</ele><time>2011-02-17T11:52:02Z</time></trkpt>
<trkpt lat="42.288605" lon="3.215093"><ele>288.5</ele><time>2011-02-17T11:52:07Z</time></trkpt>
<trkpt lat="42.288807" lon="3.214847"><ele>285.6</ele><time>2011-02-17T11:52:12Z</time></trkpt>
<trkpt lat="42.288883" lon="3.214623"><ele>283.9</ele><time>2011-02-17T11:52:17Z</time></trkpt>
<trkpt lat="42.288933" lon="3.214522"><ele>282.9</ele><time>2011-02-17T11:52:22Z</time></trkpt>
<trkpt lat="42.288937" lon="3.214535"><ele>282.6</ele><time>2011-02-17T11:52:27Z</time></trkpt>
<trkpt lat="42.288933" lon="3.214538"><ele>282.6</ele><time>2011-02-17T11:52:32Z</time></trkpt>
<trkpt lat="42.288933" lon="3.214542"><ele>282.5</ele><time>2011-02-17T11:52:37Z</time></trkpt>
<trkpt lat="42.288933" lon="3.214547"><ele>282.6</ele><time>2011-02-17T11:52:42Z</time></trkpt>
<trkpt lat="42.288945" lon="3.214655"><ele>282.7</ele><time>2011-02-17T11:52:47Z</time></trkpt>
<trkpt lat="42.288910" lon="3.214903"><ele>282.7</ele><time>2011-02-17T11:52:52Z</time></trkpt>
<trkpt lat="42.288845" lon="3.215232"><ele>282.6</ele><time>2011-02-17T11:52:57Z</time></trkpt>
<trkpt lat="42.288692" lon="3.215593"><ele>282.5</ele><time>2011-02-17T11:53:02Z</time></trkpt>
<trkpt lat="42.288505" lon="3.215950"><ele>282.4</ele><time>2011-02-17T11:53:07Z</time></trkpt>
<trkpt lat="42.288403" lon="3.216343"><ele>282.6</ele><time>2011-02-17T11:53:12Z</time></trkpt>
<trkpt lat="42.288647" lon="3.216637"><ele>282</ele><time>2011-02-17T11:53:17Z</time></trkpt>
<trkpt lat="42.288967" lon="3.216833"><ele>281.4</ele><time>2011-02-17T11:53:22Z</time></trkpt>
<trkpt lat="42.289307" lon="3.216878"><ele>281</ele><time>2011-02-17T11:53:27Z</time></trkpt>
<trkpt lat="42.289638" lon="3.216882"><ele>281.2</ele><time>2011-02-17T11:53:32Z</time></trkpt>
<trkpt lat="42.289967" lon="3.216883"><ele>281.1</ele><time>2011-02-17T11:53:37Z</time></trkpt>
<trkpt lat="42.290283" lon="3.216948"><ele>280.8</ele><time>2011-02-17T11:53:42Z</time></trkpt>
<trkpt lat="42.290562" lon="3.217180"><ele>280.5</ele><time>2011-02-17T11:53:47Z</time></trkpt>
<trkpt lat="42.290837" lon="3.217420"><ele>280.1</ele><time>2011-02-17T11:53:52Z</time></trkpt>
<trkpt lat="42.291112" lon="3.217658"><ele>279.8</ele><time>2011-02-17T11:53:57Z</time></trkpt>
<trkpt lat="42.291370" lon="3.217932"><ele>279.4</ele><time>2011-02-17T11:54:02Z</time></trkpt>
<trkpt lat="42.291488" lon="3.218355"><ele>279.1</ele><time>2011-02-17T11:54:07Z</time></trkpt>
<trkpt lat="42.291573" lon="3.218797"><ele>278.9</ele><time>2011-02-17T11:54:12Z</time></trkpt>
<trkpt lat="42.291630" lon="3.219245"><ele>278.4</ele><time>2011-02-17T11:54:17Z</time></trkpt>
<trkpt lat="42.291470" lon="3.219653"><ele>278.3</ele><time>2011-02-17T11:54:22Z</time></trkpt>
<trkpt lat="42.291145" lon="3.219657"><ele>278.2</ele><time>2011-02-17T11:54:27Z</time></trkpt>
<trkpt lat="42.290798" lon="3.219547"><ele>277.8</ele><time>2011-02-17T11:54:32Z</time></trkpt>
<trkpt lat="42.290443" lon="3.219665"><ele>276.9</ele><time>2011-02-17T11:54:37Z</time></trkpt>
<trkpt lat="42.290260" lon="3.220063"><ele>276.2</ele><time>2011-02-17T11:54:42Z</time></trkpt>
<trkpt lat="42.290130" lon="3.220545"><ele>275.6</ele><time>2011-02-17T11:54:47Z</time></trkpt>
<trkpt lat="42.289807" lon="3.220817"><ele>274.8</ele><time>2011-02-17T11:54:52Z</time></trkpt>
<trkpt lat="42.289437" lon="3.220958"><ele>274.3</ele><time>2011-02-17T11:54:57Z</time></trkpt>
<trkpt lat="42.289097" lon="3.221190"><ele>273.7</ele><time>2011-02-17T11:55:02Z</time></trkpt>
<trkpt lat="42.288750" lon="3.221423"><ele>273.1</ele><time>2011-02-17T11:55:07Z</time></trkpt>
<trkpt lat="42.288368" lon="3.221522"><ele>272.4</ele><time>2011-02-17T11:55:12Z</time></trkpt>
<trkpt lat="42.287998" lon="3.221617"><ele>271.5</ele><time>2011-02-17T11:55:17Z</time></trkpt>
<trkpt lat="42.287628" lon="3.221715"><ele>271.1</ele><time>2011-02-17T11:55:22Z</time></trkpt>
<trkpt lat="42.287270" lon="3.221807"><ele>270.5</ele><time>2011-02-17T11:55:27Z</time></trkpt>
<trkpt lat="42.287033" lon="3.222075"><ele>270.8</ele><time>2011-02-17T11:55:32Z</time></trkpt>
<trkpt lat="42.287232" lon="3.222378"><ele>271.2</ele><time>2011-02-17T11:55:37Z</time></trkpt>
<trkpt lat="42.287567" lon="3.222420"><ele>270.7</ele><time>2011-02-17T11:55:42Z</time></trkpt>
<trkpt lat="42.287903" lon="3.222450"><ele>270.2</ele><time>2011-02-17T11:55:47Z</time></trkpt>
<trkpt lat="42.288247" lon="3.222487"><ele>270.7</ele><time>2011-02-17T11:55:52Z</time></trkpt>
<trkpt lat="42.288597" lon="3.222523"><ele>269.1</ele><time>2011-02-17T11:55:57Z</time></trkpt>
<trkpt lat="42.288940" lon="3.222640"><ele>268.8</ele><time>2011-02-17T11:56:02Z</time></trkpt>
<trkpt lat="42.289257" lon="3.222828"><ele>268.8</ele><time>2011-02-17T11:56:07Z</time></trkpt>
<trkpt lat="42.289597" lon="3.222928"><ele>268.3</ele><time>2011-02-17T11:56:12Z</time></trkpt>
<trkpt lat="42.289952" lon="3.222997"><ele>268.1</ele><time>2011-02-17T11:56:17Z</time></trkpt>
<trkpt lat="42.290310" lon="3.223077"><ele>267</ele><time>2011-02-17T11:56:22Z</time></trkpt>
<trkpt lat="42.290657" lon="3.223237"><ele>266.3</ele><time>2011-02-17T11:56:27Z</time></trkpt>
<trkpt lat="42.290997" lon="3.223405"><ele>265.7</ele><time>2011-02-17T11:56:32Z</time></trkpt>
<trkpt lat="42.291325" lon="3.223570"><ele>265.3</ele><time>2011-02-17T11:56:37Z</time></trkpt>
<trkpt lat="42.291657" lon="3.223733"><ele>264.9</ele><time>2011-02-17T11:56:42Z</time></trkpt>
<trkpt lat="42.291965" lon="3.223948"><ele>264.4</ele><time>2011-02-17T11:56:47Z</time></trkpt>
<trkpt lat="42.292228" lon="3.224258"><ele>264.1</ele><time>2011-02-17T11:56:52Z</time></trkpt>
<trkpt lat="42.292393" lon="3.224678"><ele>264</ele><time>2011-02-17T11:56:57Z</time></trkpt>
<trkpt lat="42.292468" lon="3.225140"><ele>264</ele><time>2011-02-17T11:57:02Z</time></trkpt>
<trkpt lat="42.292717" lon="3.225398"><ele>263.4</ele><time>2011-02-17T11:57:07Z</time></trkpt>
<trkpt lat="42.293080" lon="3.225348"><ele>262.8</ele><time>2011-02-17T11:57:12Z</time></trkpt>
<trkpt lat="42.293442" lon="3.225347"><ele>262.2</ele><time>2011-02-17T11:57:17Z</time></trkpt>
<trkpt lat="42.293678" lon="3.225717"><ele>261.8</ele><time>2011-02-17T11:57:22Z</time></trkpt>
<trkpt lat="42.293812" lon="3.226182"><ele>261.4</ele><time>2011-02-17T11:57:27Z</time></trkpt>
<trkpt lat="42.293922" lon="3.226657"><ele>260.8</ele><time>2011-02-17T11:57:32Z</time></trkpt>
<trkpt lat="42.293933" lon="3.227165"><ele>260.3</ele><time>2011-02-17T11:57:37Z</time></trkpt>
<trkpt lat="42.293892" lon="3.227675"><ele>259.7</ele><time>2011-02-17T11:57:42Z</time></trkpt>
<trkpt lat="42.293850" lon="3.228158"><ele>259.2</ele><time>2011-02-17T11:57:47Z</time></trkpt>
<trkpt lat="42.293808" lon="3.228640"><ele>258.7</ele><time>2011-02-17T11:57:52Z</time></trkpt>
<trkpt lat="42.293693" lon="3.229127"><ele>257</ele><time>2011-02-17T11:57:57Z</time></trkpt>
<trkpt lat="42.293358" lon="3.229512"><ele>255.1</ele><time>2011-02-17T11:58:02Z</time></trkpt>
<trkpt lat="42.292988" lon="3.229918"><ele>252.7</ele><time>2011-02-17T11:58:07Z</time></trkpt>
<trkpt lat="42.292565" lon="3.230297"><ele>249.6</ele><time>2011-02-17T11:58:12Z</time></trkpt>
<trkpt lat="42.292045" lon="3.230428"><ele>246.2</ele><time>2011-02-17T11:58:17Z</time></trkpt>
<trkpt lat="42.291615" lon="3.230540"><ele>244.4</ele><time>2011-02-17T11:58:22Z</time></trkpt>
<trkpt lat="42.291630" lon="3.230988"><ele>243.9</ele><time>2011-02-17T11:58:27Z</time></trkpt>
<trkpt lat="42.291905" lon="3.231295"><ele>243.7</ele><time>2011-02-17T11:58:32Z</time></trkpt>
<trkpt lat="42.291977" lon="3.231728"><ele>243.6</ele><time>2011-02-17T11:58:37Z</time></trkpt>
<trkpt lat="42.291760" lon="3.232092"><ele>243.8</ele><time>2011-02-17T11:58:42Z</time></trkpt>
<trkpt lat="42.291455" lon="3.232350"><ele>243.8</ele><time>2011-02-17T11:58:47Z</time></trkpt>
<trkpt lat="42.291283" lon="3.232702"><ele>243.8</ele><time>2011-02-17T11:58:52Z</time></trkpt>
<trkpt lat="42.291340" lon="3.233152"><ele>243.4</ele><time>2011-02-17T11:58:57Z</time></trkpt>
<trkpt lat="42.291630" lon="3.233363"><ele>243.3</ele><time>2011-02-17T11:59:02Z</time></trkpt>
<trkpt lat="42.291962" lon="3.233303"><ele>244</ele><time>2011-02-17T11:59:07Z</time></trkpt>
<trkpt lat="42.292263" lon="3.233225"><ele>244.6</ele><time>2011-02-17T11:59:12Z</time></trkpt>
<trkpt lat="42.292557" lon="3.233155"><ele>244.8</ele><time>2011-02-17T11:59:17Z</time></trkpt>
<trkpt lat="42.292847" lon="3.233170"><ele>244.5</ele><time>2011-02-17T11:59:22Z</time></trkpt>
<trkpt lat="42.293128" lon="3.233223"><ele>244.4</ele><time>2011-02-17T11:59:27Z</time></trkpt>
<trkpt lat="42.293388" lon="3.233350"><ele>244.8</ele><time>2011-02-17T11:59:32Z</time></trkpt>
<trkpt lat="42.293537" lon="3.233653"><ele>244.9</ele><time>2011-02-17T11:59:37Z</time></trkpt>
<trkpt lat="42.293652" lon="3.233952"><ele>245.4</ele><time>2011-02-17T11:59:42Z</time></trkpt>
<trkpt lat="42.293805" lon="3.234220"><ele>245.6</ele><time>2011-02-17T11:59:47Z</time></trkpt>
<trkpt lat="42.294060" lon="3.234385"><ele>245.1</ele><time>2011-02-17T11:59:52Z</time></trkpt>
<trkpt lat="42.294308" lon="3.234542"><ele>245.2</ele><time>2011-02-17T11:59:57Z</time></trkpt>
<trkpt lat="42.294548" lon="3.234693"><ele>245.3</ele><time>2011-02-17T12:00:02Z</time></trkpt>
<trkpt lat="42.294792" lon="3.234752"><ele>245.2</ele><time>2011-02-17T12:00:07Z</time></trkpt>
<trkpt lat="42.295060" lon="3.234693"><ele>244.6</ele><time>2011-02-17T12:00:12Z</time></trkpt>
<trkpt lat="42.295333" lon="3.234637"><ele>244</ele><time>2011-02-17T12:00:17Z</time></trkpt>
<trkpt lat="42.295605" lon="3.234697"><ele>244.2</ele><time>2011-02-17T12:00:22Z</time></trkpt>
<trkpt lat="42.295872" lon="3.234792"><ele>244.6</ele><time>2011-02-17T12:00:27Z</time></trkpt>
<trkpt lat="42.296135" lon="3.234885"><ele>244.7</ele><time>2011-02-17T12:00:32Z</time></trkpt>
<trkpt lat="42.296395" lon="3.234975"><ele>244.7</ele><time>2011-02-17T12:00:37Z</time></trkpt>
<trkpt lat="42.296650" lon="3.235070"><ele>244.5</ele><time>2011-02-17T12:00:42Z</time></trkpt>
<trkpt lat="42.296875" lon="3.235240"><ele>243.9</ele><time>2011-02-17T12:00:47Z</time></trkpt>
<trkpt lat="42.296920" lon="3.235577"><ele>244.1</ele><time>2011-02-17T12:00:52Z</time></trkpt>
<trkpt lat="42.296818" lon="3.235917"><ele>244.4</ele><time>2011-02-17T12:00:57Z</time></trkpt>
<trkpt lat="42.296673" lon="3.236265"><ele>244.7</ele><time>2011-02-17T12:01:02Z</time></trkpt>
<trkpt lat="42.296573" lon="3.236645"><ele>245.1</ele><time>2011-02-17T12:01:07Z</time></trkpt>
<trkpt lat="42.296470" lon="3.236975"><ele>245.1</ele><time>2011-02-17T12:01:12Z</time></trkpt>
<trkpt lat="42.296375" lon="3.237080"><ele>245.7</ele><time>2011-02-17T12:01:17Z</time></trkpt>
<trkpt lat="42.296322" lon="3.237068"><ele>246.2</ele><time>2011-02-17T12:01:22Z</time></trkpt>
<trkpt lat="42.296307" lon="3.237070"><ele>246.4</ele><time>2011-02-17T12:01:27Z</time></trkpt>
<trkpt lat="42.296307" lon="3.237070"><ele>246.3</ele><time>2011-02-17T12:01:32Z</time></trkpt>
<trkpt lat="42.296298" lon="3.237075"><ele>245.9</ele><time>2011-02-17T12:01:37Z</time></trkpt>
<trkpt lat="42.296277" lon="3.237102"><ele>245.7</ele><time>2011-02-17T12:01:42Z</time></trkpt>
<trkpt lat="42.296230" lon="3.237093"><ele>245.7</ele><time>2011-02-17T12:01:47Z</time></trkpt>
<trkpt lat="42.296150" lon="3.237097"><ele>245</ele><time>2011-02-17T12:01:52Z</time></trkpt>
<trkpt lat="42.296150" lon="3.237090"><ele>244.8</ele><time>2011-02-17T12:01:57Z</time></trkpt>
<trkpt lat="42.296150" lon="3.237090"><ele>244.7</ele><time>2011-02-17T12:02:02Z</time></trkpt>
<trkpt lat="42.296150" lon="3.237093"><ele>244.3</ele><time>2011-02-17T12:02:07Z</time></trkpt>
<trkpt lat="42.296150" lon="3.237093"><ele>244</ele><time>2011-02-17T12:02:12Z</time></trkpt>
<trkpt lat="42.296150" lon="3.237088"><ele>243.9</ele><time>2011-02-17T12:02:17Z</time></trkpt>
<trkpt lat="42.296153" lon="3.237090"><ele>244.2</ele><time>2011-02-17T12:02:22Z</time></trkpt>
<trkpt lat="42.296112" lon="3.237110"><ele>244.1</ele><time>2011-02-17T12:02:27Z</time></trkpt>
<trkpt lat="42.296002" lon="3.237170"><ele>242.4</ele><time>2011-02-17T12:02:32Z</time></trkpt>
<trkpt lat="42.295833" lon="3.237178"><ele>239.1</ele><time>2011-02-17T12:02:37Z</time></trkpt>
<trkpt lat="42.295650" lon="3.237305"><ele>234.9</ele><time>2011-02-17T12:02:42Z</time></trkpt>
<trkpt lat="42.295685" lon="3.237488"><ele>234.5</ele><time>2011-02-17T12:02:47Z</time></trkpt>
<trkpt lat="42.295750" lon="3.237670"><ele>234.3</ele><time>2011-02-17T12:02:52Z</time></trkpt>
<trkpt lat="42.295827" lon="3.237915"><ele>233.7</ele><time>2011-02-17T12:02:57Z</time></trkpt>
<trkpt lat="42.295902" lon="3.238177"><ele>232.8</ele><time>2011-02-17T12:03:02Z</time></trkpt>
<trkpt lat="42.295987" lon="3.238502"><ele>230.8</ele><time>2011-02-17T12:03:07Z</time></trkpt>
<trkpt lat="42.296020" lon="3.238887"><ele>229.7</ele><time>2011-02-17T12:03:12Z</time></trkpt>
<trkpt lat="42.295978" lon="3.239223"><ele>229.3</ele><time>2011-02-17T12:03:17Z</time></trkpt>
<trkpt lat="42.295860" lon="3.239590"><ele>227.9</ele><time>2011-02-17T12:03:22Z</time></trkpt>
<trkpt lat="42.295703" lon="3.240022"><ele>225.3</ele><time>2011-02-17T12:03:27Z</time></trkpt>
<trkpt lat="42.295727" lon="3.240455"><ele>224.1</ele><time>2011-02-17T12:03:32Z</time></trkpt>
<trkpt lat="42.295628" lon="3.240890"><ele>221.7</ele><time>2011-02-17T12:03:37Z</time></trkpt>
<trkpt lat="42.295413" lon="3.241282"><ele>219.4</ele><time>2011-02-17T12:03:42Z</time></trkpt>
<trkpt lat="42.295188" lon="3.241673"><ele>218</ele><time>2011-02-17T12:03:47Z</time></trkpt>
<trkpt lat="42.294963" lon="3.242045"><ele>216.6</ele><time>2011-02-17T12:03:52Z</time></trkpt>
<trkpt lat="42.294812" lon="3.242468"><ele>214.3</ele><time>2011-02-17T12:03:57Z</time></trkpt>
<trkpt lat="42.294765" lon="3.242947"><ele>211.9</ele><time>2011-02-17T12:04:02Z</time></trkpt>
<trkpt lat="42.294673" lon="3.243428"><ele>208.7</ele><time>2011-02-17T12:04:07Z</time></trkpt>
<trkpt lat="42.294442" lon="3.243868"><ele>206.3</ele><time>2011-02-17T12:04:12Z</time></trkpt>
<trkpt lat="42.294208" lon="3.244220"><ele>205.3</ele><time>2011-02-17T12:04:17Z</time></trkpt>
<trkpt lat="42.293983" lon="3.244453"><ele>203.9</ele><time>2011-02-17T12:04:22Z</time></trkpt>
<trkpt lat="42.293815" lon="3.244622"><ele>203.8</ele><time>2011-02-17T12:04:27Z</time></trkpt>
<trkpt lat="42.293800" lon="3.244932"><ele>203.6</ele><time>2011-02-17T12:04:32Z</time></trkpt>
<trkpt lat="42.293720" lon="3.245288"><ele>203.1</ele><time>2011-02-17T12:04:37Z</time></trkpt>
<trkpt lat="42.293563" lon="3.245627"><ele>202.1</ele><time>2011-02-17T12:04:42Z</time></trkpt>
<trkpt lat="42.293300" lon="3.245848"><ele>200.7</ele><time>2011-02-17T12:04:47Z</time></trkpt>
<trkpt lat="42.293397" lon="3.246178"><ele>197.9</ele><time>2011-02-17T12:04:52Z</time></trkpt>
<trkpt lat="42.293515" lon="3.246548"><ele>196.5</ele><time>2011-02-17T12:04:57Z</time></trkpt>
<trkpt lat="42.293397" lon="3.246927"><ele>195.5</ele><time>2011-02-17T12:05:02Z</time></trkpt>
<trkpt lat="42.293198" lon="3.247322"><ele>193.3</ele><time>2011-02-17T12:05:07Z</time></trkpt>
<trkpt lat="42.292957" lon="3.247740"><ele>191.5</ele><time>2011-02-17T12:05:12Z</time></trkpt>
<trkpt lat="42.292747" lon="3.248150"><ele>189.9</ele><time>2011-02-17T12:05:17Z</time></trkpt>
<trkpt lat="42.292507" lon="3.248438"><ele>188.6</ele><time>2011-02-17T12:05:22Z</time></trkpt>
<trkpt lat="42.292323" lon="3.248592"><ele>185.6</ele><time>2011-02-17T12:05:27Z</time></trkpt>
<trkpt lat="42.292152" lon="3.248753"><ele>180.5</ele><time>2011-02-17T12:05:32Z</time></trkpt>
<trkpt lat="42.292000" lon="3.249023"><ele>174.6</ele><time>2011-02-17T12:05:37Z</time></trkpt>
<trkpt lat="42.291958" lon="3.249457"><ele>167.9</ele><time>2011-02-17T12:05:42Z</time></trkpt>
<trkpt lat="42.291977" lon="3.249940"><ele>164.4</ele><time>2011-02-17T12:05:47Z</time></trkpt>
<trkpt lat="42.292057" lon="3.250348"><ele>159.6</ele><time>2011-02-17T12:05:52Z</time></trkpt>
<trkpt lat="42.292183" lon="3.250760"><ele>154.6</ele><time>2011-02-17T12:05:57Z</time></trkpt>
<trkpt lat="42.292202" lon="3.251127"><ele>153.4</ele><time>2011-02-17T12:06:02Z</time></trkpt>
<trkpt lat="42.292125" lon="3.251388"><ele>152.7</ele><time>2011-02-17T12:06:07Z</time></trkpt>
<trkpt lat="42.292107" lon="3.251447"><ele>152.7</ele><time>2011-02-17T12:06:12Z</time></trkpt>
<trkpt lat="42.292095" lon="3.251438"><ele>152.2</ele><time>2011-02-17T12:06:17Z</time></trkpt>
<trkpt lat="42.292095" lon="3.251433"><ele>152</ele><time>2011-02-17T12:06:22Z</time></trkpt>
<trkpt lat="42.292095" lon="3.251430"><ele>151.8</ele><time>2011-02-17T12:06:27Z</time></trkpt>
<trkpt lat="42.292095" lon="3.251427"><ele>151.7</ele><time>2011-02-17T12:06:32Z</time></trkpt>
<trkpt lat="42.292095" lon="3.251425"><ele>151.7</ele><time>2011-02-17T12:06:37Z</time></trkpt>
<trkpt lat="42.292098" lon="3.251423"><ele>151.7</ele><time>2011-02-17T12:06:42Z</time></trkpt>
<trkpt lat="42.292098" lon="3.251425"><ele>151.5</ele><time>2011-02-17T12:06:47Z</time></trkpt>
<trkpt lat="42.292077" lon="3.251470"><ele>152</ele><time>2011-02-17T12:06:52Z</time></trkpt>
<trkpt lat="42.291980" lon="3.251637"><ele>152.5</ele><time>2011-02-17T12:06:57Z</time></trkpt>
<trkpt lat="42.291847" lon="3.251885"><ele>151.8</ele><time>2011-02-17T12:07:02Z</time></trkpt>
<trkpt lat="42.291748" lon="3.252168"><ele>149.8</ele><time>2011-02-17T12:07:07Z</time></trkpt>
<trkpt lat="42.291683" lon="3.252513"><ele>144.9</ele><time>2011-02-17T12:07:12Z</time></trkpt>
<trkpt lat="42.291618" lon="3.253033"><ele>140.2</ele><time>2011-02-17T12:07:17Z</time></trkpt>
<trkpt lat="42.291503" lon="3.253415"><ele>136.3</ele><time>2011-02-17T12:07:22Z</time></trkpt>
<trkpt lat="42.291337" lon="3.253682"><ele>131.8</ele><time>2011-02-17T12:07:27Z</time></trkpt>
<trkpt lat="42.291153" lon="3.254033"><ele>127</ele><time>2011-02-17T12:07:32Z</time></trkpt>
<trkpt lat="42.290917" lon="3.254290"><ele>124.3</ele><time>2011-02-17T12:07:37Z</time></trkpt>
<trkpt lat="42.290607" lon="3.254425"><ele>120.8</ele><time>2011-02-17T12:07:42Z</time></trkpt>
<trkpt lat="42.290355" lon="3.254665"><ele>117.7</ele><time>2011-02-17T12:07:47Z</time></trkpt>
<trkpt lat="42.290195" lon="3.255008"><ele>114.3</ele><time>2011-02-17T12:07:52Z</time></trkpt>
<trkpt lat="42.290088" lon="3.255343"><ele>110.2</ele><time>2011-02-17T12:07:57Z</time></trkpt>
<trkpt lat="42.290108" lon="3.255800"><ele>108.6</ele><time>2011-02-17T12:08:02Z</time></trkpt>
<trkpt lat="42.290183" lon="3.256217"><ele>109.6</ele><time>2011-02-17T12:08:07Z</time></trkpt>
<trkpt lat="42.290313" lon="3.256562"><ele>108.7</ele><time>2011-02-17T12:08:12Z</time></trkpt>
<trkpt lat="42.290535" lon="3.256883"><ele>107.2</ele><time>2011-02-17T12:08:17Z</time></trkpt>
<trkpt lat="42.290742" lon="3.257263"><ele>103.7</ele><time>2011-02-17T12:08:22Z</time></trkpt>
<trkpt lat="42.290908" lon="3.257702"><ele>102.6</ele><time>2011-02-17T12:08:27Z</time></trkpt>
<trkpt lat="42.291068" lon="3.258110"><ele>101.3</ele><time>2011-02-17T12:08:32Z</time></trkpt>
<trkpt lat="42.291263" lon="3.258475"><ele>100.6</ele><time>2011-02-17T12:08:37Z</time></trkpt>
<trkpt lat="42.291508" lon="3.258778"><ele>97.6</ele><time>2011-02-17T12:08:42Z</time></trkpt>
<trkpt lat="42.291547" lon="3.259180"><ele>96</ele><time>2011-02-17T12:08:47Z</time></trkpt>
<trkpt lat="42.291473" lon="3.259618"><ele>92.3</ele><time>2011-02-17T12:08:52Z</time></trkpt>
<trkpt lat="42.291267" lon="3.260037"><ele>87.9</ele><time>2011-02-17T12:08:57Z</time></trkpt>
<trkpt lat="42.291023" lon="3.260375"><ele>85.4</ele><time>2011-02-17T12:09:02Z</time></trkpt>
<trkpt lat="42.290817" lon="3.260465"><ele>82.7</ele><time>2011-02-17T12:09:07Z</time></trkpt>
<trkpt lat="42.290638" lon="3.260618"><ele>78.6</ele><time>2011-02-17T12:09:12Z</time></trkpt>
<trkpt lat="42.290603" lon="3.261050"><ele>77.1</ele><time>2011-02-17T12:09:17Z</time></trkpt>
<trkpt lat="42.290638" lon="3.261502"><ele>77.5</ele><time>2011-02-17T12:09:22Z</time></trkpt>
<trkpt lat="42.290798" lon="3.261825"><ele>78.4</ele><time>2011-02-17T12:09:27Z</time></trkpt>
<trkpt lat="42.290887" lon="3.262167"><ele>78.7</ele><time>2011-02-17T12:09:32Z</time></trkpt>
<trkpt lat="42.290962" lon="3.262525"><ele>78.3</ele><time>2011-02-17T12:09:37Z</time></trkpt>
<trkpt lat="42.291020" lon="3.262888"><ele>78.1</ele><time>2011-02-17T12:09:42Z</time></trkpt>
<trkpt lat="42.291058" lon="3.263262"><ele>77.9</ele><time>2011-02-17T12:09:47Z</time></trkpt>
<trkpt lat="42.291012" lon="3.263530"><ele>77</ele><time>2011-02-17T12:09:52Z</time></trkpt>
<trkpt lat="42.290962" lon="3.263673"><ele>75.7</ele><time>2011-02-17T12:09:57Z</time></trkpt>
<trkpt lat="42.290962" lon="3.263670"><ele>75.6</ele><time>2011-02-17T12:10:02Z</time></trkpt>
<trkpt lat="42.290962" lon="3.263665"><ele>75.7</ele><time>2011-02-17T12:10:07Z</time></trkpt>
<trkpt lat="42.290962" lon="3.263660"><ele>75.8</ele><time>2011-02-17T12:10:12Z</time></trkpt>
<trkpt lat="42.290962" lon="3.263657"><ele>75.8</ele><time>2011-02-17T12:10:17Z</time></trkpt>
<trkpt lat="42.290962" lon="3.263653"><ele>75.9</ele><time>2011-02-17T12:10:22Z</time></trkpt>
<trkpt lat="42.290950" lon="3.263662"><ele>75.5</ele><time>2011-02-17T12:10:27Z</time></trkpt>
<trkpt lat="42.290923" lon="3.263672"><ele>74.9</ele><time>2011-02-17T12:10:32Z</time></trkpt>
<trkpt lat="42.290923" lon="3.263673"><ele>74.7</ele><time>2011-02-17T12:10:37Z</time></trkpt>
<trkpt lat="42.290928" lon="3.263673"><ele>74.6</ele><time>2011-02-17T12:10:42Z</time></trkpt>
<trkpt lat="42.290928" lon="3.263673"><ele>74.6</ele><time>2011-02-17T12:10:47Z</time></trkpt>
<trkpt lat="42.290928" lon="3.263675"><ele>74.6</ele><time>2011-02-17T12:10:52Z</time></trkpt>
<trkpt lat="42.290928" lon="3.263675"><ele>74.5</ele><time>2011-02-17T12:10:57Z</time></trkpt>
<trkpt lat="42.290928" lon="3.263673"><ele>74.7</ele><time>2011-02-17T12:11:02Z</time></trkpt>
<trkpt lat="42.290940" lon="3.263703"><ele>75</ele><time>2011-02-17T12:11:07Z</time></trkpt>
<trkpt lat="42.290905" lon="3.263792"><ele>74.1</ele><time>2011-02-17T12:11:12Z</time></trkpt>
<trkpt lat="42.290867" lon="3.263905"><ele>73.5</ele><time>2011-02-17T12:11:17Z</time></trkpt>
<trkpt lat="42.290867" lon="3.263932"><ele>72.7</ele><time>2011-02-17T12:11:22Z</time></trkpt>
<trkpt lat="42.290828" lon="3.263973"><ele>72.6</ele><time>2011-02-17T12:11:27Z</time></trkpt>
<trkpt lat="42.290813" lon="3.264028"><ele>72.1</ele><time>2011-02-17T12:11:32Z</time></trkpt>
<trkpt lat="42.290802" lon="3.264060"><ele>70.8</ele><time>2011-02-17T12:11:37Z</time></trkpt>
<trkpt lat="42.290810" lon="3.264137"><ele>69.4</ele><time>2011-02-17T12:11:42Z</time></trkpt>
<trkpt lat="42.290775" lon="3.264280"><ele>68.7</ele><time>2011-02-17T12:11:47Z</time></trkpt>
<trkpt lat="42.290730" lon="3.264628"><ele>68.3</ele><time>2011-02-17T12:11:52Z</time></trkpt>
<trkpt lat="42.290733" lon="3.265015"><ele>68.2</ele><time>2011-02-17T12:11:57Z</time></trkpt>
<trkpt lat="42.290707" lon="3.265282"><ele>66.5</ele><time>2011-02-17T12:12:02Z</time></trkpt>
<trkpt lat="42.290597" lon="3.265503"><ele>63.2</ele><time>2011-02-17T12:12:07Z</time></trkpt>
<trkpt lat="42.290458" lon="3.265750"><ele>57.1</ele><time>2011-02-17T12:12:12Z</time></trkpt>
<trkpt lat="42.290253" lon="3.266097"><ele>51.1</ele><time>2011-02-17T12:12:17Z</time></trkpt>
<trkpt lat="42.290028" lon="3.266500"><ele>47.9</ele><time>2011-02-17T12:12:22Z</time></trkpt>
<trkpt lat="42.289857" lon="3.266832"><ele>47.9</ele><time>2011-02-17T12:12:27Z</time></trkpt>
<trkpt lat="42.289668" lon="3.266932"><ele>46.1</ele><time>2011-02-17T12:12:32Z</time></trkpt>
<trkpt lat="42.289448" lon="3.267150"><ele>41.1</ele><time>2011-02-17T12:12:37Z</time></trkpt>
<trkpt lat="42.289143" lon="3.267433"><ele>36.3</ele><time>2011-02-17T12:12:42Z</time></trkpt>
<trkpt lat="42.288913" lon="3.267737"><ele>33</ele><time>2011-02-17T12:12:47Z</time></trkpt>
<trkpt lat="42.288715" lon="3.267980"><ele>29.2</ele><time>2011-02-17T12:12:52Z</time></trkpt>
<trkpt lat="42.288578" lon="3.268147"><ele>26.1</ele><time>2011-02-17T12:12:57Z</time></trkpt>
<trkpt lat="42.288383" lon="3.268387"><ele>23</ele><time>2011-02-17T12:13:02Z</time></trkpt>
<trkpt lat="42.288223" lon="3.268697"><ele>19.5</ele><time>2011-02-17T12:13:07Z</time></trkpt>
<trkpt lat="42.288063" lon="3.269038"><ele>17.4</ele><time>2011-02-17T12:13:12Z</time></trkpt>
<trkpt lat="42.288090" lon="3.269342"><ele>17.7</ele><time>2011-02-17T12:13:17Z</time></trkpt>
<trkpt lat="42.288090" lon="3.269645"><ele>17.6</ele><time>2011-02-17T12:13:22Z</time></trkpt>
<trkpt lat="42.288090" lon="3.269928"><ele>15.5</ele><time>2011-02-17T12:13:27Z</time></trkpt>
<trkpt lat="42.288158" lon="3.270167"><ele>11.7</ele><time>2011-02-17T12:13:32Z</time></trkpt>
<trkpt lat="42.288327" lon="3.270303"><ele>8.9</ele><time>2011-02-17T12:13:37Z</time></trkpt>
<trkpt lat="42.288357" lon="3.270585"><ele>7.6</ele><time>2011-02-17T12:13:42Z</time></trkpt>
<trkpt lat="42.288365" lon="3.270857"><ele>7.1</ele><time>2011-02-17T12:13:47Z</time></trkpt>
<trkpt lat="42.288368" lon="3.271110"><ele>7</ele><time>2011-02-17T12:13:52Z</time></trkpt>
<trkpt lat="42.288457" lon="3.271347"><ele>6.5</ele><time>2011-02-17T12:13:57Z</time></trkpt>
<trkpt lat="42.288597" lon="3.271582"><ele>5.5</ele><time>2011-02-17T12:14:02Z</time></trkpt>
<trkpt lat="42.288750" lon="3.271822"><ele>4.6</ele><time>2011-02-17T12:14:07Z</time></trkpt>
<trkpt lat="42.288945" lon="3.272043"><ele>4</ele><time>2011-02-17T12:14:12Z</time></trkpt>
<trkpt lat="42.289112" lon="3.272308"><ele>4.1</ele><time>2011-02-17T12:14:17Z</time></trkpt>
<trkpt lat="42.289250" lon="3.272608"><ele>3.4</ele><time>2011-02-17T12:14:22Z</time></trkpt>
<trkpt lat="42.289375" lon="3.272893"><ele>3.3</ele><time>2011-02-17T12:14:27Z</time></trkpt>
<trkpt lat="42.289422" lon="3.273212"><ele>3</ele><time>2011-02-17T12:14:32Z</time></trkpt>
<trkpt lat="42.289375" lon="3.273552"><ele>2.8</ele><time>2011-02-17T12:14:37Z</time></trkpt>
<trkpt lat="42.289352" lon="3.273875"><ele>2.9</ele><time>2011-02-17T12:14:42Z</time></trkpt>
<trkpt lat="42.289303" lon="3.274173"><ele>4.3</ele><time>2011-02-17T12:14:47Z</time></trkpt>
<trkpt lat="42.289268" lon="3.274435"><ele>5.5</ele><time>2011-02-17T12:14:52Z</time></trkpt>
<trkpt lat="42.289227" lon="3.274710"><ele>5.6</ele><time>2011-02-17T12:14:57Z</time></trkpt>
<trkpt lat="42.289303" lon="3.274833"><ele>3.9</ele><time>2011-02-17T12:15:02Z</time></trkpt>
<trkpt lat="42.289402" lon="3.274668"><ele>4.2</ele><time>2011-02-17T12:15:07Z</time></trkpt>
<trkpt lat="42.289535" lon="3.274473"><ele>4</ele><time>2011-02-17T12:15:12Z</time></trkpt>
<trkpt lat="42.289662" lon="3.274283"><ele>4.9</ele><time>2011-02-17T12:15:17Z</time></trkpt>
<trkpt lat="42.289840" lon="3.274252"><ele>6.5</ele><time>2011-02-17T12:15:22Z</time></trkpt>
<trkpt lat="42.289963" lon="3.274300"><ele>8.2</ele><time>2011-02-17T12:15:27Z</time></trkpt>
<trkpt lat="42.289990" lon="3.274500"><ele>8.7</ele><time>2011-02-17T12:15:32Z</time></trkpt>
<trkpt lat="42.290035" lon="3.274782"><ele>8.1</ele><time>2011-02-17T12:15:37Z</time></trkpt>
<trkpt lat="42.290070" lon="3.275085"><ele>6.5</ele><time>2011-02-17T12:15:42Z</time></trkpt>
<trkpt lat="42.290065" lon="3.275370"><ele>7</ele><time>2011-02-17T12:15:47Z</time></trkpt>
<trkpt lat="42.290020" lon="3.275633"><ele>8.8</ele><time>2011-02-17T12:15:52Z</time></trkpt>
<trkpt lat="42.289993" lon="3.275845"><ele>8.9</ele><time>2011-02-17T12:15:57Z</time></trkpt>
<trkpt lat="42.290082" lon="3.275983"><ele>9.2</ele><time>2011-02-17T12:16:02Z</time></trkpt>
<trkpt lat="42.290123" lon="3.276077"><ele>9.5</ele><time>2011-02-17T12:16:07Z</time></trkpt>
<trkpt lat="42.290153" lon="3.276200"><ele>10.9</ele><time>2011-02-17T12:16:12Z</time></trkpt>
<trkpt lat="42.290200" lon="3.276320"><ele>14.4</ele><time>2011-02-17T12:16:17Z</time></trkpt>
<trkpt lat="42.290230" lon="3.276425"><ele>16.9</ele><time>2011-02-17T12:16:22Z</time></trkpt>
<trkpt lat="42.290280" lon="3.276532"><ele>21.9</ele><time>2011-02-17T12:16:27Z</time></trkpt>
<trkpt lat="42.290263" lon="3.276643"><ele>24.4</ele><time>2011-02-17T12:16:32Z</time></trkpt>
<trkpt lat="42.290242" lon="3.276767"><ele>24.9</ele><time>2011-02-17T12:16:37Z</time></trkpt>
<trkpt lat="42.290230" lon="3.276885"><ele>25.2</ele><time>2011-02-17T12:16:42Z</time></trkpt>
<trkpt lat="42.290253" lon="3.277007"><ele>26.5</ele><time>2011-02-17T12:16:47Z</time></trkpt>
<trkpt lat="42.290302" lon="3.277135"><ele>28.2</ele><time>2011-02-17T12:16:52Z</time></trkpt>
<trkpt lat="42.290322" lon="3.277277"><ele>26.9</ele><time>2011-02-17T12:16:57Z</time></trkpt>
<trkpt lat="42.290345" lon="3.277433"><ele>25.7</ele><time>2011-02-17T12:17:02Z</time></trkpt>
<trkpt lat="42.290393" lon="3.277588"><ele>24.6</ele><time>2011-02-17T12:17:07Z</time></trkpt>
<trkpt lat="42.290455" lon="3.277758"><ele>23.6</ele><time>2011-02-17T12:17:12Z</time></trkpt>
<trkpt lat="42.290565" lon="3.277955"><ele>23.1</ele><time>2011-02-17T12:17:17Z</time></trkpt>
<trkpt lat="42.290730" lon="3.278237"><ele>14.9</ele><time>2011-02-17T12:17:22Z</time></trkpt>
<trkpt lat="42.290882" lon="3.278548"><ele>11.5</ele><time>2011-02-17T12:17:27Z</time></trkpt>
<trkpt lat="42.290817" lon="3.278747"><ele>11.2</ele><time>2011-02-17T12:17:32Z</time></trkpt>
<trkpt lat="42.290683" lon="3.278777"><ele>11.8</ele><time>2011-02-17T12:17:37Z</time></trkpt>
<trkpt lat="42.290573" lon="3.278865"><ele>14.1</ele><time>2011-02-17T12:17:42Z</time></trkpt>
<trkpt lat="42.290482" lon="3.278968"><ele>16.1</ele><time>2011-02-17T12:17:47Z</time></trkpt>
<trkpt lat="42.290382" lon="3.279075"><ele>17.6</ele><time>2011-02-17T12:17:52Z</time></trkpt>
<trkpt lat="42.290283" lon="3.279160"><ele>21.2</ele><time>2011-02-17T12:17:57Z</time></trkpt>
<trkpt lat="42.290165" lon="3.279232"><ele>24.7</ele><time>2011-02-17T12:18:02Z</time></trkpt>
<trkpt lat="42.290005" lon="3.279295"><ele>25.3</ele><time>2011-02-17T12:18:07Z</time></trkpt>
<trkpt lat="42.289857" lon="3.279390"><ele>27.5</ele><time>2011-02-17T12:18:12Z</time></trkpt>
<trkpt lat="42.289780" lon="3.279442"><ele>27.6</ele><time>2011-02-17T12:18:17Z</time></trkpt>
<trkpt lat="42.289813" lon="3.279433"><ele>22.3</ele><time>2011-02-17T12:18:22Z</time></trkpt>
<trkpt lat="42.289807" lon="3.279430"><ele>20.2</ele><time>2011-02-17T12:18:27Z</time></trkpt>
<trkpt lat="42.289825" lon="3.279435"><ele>17.4</ele><time>2011-02-17T12:18:32Z</time></trkpt>
<trkpt lat="42.289818" lon="3.279433"><ele>16.7</ele><time>2011-02-17T12:18:37Z</time></trkpt>
<trkpt lat="42.289787" lon="3.279448"><ele>21.4</ele><time>2011-02-17T12:18:42Z</time></trkpt>
<trkpt lat="42.289795" lon="3.279433"><ele>19.5</ele><time>2011-02-17T12:18:47Z</time></trkpt>
<trkpt lat="42.289787" lon="3.279425"><ele>19.5</ele><time>2011-02-17T12:18:52Z</time></trkpt>
<trkpt lat="42.289765" lon="3.279398"><ele>20.1</ele><time>2011-02-17T12:18:57Z</time></trkpt>
<trkpt lat="42.289727" lon="3.279385"><ele>24</ele><time>2011-02-17T12:19:02Z</time></trkpt>
<trkpt lat="42.289765" lon="3.279392"><ele>20.5</ele><time>2011-02-17T12:19:07Z</time></trkpt>
<trkpt lat="42.289748" lon="3.279377"><ele>23.4</ele><time>2011-02-17T12:19:12Z</time></trkpt>
<trkpt lat="42.289760" lon="3.279360"><ele>20.5</ele><time>2011-02-17T12:19:17Z</time></trkpt>
<trkpt lat="42.289777" lon="3.279378"><ele>19.9</ele><time>2011-02-17T12:19:22Z</time></trkpt>
<trkpt lat="42.289748" lon="3.279337"><ele>17.1</ele><time>2011-02-17T12:19:27Z</time></trkpt>
<trkpt lat="42.289753" lon="3.279355"><ele>15.6</ele><time>2011-02-17T12:19:34Z</time></trkpt>
<trkpt lat="42.289787" lon="3.279378"><ele>13.1</ele><time>2011-02-17T12:19:42Z</time></trkpt>
<trkpt lat="42.289822" lon="3.279308"><ele>4.3</ele><time>2011-02-17T12:19:47Z</time></trkpt>
<trkpt lat="42.289772" lon="3.279352"><ele>4.8</ele><time>2011-02-17T12:19:52Z</time></trkpt>
<trkpt lat="42.289772" lon="3.279397"><ele>9.3</ele><time>2011-02-17T12:19:57Z</time></trkpt>
<trkpt lat="42.289818" lon="3.279365"><ele>6.1</ele><time>2011-02-17T12:20:02Z</time></trkpt>
<trkpt lat="42.289783" lon="3.279310"><ele>7.8</ele><time>2011-02-17T12:20:07Z</time></trkpt>
<trkpt lat="42.289780" lon="3.279343"><ele>6.8</ele><time>2011-02-17T12:20:12Z</time></trkpt>
<trkpt lat="42.289777" lon="3.279437"><ele>12.4</ele><time>2011-02-17T12:20:17Z</time></trkpt>
<trkpt lat="42.289748" lon="3.279488"><ele>21.1</ele><time>2011-02-17T12:20:22Z</time></trkpt>
<trkpt lat="42.289738" lon="3.279490"><ele>25.1</ele><time>2011-02-17T12:20:27Z</time></trkpt>
<trkpt lat="42.289733" lon="3.279558"><ele>27.3</ele><time>2011-02-17T12:20:32Z</time></trkpt>
<trkpt lat="42.289760" lon="3.279523"><ele>29.1</ele><time>2011-02-17T12:20:41Z</time></trkpt>
<trkpt lat="42.289733" lon="3.279475"><ele>28.5</ele><time>2011-02-17T12:20:46Z</time></trkpt>
<trkpt lat="42.289727" lon="3.279532"><ele>24.6</ele><time>2011-02-17T12:20:51Z</time></trkpt>
<trkpt lat="42.289695" lon="3.279498"><ele>24.5</ele><time>2011-02-17T12:20:56Z</time></trkpt>
<trkpt lat="42.289677" lon="3.279445"><ele>26.6</ele><time>2011-02-17T12:21:01Z</time></trkpt>
</trkseg></trk></gpx>